ftp/pub/palmer/observations_modified/2019/June/AR190414_BASE.txt

Download

Sample DateTime	Unit Id	WS Avg 2min	WD Avg 2min	WGS 10min	WGD 10min	Air Temp	Rel Humidity	Dew Point	Pyranometer	Quantum	Air Pressure	Snow Level	Rainfall	PW Current	Visibility	CBase 1	CBase 2	CBase 3	Vert Vis
2019/04/14 00:00:00	BASE	3.10	139	3.65	140	1.5	100	1.5	0	0	952.8	NA	0.0000		9999	3670	0	0	0
2019/04/14 00:01:00	BASE	3.39	139	3.65	135	1.5	100	1.5	0	0	952.8	NA	0.0000		9999	4100	0	0	0
2019/04/14 00:02:00	BASE	3.34	140	3.65	135	1.5	100	1.5	0	0	952.8	NA	0.0000		9999	3280	0	0	0
2019/04/14 00:03:00	BASE	3.10	140	3.65	135	1.5	100	1.5	0	0	952.8	NA	0.0000		9999	2620	0	0	0
2019/04/14 00:04:00	BASE	2.98	138	3.65	135	1.5	99	1.4	0	0	952.8	NA	0.0000		9999	2490	0	0	0
2019/04/14 00:05:00	BASE	2.68	142	3.65	135	1.5	99	1.4	0	0	952.8	NA	0.0000		9999	2360	0	0	0
2019/04/14 00:06:00	BASE	1.80	158	3.65	135	1.6	98	1.3	0	0	952.8	NA	0.0000		9999	2260	0	0	0
2019/04/14 00:07:00	BASE	1.57	170	3.65	135	1.6	98	1.3	0	0	952.8	NA	0.0000		9999	3540	0	0	0
2019/04/14 00:08:00	BASE	2.06	173	3.65	135	1.6	97	1.2	0	0	952.9	NA	0.0000		9999	3540	0	0	0
2019/04/14 00:09:00	BASE	2.15	173	3.65	135	1.6	97	1.2	0	0	952.9	NA	0.0000		9999	3540	0	0	0
2019/04/14 00:10:00	BASE	1.86	176	3.65	135	1.6	97	1.1	0	0	952.9	NA	0.0000		9999	3480	0	0	0
2019/04/14 00:11:00	BASE	1.99	180	3.34	138	1.5	97	1.1	0	0	952.9	NA	0.0000		9999	2490	0	0	0
2019/04/14 00:12:00	BASE	2.36	171	3.34	138	1.5	97	1.1	0	0	952.9	NA	0.0000		9999	2400	3380	0	0
2019/04/14 00:13:00	BASE	2.51	159	3.34	138	1.5	97	1.0	0	0	952.9	NA	0.0000		9999	2230	0	0	0
2019/04/14 00:14:00	BASE	2.34	151	3.04	161	1.5	97	1.0	0	0	952.9	NA	0.0000		9999	2230	0	0	0
2019/04/14 00:15:00	BASE	1.77	144	3.04	161	1.5	96	0.9	0	0	952.9	NA	0.0000		9999	3080	0	0	0
2019/04/14 00:16:00	BASE	1.28	135	3.04	161	1.5	96	0.9	0	0	952.9	NA	0.0000		9999	3350	0	0	0
2019/04/14 00:17:00	BASE	0.50	125	3.04	161	1.5	96	0.9	0	0	952.9	NA	0.0000		9999	2920	0	0	0
2019/04/14 00:18:00	BASE	0.00	124	3.04	161	1.5	96	0.9	0	0	952.9	NA	0.0000		9999	3450	0	0	0
2019/04/14 00:19:00	BASE	0.00	128	3.04	161	1.5	96	0.9	0	0	952.9	NA	0.0000		9999	2760	0	0	0
2019/04/14 00:20:00	BASE	0.00	144	3.04	161	1.6	95	0.9	0	0	952.9	NA	0.0000		9999	3380	0	0	0
2019/04/14 00:21:00	BASE	0.17	164	3.04	161	1.6	95	0.8	0	0	952.9	NA	0.0000		9999	3280	0	0	0
2019/04/14 00:22:00	BASE	1.02	159	2.98	164	1.5	95	0.8	0	0	952.9	NA	0.0000		9999	3480	0	0	0
2019/04/14 00:23:00	BASE	1.88	152	2.98	164	1.5	94	0.7	0	0	953.0	NA	0.0000		9999	3410	0	0	0
2019/04/14 00:24:00	BASE	2.71	165	3.76	187	1.5	94	0.6	0	0	953.0	NA	0.0000		9999	3280	0	0	0
2019/04/14 00:25:01	BASE	3.50	182	3.91	187	1.4	94	0.6	0	0	953.0	NA	0.0000		9999	3410	0	0	0
2019/04/14 00:26:01	BASE	3.75	179	4.78	170	1.4	94	0.5	0	0	952.9	NA	0.0000		9999	3350	0	0	0
2019/04/14 00:27:01	BASE	5.62	166	8.54	168	1.4	94	0.5	0	0	952.9	NA	0.0000		9999	3350	0	0	0
2019/04/14 00:28:01	BASE	7.18	161	8.54	168	1.4	94	0.5	0	0	952.9	NA	0.0000		9999	3350	0	0	0
2019/04/14 00:29:01	BASE	6.55	157	8.54	168	1.4	93	0.5	0	0	953.0	NA	0.0000		9999	3310	4490	0	0
2019/04/14 00:30:01	BASE	6.40	152	8.54	168	1.4	93	0.4	0	0	953.0	NA	0.0000		9999	3350	4490	0	0
2019/04/14 00:31:01	BASE	6.54	153	8.54	168	1.4	92	0.3	0	0	953.0	NA	0.0000		9999	3280	0	0	0
2019/04/14 00:32:01	BASE	5.62	154	8.54	168	1.4	92	0.3	0	0	953.0	NA	0.0000		9999	3280	0	0	0
2019/04/14 00:33:01	BASE	4.31	147	8.54	168	1.4	92	0.2	0	0	953.0	NA	0.0000		9999	3280	0	0	0
2019/04/14 00:34:01	BASE	3.80	140	8.54	168	1.4	91	0.1	0	0	953.0	NA	0.0000		9999	3280	0	0	0
2019/04/14 00:35:01	BASE	3.77	140	8.54	168	1.4	91	0.1	0	0	953.0	NA	0.0000		9999	3280	0	0	0
2019/04/14 00:36:01	BASE	3.52	139	8.54	168	1.4	91	0.1	0	0	953.0	NA	0.0000		9999	3280	0	0	0
2019/04/14 00:37:01	BASE	3.48	140	8.18	161	1.4	91	0.1	0	0	953.0	NA	0.0000		9999	3250	0	0	0
2019/04/14 00:38:01	BASE	3.83	139	7.67	157	1.4	91	0.1	0	0	953.1	NA	0.0000		9999	3250	0	0	0
2019/04/14 00:39:01	BASE	5.22	140	9.62	151	1.4	92	0.1	0	0	953.1	NA	0.0000		9999	3180	0	0	0
2019/04/14 00:40:01	BASE	7.43	140	9.67	116	1.3	92	0.2	0	0	953.1	NA	0.0000		9999	3180	0	0	0
2019/04/14 00:41:01	BASE	8.97	136	11.06	135	1.3	92	0.2	0	0	953.0	NA	0.0000		9999	3180	0	0	0
2019/04/14 00:42:01	BASE	9.31	135	11.06	135	1.3	92	0.2	0	0	953.0	NA	0.0000		9999	3150	4100	0	0
2019/04/14 00:43:01	BASE	8.21	135	11.06	135	1.3	92	0.2	0	0	953.0	NA	0.0000		9999	3180	4000	0	0
2019/04/14 00:44:01	BASE	6.36	132	11.06	135	1.3	92	0.2	0	0	953.1	NA	0.0000		9999	3180	4000	0	0
2019/04/14 00:45:01	BASE	4.30	123	11.06	135	1.3	92	0.2	0	0	953.1	NA	0.0000		9999	3180	4100	0	0
2019/04/14 00:46:01	BASE	2.88	104	11.06	135	1.4	91	0.1	0	0	953.1	NA	0.0000		9999	3220	0	0	0
2019/04/14 00:47:01	BASE	2.52	92	11.06	135	1.4	91	0.2	0	0	953.2	NA	0.0000		9999	3180	0	0	0
2019/04/14 00:48:01	BASE	3.42	110	11.06	135	1.5	91	0.2	0	0	953.3	NA	0.0000		9999	3220	0	0	0
2019/04/14 00:49:01	BASE	5.26	131	11.06	135	1.5	91	0.2	0	0	953.2	NA	0.0000		9999	3280	0	0	0
2019/04/14 00:50:01	BASE	5.88	141	11.06	135	1.5	91	0.1	0	0	953.1	NA	0.0000		9999	3350	0	0	0
2019/04/14 00:51:01	BASE	5.67	144	9.62	130	1.5	90	0.1	0	0	953.1	NA	0.0000		9999	3350	3970	0	0
2019/04/14 00:52:01	BASE	5.68	142	7.92	141	1.5	90	0.1	0	0	953.1	NA	0.0000		9999	3310	0	0	0
2019/04/14 00:53:01	BASE	5.35	140	6.79	132	1.4	90	0.0	0	0	953.1	NA	0.0000		9999	3310	0	0	0
2019/04/14 00:54:01	BASE	5.05	132	6.64	138	1.3	91	-0.0	0	0	953.2	NA	0.0000		9999	3380	0	0	0
2019/04/14 00:55:01	BASE	4.33	113	6.64	138	1.3	91	0.0	0	0	953.2	NA	0.0000		9999	3380	0	0	0
2019/04/14 00:56:01	BASE	3.15	97	6.64	138	1.3	92	0.1	0	0	953.3	NA	0.0000		9999	3380	0	0	0
2019/04/14 00:57:01	BASE	2.43	89	6.64	138	1.3	92	0.2	0	0	953.3	NA	0.0000		9999	3380	0	0	0
2019/04/14 00:58:01	BASE	2.07	80	6.64	138	1.3	93	0.3	0	0	953.4	NA	0.0000		9999	3350	0	0	0
2019/04/14 00:59:01	BASE	2.07	75	6.38	147	1.3	94	0.5	0	0	953.4	NA	0.0000		9999	3350	0	0	0
2019/04/14 01:00:01	BASE	2.17	73	6.17	140	1.3	95	0.6	0	0	953.3	NA	0.0000		9999	3380	0	0	0
2019/04/14 01:01:01	BASE	2.28	73	6.12	139	1.3	96	0.8	0	0	953.3	NA	0.0000		9999	3280	0	0	0
2019/04/14 01:02:01	BASE	2.36	75	5.35	122	1.3	97	0.8	0	0	953.3	NA	0.0000		9999	3280	0	0	0
2019/04/14 01:03:01	BASE	2.36	79	5.35	122	1.3	98	0.9	0	0	953.3	NA	0.0000		9999	3280	0	0	0
2019/04/14 01:04:01	BASE	2.28	83	4.37	120	1.2	98	1.0	0	0	953.3	NA	0.0000		9999	3310	0	0	0
2019/04/14 01:05:01	BASE	2.41	87	3.45	100	1.2	99	1.1	0	0	953.3	NA	0.0000		9999	3220	0	0	0
2019/04/14 01:06:01	BASE	2.57	92	2.78	94	1.2	99	1.1	0	0	953.3	NA	0.0000		9999	3120	0	0	0
2019/04/14 01:07:01	BASE	2.51	98	2.78	94	1.2	100	1.1	0	0	953.4	NA	0.0000		9999	3020	0	0	0
2019/04/14 01:08:01	BASE	2.28	102	2.78	94	1.2	100	1.2	0	0	953.4	NA	0.0000		9999	2850	0	0	0
2019/04/14 01:09:01	BASE	2.34	99	2.83	100	1.2	100	1.2	0	0	953.4	NA	0.0000		9999	2690	0	0	0
2019/04/14 01:10:01	BASE	2.34	96	2.83	100	1.2	100	1.2	0	0	953.5	NA	0.0000		9999	2490	0	0	0
2019/04/14 01:11:01	BASE	2.19	102	2.83	100	1.3	100	1.3	0	0	953.5	NA	0.0000		9999	2460	0	0	0
2019/04/14 01:12:01	BASE	2.06	104	2.83	100	1.3	100	1.3	0	0	953.5	NA	0.0000		9999	2460	0	0	0
2019/04/14 01:13:01	BASE	1.72	109	2.83	100	1.3	100	1.3	0	0	953.5	NA	0.0000		9999	3220	0	0	0
2019/04/14 01:14:01	BASE	1.70	111	2.83	100	1.3	100	1.3	0	0	953.5	NA	0.0000		9999	3280	0	0	0
2019/04/14 01:15:01	BASE	1.89	101	2.83	100	1.3	100	1.3	0	0	953.5	NA	0.0000		9999	3310	0	0	0
2019/04/14 01:16:01	BASE	1.90	95	2.83	100	1.3	100	1.3	0	0	953.5	NA	0.0000		9999	2890	0	0	0
2019/04/14 01:17:01	BASE	1.87	86	2.83	100	1.3	100	1.3	0	0	953.5	NA	0.0000		9999	2890	0	0	0
2019/04/14 01:18:01	BASE	1.35	61	2.83	100	1.3	100	1.3	0	0	953.5	NA	0.0000		9999	3020	0	0	0
2019/04/14 01:19:01	BASE	1.05	33	2.52	107	1.3	100	1.3	0	0	953.5	NA	0.0000		9999	2850	0	0	0
2019/04/14 01:20:01	BASE	1.49	24	2.52	107	1.4	100	1.4	0	0	953.5	NA	0.0000		9999	2590	0	0	0
2019/04/14 01:21:01	BASE	1.71	15	2.42	106	1.4	100	1.4	0	0	953.5	NA	0.0000		9999	2460	0	0	0
2019/04/14 01:22:01	BASE	1.44	2	2.21	87	1.4	100	1.4	0	0	953.5	NA	0.0000		9999	2430	0	0	0
2019/04/14 01:23:01	BASE	0.80	5	2.21	87	1.4	100	1.4	0	0	953.5	NA	0.0000		9999	2720	0	0	0
2019/04/14 01:24:01	BASE	0.23	12	2.21	87	1.4	100	1.4	0	0	953.6	NA	0.0000		9999	2890	0	0	0
2019/04/14 01:25:01	BASE	0.00	7	2.21	87	1.5	100	1.4	0	0	953.6	NA	0.0000		9999	3050	0	0	0
2019/04/14 01:26:01	BASE	0.00	5	2.21	87	1.5	100	1.5	0	0	953.6	NA	0.0000		9999	3380	0	0	0
2019/04/14 01:27:01	BASE	0.00	39	1.95	18	1.5	99	1.4	0	0	953.6	NA	0.0000		9999	3350	0	0	0
2019/04/14 01:28:01	BASE	0.00	108	1.95	18	1.6	99	1.4	0	0	953.6	NA	0.0000		9999	4270	0	0	0
2019/04/14 01:29:01	BASE	0.00	119	1.95	18	1.6	98	1.4	0	0	953.6	NA	0.0000		9999	3380	0	0	0
2019/04/14 01:30:01	BASE	0.00	113	1.90	19	1.6	98	1.3	0	0	953.6	NA	0.0000		9999	3740	0	0	0
2019/04/14 01:31:01	BASE	0.00	109	1.44	346	1.6	98	1.3	0	0	953.6	NA	0.0000		9999	3350	0	0	0
2019/04/14 01:32:01	BASE	0.00	104	1.13	15	1.6	98	1.3	0	0	953.6	NA	0.0000		9999	3250	3740	0	0
2019/04/14 01:33:01	BASE	0.00	103	M	M	1.6	98	1.3	0	0	953.6	NA	0.0000		9999	3250	3710	0	0
2019/04/14 01:34:01	BASE	0.00	103	M	M	1.6	98	1.3	0	0	953.6	NA	0.0000		9999	3220	0	0	0
2019/04/14 01:35:01	BASE	0.00	109	M	M	1.6	98	1.3	0	0	953.6	NA	0.0000		9999	3710	0	0	0
2019/04/14 01:36:01	BASE	0.00	112	M	M	1.6	98	1.3	0	0	953.6	NA	0.0000		9999	3710	0	0	0
2019/04/14 01:37:01	BASE	0.52	118	1.29	129	1.6	98	1.3	0	0	953.6	NA	0.0000		9999	3710	0	0	0
2019/04/14 01:38:01	BASE	1.13	130	1.29	137	1.5	98	1.3	0	0	953.6	NA	0.0000		9999	3640	0	0	0
2019/04/14 01:39:01	BASE	1.20	137	1.29	144	1.5	98	1.3	0	0	953.6	NA	0.0000		9999	3640	0	0	0
2019/04/14 01:40:01	BASE	1.23	142	1.39	142	1.5	99	1.3	0	0	953.6	NA	0.0000		9999	3120	3670	0	0
2019/04/14 01:41:01	BASE	0.98	138	1.39	143	1.4	99	1.3	0	0	953.7	NA	0.0000		9999	3640	0	0	0
2019/04/14 01:42:01	BASE	0.35	124	1.39	143	1.4	99	1.3	0	0	953.7	NA	0.0000		9999	3610	0	0	0
2019/04/14 01:43:01	BASE	0.04	110	1.39	143	1.4	100	1.3	0	0	953.7	NA	0.0000		9999	3080	0	0	0
2019/04/14 01:44:01	BASE	0.04	104	1.39	143	1.4	100	1.4	0	0	953.8	NA	0.0000		9999	3610	0	0	0
2019/04/14 01:45:01	BASE	0.00	106	1.39	143	1.4	100	1.4	0	0	953.8	NA	0.0000		9999	3840	0	0	0
2019/04/14 01:46:01	BASE	0.50	134	1.85	175	1.4	100	1.4	0	0	953.8	NA	0.0000		9999	3740	0	0	0
2019/04/14 01:47:01	BASE	1.50	167	2.42	156	1.5	100	1.5	0	0	953.8	NA	0.0000		9999	3250	3740	0	0
2019/04/14 01:48:01	BASE	2.73	162	4.27	150	1.4	100	1.4	0	0	953.8	NA	0.0000		9999	3770	0	0	0
2019/04/14 01:49:01	BASE	3.58	153	4.27	150	1.4	100	1.3	0	0	953.8	NA	0.0000		9999	3770	0	0	0
2019/04/14 01:50:01	BASE	3.86	161	4.58	169	1.3	99	1.2	0	0	953.9	NA	0.0000		9999	3740	0	0	0
2019/04/14 01:51:01	BASE	4.06	161	4.63	155	1.2	99	1.1	0	0	953.9	NA	0.0000		9999	3670	0	0	0
2019/04/14 01:52:01	BASE	3.99	159	4.63	155	1.2	99	1.0	0	0	953.9	NA	0.0000		9999	3670	0	0	0
2019/04/14 01:53:01	BASE	3.50	162	4.63	155	1.1	98	0.9	0	0	953.9	NA	0.0000		9999	3670	0	0	0
2019/04/14 01:54:01	BASE	2.92	169	4.63	155	1.1	98	0.9	0	0	953.9	NA	0.0000		9999	3640	0	0	0
2019/04/14 01:55:01	BASE	2.48	178	4.63	155	1.1	98	0.8	0	0	953.9	NA	0.0000		9999	3580	0	0	0
2019/04/14 01:56:01	BASE	2.37	183	4.63	155	1.1	98	0.8	0	0	953.9	NA	0.0000		9999	3580	0	0	0
2019/04/14 01:57:01	BASE	2.69	185	4.63	155	1.1	98	0.8	0	0	953.9	NA	0.0000		9999	3610	0	0	0
2019/04/14 01:58:01	BASE	2.99	187	4.63	155	1.1	97	0.8	0	0	953.9	NA	0.0000		9999	3580	0	0	0
2019/04/14 01:59:01	BASE	3.43	189	4.63	155	1.2	97	0.7	0	0	954.0	NA	0.0000		9999	3580	0	0	0
2019/04/14 02:00:01	BASE	3.86	186	4.84	171	1.2	97	0.7	0	0	954.0	NA	0.0000		9999	3610	0	0	0
2019/04/14 02:01:01	BASE	4.17	178	5.56	180	1.2	96	0.7	0	0	954.0	NA	0.0000		9999	3610	0	0	0
2019/04/14 02:02:01	BASE	4.79	174	5.81	163	1.2	96	0.7	0	0	954.0	NA	0.0000		9999	3640	0	0	0
2019/04/14 02:03:01	BASE	5.32	170	6.28	149	1.3	96	0.7	0	0	954.0	NA	0.0000		9999	3610	0	0	0
2019/04/14 02:04:01	BASE	5.00	166	6.28	149	1.3	95	0.7	0	0	954.0	NA	0.0000		9999	3640	0	0	0
2019/04/14 02:05:01	BASE	4.66	161	6.28	149	1.4	95	0.6	0	0	954.0	NA	0.0000		9999	3610	0	0	0
2019/04/14 02:06:00	BASE	4.94	157	6.28	149	1.4	94	0.6	0	0	954.1	NA	0.0000		9999	3610	0	0	0
2019/04/14 02:07:00	BASE	4.61	156	6.28	149	1.4	94	0.5	0	0	954.1	NA	0.0000		9999	3610	0	0	0
2019/04/14 02:08:01	BASE	3.99	158	6.28	149	1.4	93	0.4	0	0	954.1	NA	0.0000		9999	3580	0	0	0
2019/04/14 02:09:01	BASE	3.70	164	6.28	149	1.4	93	0.4	0	0	954.1	NA	0.0000		9999	3580	0	0	0
2019/04/14 02:10:01	BASE	3.58	163	6.28	149	1.4	93	0.4	0	0	954.1	NA	0.0000		9999	3540	0	0	0
2019/04/14 02:11:00	BASE	3.13	156	6.28	149	1.3	93	0.4	0	0	954.2	NA	0.0000		9999	3540	4170	0	0
2019/04/14 02:12:01	BASE	2.60	147	6.28	149	1.3	94	0.4	0	0	954.2	NA	0.0000		9999	3580	4100	0	0
2019/04/14 02:13:00	BASE	2.41	129	6.02	150	1.3	94	0.5	0	0	954.2	NA	0.0000		9999	3970	0	0	0
2019/04/14 02:14:00	BASE	2.85	89	6.02	150	1.3	95	0.5	0	0	954.2	NA	0.0000		9999	3670	0	0	0
2019/04/14 02:15:01	BASE	3.61	52	5.86	150	1.3	95	0.5	0	0	954.2	NA	0.0000		9999	3580	0	0	0
2019/04/14 02:16:01	BASE	3.41	45	4.73	155	1.3	95	0.6	0	0	954.2	NA	0.0000		9999	3640	0	0	0
2019/04/14 02:17:00	BASE	2.98	54	4.48	154	1.3	95	0.6	0	0	954.2	NA	0.0000		9999	3640	0	0	0
2019/04/14 02:18:00	BASE	2.92	54	4.12	40	1.2	96	0.6	0	0	954.2	NA	0.0000		9999	3580	0	0	0
2019/04/14 02:19:00	BASE	3.10	47	4.12	40	1.2	96	0.6	0	0	954.2	NA	0.0000		9999	3540	0	0	0
2019/04/14 02:20:01	BASE	3.25	40	4.12	40	1.2	96	0.7	0	0	954.2	NA	0.0000		9999	3180	0	0	0
2019/04/14 02:21:00	BASE	3.31	32	4.12	40	1.2	96	0.7	0	0	954.2	NA	0.0000		9999	3180	0	0	0
2019/04/14 02:22:00	BASE	3.59	24	4.12	19	1.2	97	0.7	0	0	954.2	NA	0.0000		9999	3120	0	0	0
2019/04/14 02:23:00	BASE	3.76	20	4.12	19	1.1	97	0.7	0	0	954.2	NA	0.0000		9999	3310	0	0	0
2019/04/14 02:24:00	BASE	3.56	21	4.12	19	1.1	97	0.7	0	0	954.2	NA	0.0000		9999	3310	0	0	0
2019/04/14 02:25:00	BASE	3.11	23	4.12	19	1.1	98	0.8	0	0	954.3	NA	0.0000		9999	3610	0	0	0
2019/04/14 02:26:00	BASE	2.78	24	4.12	19	1.1	98	0.8	0	0	954.3	NA	0.0000		9999	3610	0	0	0
2019/04/14 02:27:00	BASE	2.60	23	4.12	19	1.1	99	0.9	0	0	954.3	NA	0.0000		9999	3670	0	0	0
2019/04/14 02:28:00	BASE	2.59	23	4.12	19	1.1	99	1.0	0	0	954.4	NA	0.0000		9999	3580	0	0	0
2019/04/14 02:29:00	BASE	2.79	24	4.12	19	1.1	100	1.1	0	0	954.4	NA	0.0000		9999	3510	0	0	0
2019/04/14 02:30:01	BASE	2.87	19	4.12	19	1.1	100	1.1	0	0	954.4	NA	0.0000		9999	3480	0	0	0
2019/04/14 02:31:00	BASE	2.65	9	4.12	19	1.2	100	1.2	0	0	954.3	NA	0.0000		9999	3510	0	0	0
2019/04/14 02:32:00	BASE	2.25	2	3.96	18	1.2	100	1.2	0	0	954.3	NA	0.0000		9999	3050	0	0	0
2019/04/14 02:33:00	BASE	1.95	359	3.55	20	1.3	100	1.3	0	0	954.3	NA	0.0000		9999	3610	0	0	0
2019/04/14 02:34:00	BASE	1.93	353	3.14	25	1.3	100	1.3	0	0	954.4	NA	0.0000		9999	3540	0	0	0
2019/04/14 02:35:00	BASE	1.85	358	3.09	22	1.4	100	1.4	0	0	954.4	NA	0.0000		9999	3580	0	0	0
2019/04/14 02:36:00	BASE	1.52	11	3.09	22	1.4	100	1.4	0	0	954.4	NA	0.0000		9999	3540	0	0	0
2019/04/14 02:37:00	BASE	1.36	4	3.09	22	1.4	100	1.4	0	0	954.4	NA	0.0000		9999	3640	0	0	0
2019/04/14 02:38:08	BASE	1.44	352	3.09	22	1.4	100	1.4	0	0	M	NA	0.0000		9999	3640	0	0	0
2019/04/14 02:39:01	BASE	1.31	347	2.98	19	1.3	100	1.3	0	0	954.4	NA	0.0000		9999	3280	0	0	0
2019/04/14 02:40:01	BASE	1.18	347	2.62	7	1.3	100	1.3	0	0	954.4	NA	0.0000		9999	3670	0	0	0
2019/04/14 02:41:00	BASE	1.18	349	2.42	360	1.3	100	1.3	0	0	954.5	NA	0.0000		9999	3480	0	0	0
2019/04/14 02:42:01	BASE	1.16	3	2.11	348	1.3	99	1.2	0	0	954.5	NA	0.0000		9999	3310	0	0	0
2019/04/14 02:43:00	BASE	0.86	12	2.11	348	1.3	99	1.2	0	0	954.5	NA	0.0000		9999	3480	0	0	0
2019/04/14 02:44:01	BASE	0.93	6	1.95	350	1.3	99	1.2	0	0	954.5	NA	0.0000		9999	3540	0	0	0
2019/04/14 02:45:00	BASE	0.63	1	1.65	360	1.3	99	1.2	0	0	954.5	NA	0.0000		9999	3540	0	0	0
2019/04/14 02:46:00	BASE	0.44	356	1.65	360	1.3	100	1.2	0	0	954.5	NA	0.0000		9999	3510	0	0	0
2019/04/14 02:47:00	BASE	0.97	349	1.65	360	1.3	100	1.3	0	0	954.5	NA	0.0000		9999	3450	0	0	0
2019/04/14 02:48:00	BASE	0.95	344	1.65	360	1.3	100	1.3	0	0	954.6	NA	0.0000		9999	3580	0	0	0
2019/04/14 02:49:00	BASE	0.98	339	1.65	360	1.3	100	1.3	0	0	954.6	NA	0.0000		9999	3580	0	0	0
2019/04/14 02:50:00	BASE	1.35	341	1.75	343	1.2	100	1.2	0	0	954.6	NA	0.0000		9999	3580	0	0	0
2019/04/14 02:51:00	BASE	1.68	352	1.95	355	1.2	100	1.2	0	0	954.6	NA	0.0000		9999	3540	0	0	0
2019/04/14 02:52:00	BASE	1.77	356	1.95	355	1.2	100	1.2	0	0	954.6	NA	0.0000		9999	3580	0	0	0
2019/04/14 02:53:00	BASE	1.89	354	2.52	353	1.2	100	1.2	0	0	954.6	NA	0.0000		9999	3710	0	0	0
2019/04/14 02:54:01	BASE	2.19	348	2.62	352	1.2	100	1.2	0	0	954.6	NA	0.0000		9999	3670	0	0	0
2019/04/14 02:55:01	BASE	2.37	336	2.62	352	1.3	99	1.2	0	0	954.6	NA	0.0000		9999	3710	0	0	0
2019/04/14 02:56:01	BASE	2.48	329	3.04	320	1.3	99	1.2	0	0	954.6	NA	0.0000		9999	3710	0	0	0
2019/04/14 02:57:01	BASE	2.79	326	3.40	324	1.4	98	1.1	0	0	954.7	NA	0.0000		9999	3610	0	0	0
2019/04/14 02:58:01	BASE	3.01	324	3.40	324	1.4	98	1.1	0	0	954.7	NA	0.0000		9999	3640	0	0	0
2019/04/14 02:59:01	BASE	3.08	317	3.65	310	1.3	98	1.0	0	0	954.7	NA	0.0000		9999	3640	0	0	0
2019/04/14 03:00:00	BASE	3.18	310	3.65	310	1.3	97	0.9	0	0	954.7	NA	0.0000		9999	3610	0	0	0
2019/04/14 03:01:00	BASE	3.30	307	3.65	310	1.3	97	0.9	0	0	954.7	NA	0.0000		9999	3610	0	0	0
2019/04/14 03:02:00	BASE	3.44	304	3.91	305	1.3	97	0.9	0	0	954.7	NA	0.0000		9999	3740	0	0	0
2019/04/14 03:03:00	BASE	3.60	303	3.91	309	1.2	98	0.9	0	0	954.8	NA	0.0000		9999	3710	0	0	0
2019/04/14 03:04:00	BASE	3.76	306	4.01	310	1.2	98	1.0	0	0	954.8	NA	0.0000		9999	3740	0	0	0
2019/04/14 03:05:00	BASE	3.84	308	4.01	310	1.2	99	1.0	0	0	954.8	NA	0.0000		9999	3640	0	0	0
2019/04/14 03:06:00	BASE	3.93	315	4.37	326	1.2	99	1.1	0	0	954.8	NA	0.0000		9999	3670	0	0	0
2019/04/14 03:07:00	BASE	4.23	324	4.58	329	1.2	100	1.1	0	0	954.8	NA	0.0000		9999	3640	0	0	0
2019/04/14 03:08:00	BASE	4.79	330	5.92	339	1.1	100	1.1	0	0	954.8	NA	0.0000		9999	3740	0	0	0
2019/04/14 03:09:00	BASE	5.21	334	5.92	339	1.1	100	1.1	0	0	954.8	NA	0.0000		9999	3770	0	0	0
2019/04/14 03:10:00	BASE	5.14	338	5.92	339	1.1	100	1.1	0	0	954.8	NA	0.0000		9999	3810	0	0	0
2019/04/14 03:11:00	BASE	4.91	341	5.92	339	1.0	100	1.0	0	0	954.8	NA	0.0000		9999	3770	0	0	0
2019/04/14 03:12:00	BASE	4.54	344	5.92	339	1.0	100	1.0	0	0	954.8	NA	0.0000		9999	3640	0	0	0
2019/04/14 03:13:00	BASE	4.06	345	5.92	339	1.0	100	1.0	0	0	954.9	NA	0.0000		9999	3670	0	0	0
2019/04/14 03:14:00	BASE	3.83	341	5.92	339	1.1	100	1.1	0	0	954.9	NA	0.0000		9999	3740	0	0	0
2019/04/14 03:15:00	BASE	3.82	339	5.92	339	1.1	100	1.1	0	0	955.0	NA	0.0000		9999	3710	0	0	0
2019/04/14 03:16:00	BASE	3.96	337	5.92	339	1.1	100	1.1	0	0	955.0	NA	0.0000		9999	3710	0	0	0
2019/04/14 03:17:00	BASE	4.01	332	5.92	339	1.2	100	1.2	0	0	955.0	NA	0.0000		9999	3250	0	0	0
2019/04/14 03:18:00	BASE	3.95	325	5.40	337	1.1	100	1.1	0	0	955.0	NA	0.0000		9999	3180	0	0	0
2019/04/14 03:19:00	BASE	4.23	320	5.40	337	1.1	100	1.1	0	0	955.0	NA	0.0000		9999	3580	0	0	0
2019/04/14 03:20:00	BASE	4.57	317	5.04	349	1.1	100	1.1	0	0	955.0	NA	0.0000		9999	3580	0	0	0
2019/04/14 03:21:00	BASE	4.66	316	4.99	315	1.0	100	1.0	0	0	955.0	NA	0.0000		9999	3510	0	0	0
2019/04/14 03:22:00	BASE	4.47	317	4.99	315	1.0	100	1.0	0	0	955.0	NA	0.0000		9999	3480	0	0	0
2019/04/14 03:23:00	BASE	4.25	319	4.99	315	1.0	100	1.0	0	0	955.0	NA	0.0000		9999	3510	0	0	0
2019/04/14 03:24:00	BASE	4.20	323	4.99	315	1.0	100	1.0	0	0	955.0	NA	0.0000		9999	3540	0	0	0
2019/04/14 03:25:00	BASE	4.19	326	4.99	315	0.9	100	0.9	0	0	955.0	NA	0.0000		9999	3580	0	0	0
2019/04/14 03:26:00	BASE	4.15	328	4.99	315	0.9	100	0.9	0	0	955.0	NA	0.0000		9999	3540	0	0	0
2019/04/14 03:27:00	BASE	4.05	331	4.99	315	0.9	100	0.9	0	0	955.0	NA	0.0000		9999	3640	0	0	0
2019/04/14 03:28:00	BASE	3.98	333	4.99	315	0.9	100	0.9	0	0	955.0	NA	0.0000		9999	3610	0	0	0
2019/04/14 03:29:00	BASE	3.89	332	4.99	315	0.9	100	0.9	0	0	955.0	NA	0.0000		9999	3480	0	0	0
2019/04/14 03:30:00	BASE	3.86	330	4.99	315	0.9	100	0.9	0	0	955.0	NA	0.0000		9999	3380	0	0	0
2019/04/14 03:31:00	BASE	3.85	328	4.53	321	0.9	100	0.9	0	0	955.0	NA	0.0000		9999	3410	0	0	0
2019/04/14 03:32:00	BASE	3.60	324	4.53	321	0.9	100	0.9	0	0	955.0	NA	0.0000		9999	3410	0	0	0
2019/04/14 03:33:00	BASE	2.97	313	4.37	331	0.9	100	0.9	0	0	955.0	NA	0.0000		9999	3220	0	0	0
2019/04/14 03:34:00	BASE	2.56	312	4.37	331	0.8	100	0.8	0	0	955.0	NA	0.0000		9999	3480	0	0	0
2019/04/14 03:35:00	BASE	2.54	323	4.37	331	0.8	100	0.8	0	0	955.0	NA	0.0000		9999	3540	0	0	0
2019/04/14 03:36:00	BASE	2.49	336	4.32	333	0.8	100	0.8	0	0	955.0	NA	0.0000		9999	3610	0	0	0
2019/04/14 03:37:00	BASE	2.45	347	4.22	335	0.7	100	0.7	0	0	955.0	NA	0.0000		9999	3640	4690	0	0
2019/04/14 03:38:00	BASE	2.42	354	4.12	329	0.7	100	0.7	0	0	955.0	NA	0.0000		9999	3710	10830	0	0
2019/04/14 03:39:00	BASE	2.14	355	4.06	326	0.8	100	0.8	0	0	955.1	NA	0.0000		9999	3740	10860	0	0
2019/04/14 03:40:00	BASE	1.82	354	4.01	330	0.8	100	0.8	0	0	955.2	NA	0.0000		9999	3840	10790	0	0
2019/04/14 03:41:00	BASE	1.74	357	3.86	323	0.8	100	0.8	0	0	955.2	NA	0.0000		9999	3900	0	0	0
2019/04/14 03:42:00	BASE	1.71	1	2.83	329	0.8	100	0.8	0	0	955.2	NA	0.0000		9999	3870	0	0	0
2019/04/14 03:43:00	BASE	1.89	5	2.83	329	0.8	100	0.8	0	0	955.2	NA	0.0000		9999	3840	0	0	0
2019/04/14 03:44:00	BASE	2.26	7	2.83	329	0.8	100	0.8	0	0	955.3	NA	0.0000		9999	3900	0	0	0
2019/04/14 03:45:00	BASE	2.46	10	2.78	15	0.7	100	0.7	0	0	955.3	NA	0.0000		9999	3940	0	0	0
2019/04/14 03:46:00	BASE	2.69	12	2.98	10	0.7	100	0.7	0	0	955.3	NA	0.0000		9999	3940	0	0	0
2019/04/14 03:47:00	BASE	2.87	10	3.09	4	0.7	100	0.7	0	0	955.3	NA	0.0000		9999	3900	0	0	0
2019/04/14 03:48:00	BASE	2.83	8	3.09	4	0.7	100	0.7	0	0	955.4	NA	0.0000		9999	3510	0	0	0
2019/04/14 03:49:00	BASE	2.92	6	3.24	5	0.7	100	0.7	0	0	955.4	NA	0.0000		9999	3510	0	0	0
2019/04/14 03:50:00	BASE	3.14	5	3.65	49	0.7	100	0.7	0	0	955.4	NA	0.0000		9999	3540	0	0	0
2019/04/14 03:51:00	BASE	3.59	2	4.17	354	0.7	100	0.7	0	0	955.4	NA	0.0000		9999	3480	0	0	0
2019/04/14 03:52:00	BASE	3.88	355	4.17	354	0.7	100	0.7	0	0	955.4	NA	0.0000		9999	3450	3940	0	0
2019/04/14 03:53:00	BASE	3.79	350	4.22	350	0.8	100	0.8	0	0	955.4	NA	0.0000		9999	1210	3410	4070	0
2019/04/14 03:54:00	BASE	3.64	350	4.22	350	0.8	100	0.8	0	0	955.4	NA	0.0000		9999	1210	3280	4200	0
2019/04/14 03:55:00	BASE	3.83	347	4.37	340	0.8	100	0.8	0	0	955.4	NA	0.0000		9999	1180	3280	0	0
2019/04/14 03:56:00	BASE	4.17	348	4.37	350	0.9	100	0.9	0	0	955.4	NA	0.0000		9999	1180	3220	0	0
2019/04/14 03:57:00	BASE	4.22	351	4.63	350	0.9	100	0.9	0	0	955.4	NA	0.0000		9999	1210	3150	0	0
2019/04/14 03:58:00	BASE	4.21	354	4.63	350	0.9	100	0.9	0	0	955.4	NA	0.0000		9999	1180	3180	0	0
2019/04/14 03:59:00	BASE	4.14	358	4.63	350	1.0	100	1.0	0	0	955.4	NA	0.0000		9999	1210	3150	0	0
2019/04/14 04:00:00	BASE	4.01	357	4.63	350	1.0	100	1.0	0	0	955.4	NA	0.0000		9999	1210	3050	0	0
2019/04/14 04:01:00	BASE	4.00	356	4.63	350	1.0	100	1.0	0	0	955.4	NA	0.0000		9999	1210	2920	0	0
2019/04/14 04:02:00	BASE	4.11	357	4.68	355	1.0	100	1.0	0	0	955.4	NA	0.0000		9999	2850	0	0	0
2019/04/14 04:03:00	BASE	4.24	357	4.68	355	1.0	100	1.0	0	0	955.4	NA	0.0000		9999	2790	0	0	0
2019/04/14 04:04:00	BASE	4.31	355	4.68	355	1.0	100	1.0	0	0	955.4	NA	0.0000		9999	2760	0	0	0
2019/04/14 04:05:00	BASE	4.12	350	4.68	355	1.1	100	1.1	0	0	955.5	NA	0.0000		9999	2100	0	0	0
2019/04/14 04:06:00	BASE	4.01	349	4.68	355	1.1	100	1.1	0	0	955.5	NA	0.0000		9999	1310	2720	0	0
2019/04/14 04:07:00	BASE	4.19	354	4.68	355	1.1	100	1.1	0	0	955.5	NA	0.0000		9999	1280	2330	2820	0
2019/04/14 04:08:00	BASE	4.41	356	4.94	354	1.1	100	1.1	0	0	955.5	NA	0.0000		9999	1350	2230	0	0
2019/04/14 04:09:00	BASE	4.30	359	4.94	354	1.1	100	1.1	0	0	955.5	NA	0.0000		9999	1350	2330	0	0
2019/04/14 04:10:00	BASE	4.24	4	4.94	354	1.1	100	1.1	0	0	955.5	NA	0.0000		9999	1310	2360	0	0
2019/04/14 04:11:00	BASE	4.39	359	4.94	354	1.1	100	1.1	0	0	955.5	NA	0.0000		9999	2400	0	0	0
2019/04/14 04:12:00	BASE	4.25	357	4.94	354	1.1	100	1.1	0	0	955.5	NA	0.0000		9999	2430	0	0	0
2019/04/14 04:13:00	BASE	4.04	4	4.94	354	1.1	100	1.1	0	0	955.5	NA	0.0000		9999	2460	0	0	0
2019/04/14 04:14:00	BASE	3.80	11	4.94	354	1.1	100	1.1	0	0	955.5	NA	0.0000		9999	2430	0	0	0
2019/04/14 04:15:00	BASE	3.44	14	4.94	354	1.1	100	1.1	0	0	955.5	NA	0.0000		9999	2530	0	0	0
2019/04/14 04:16:00	BASE	3.11	13	4.94	354	1.1	100	1.1	0	0	955.6	NA	0.0000		9999	1180	0	0	0
2019/04/14 04:17:00	BASE	2.74	17	4.94	354	1.1	100	1.1	0	0	955.6	NA	0.0000		9999	1610	0	0	0
2019/04/14 04:18:00	BASE	2.40	19	4.78	352	1.1	100	1.1	0	0	955.6	NA	0.0000		9999	620	0	0	0
2019/04/14 04:19:00	BASE	2.08	20	4.78	352	1.1	100	1.1	0	0	955.6	NA	0.0000		9999	790	0	0	0
2019/04/14 04:20:00	BASE	1.88	14	4.78	352	1.1	100	1.1	0	0	955.7	NA	0.0000		9999	750	0	0	0
2019/04/14 04:21:00	BASE	2.05	3	4.68	1	1.1	100	1.1	0	0	955.8	NA	0.0000		9999	2820	3450	0	0
2019/04/14 04:22:00	BASE	2.20	360	4.37	3	1.1	100	1.1	0	0	955.8	NA	0.0000		9999	2850	3480	0	0
2019/04/14 04:23:00	BASE	2.29	2	3.86	16	1.1	100	1.1	0	0	955.8	NA	0.0000		9999	1280	0	0	0
2019/04/14 04:24:00	BASE	1.99	6	3.45	9	1.2	100	1.2	0	0	955.8	NA	0.0000		9999	1150	0	0	0
2019/04/14 04:25:00	BASE	1.59	12	3.40	12	1.2	100	1.2	0	0	955.8	NA	0.0000		9999	950	3050	0	0
2019/04/14 04:26:00	BASE	1.60	13	2.68	18	1.2	100	1.2	0	0	955.8	NA	0.0000		9999	950	3450	0	0
2019/04/14 04:27:00	BASE	1.59	8	2.62	1	1.2	100	1.2	0	0	955.9	NA	0.0000		9999	1080	2260	0	0
2019/04/14 04:28:00	BASE	0.77	357	2.62	1	1.3	100	1.3	0	0	955.9	NA	0.0000		9999	1020	0	0	0
2019/04/14 04:29:00	BASE	0.00	348	2.62	1	1.3	100	1.3	0	0	955.9	NA	0.0000		9999	1150	0	0	0
2019/04/14 04:30:00	BASE	0.00	340	2.62	1	1.3	100	1.3	0	0	955.9	NA	0.0000		9999	1210	0	0	0
2019/04/14 04:31:00	BASE	0.00	332	2.62	1	1.4	100	1.4	0	0	955.9	NA	0.0000		9999	1080	0	0	0
2019/04/14 04:32:00	BASE	0.00	323	2.62	1	1.4	100	1.4	0	0	956.0	NA	0.0000		9999	1120	0	0	0
2019/04/14 04:33:00	BASE	0.52	321	2.16	11	1.4	100	1.4	0	0	956.0	NA	0.0000		9999	1150	0	0	0
2019/04/14 04:34:00	BASE	1.18	329	1.80	5	1.4	100	1.4	0	0	956.0	NA	0.0000		9999	1180	0	0	0
2019/04/14 04:35:01	BASE	1.20	330	1.80	5	1.4	100	1.4	0	0	956.0	NA	0.0000		9999	0	0	0	3120
2019/04/14 04:36:00	BASE	1.16	327	1.80	5	1.4	100	1.4	0	0	956.0	NA	0.0000		9999	0	0	0	3150
2019/04/14 04:37:00	BASE	1.03	327	1.54	328	1.4	100	1.4	0	0	956.0	NA	0.0000		9999	1380	0	0	0
2019/04/14 04:38:00	BASE	0.42	329	1.54	328	1.4	100	1.4	0	0	956.0	NA	0.0000		9999	1570	0	0	0
2019/04/14 04:39:00	BASE	0.00	333	1.54	328	1.4	100	1.4	0	0	956.1	NA	0.0000		9999	1610	0	0	0
2019/04/14 04:40:01	BASE	0.00	334	1.54	328	1.4	100	1.4	0	0	956.1	NA	0.0000		9999	1570	0	0	0
2019/04/14 04:41:01	BASE	0.00	319	1.54	328	1.4	100	1.4	0	0	956.1	NA	0.0000		9999	1310	0	0	0
2019/04/14 04:42:01	BASE	0.00	225	1.54	328	1.4	100	1.4	0	0	956.1	NA	0.0000		9999	1380	0	0	0
2019/04/14 04:43:01	BASE	0.00	190	1.49	329	1.4	100	1.4	0	0	956.1	NA	0.0000		9999	1440	0	0	0
2019/04/14 04:44:01	BASE	0.00	185	1.44	328	1.4	100	1.4	0	0	956.1	NA	0.0000		9999	1510	0	0	0
2019/04/14 04:45:01	BASE	0.00	185	1.44	328	1.3	100	1.3	0	0	956.1	NA	0.0000		9999	1570	0	0	0
2019/04/14 04:46:01	BASE	0.00	197	1.39	327	1.3	100	1.3	0	0	956.1	NA	0.0000		9999	1570	0	0	0
2019/04/14 04:47:01	BASE	0.00	278	M	M	1.3	100	1.3	0	0	956.1	NA	0.0000		9999	1480	0	0	0
2019/04/14 04:48:01	BASE	0.00	321	M	M	1.3	100	1.3	0	0	956.1	NA	0.0000		9999	1410	0	0	0
2019/04/14 04:49:01	BASE	0.00	322	M	M	1.3	100	1.3	0	0	956.1	NA	0.0000		9999	1480	0	0	0
2019/04/14 04:50:01	BASE	0.00	324	M	M	1.3	100	1.3	0	0	956.1	NA	0.0000		9999	1480	0	0	0
2019/04/14 04:51:01	BASE	0.00	348	M	M	1.3	100	1.3	0	0	956.1	NA	0.0000		9999	1570	0	0	0
2019/04/14 04:52:01	BASE	0.00	18	M	M	1.3	100	1.3	0	0	956.1	NA	0.0000		9999	1540	0	0	0
2019/04/14 04:53:01	BASE	0.00	35	M	M	1.3	100	1.3	0	0	956.1	NA	0.0000		9999	1540	0	0	0
2019/04/14 04:54:01	BASE	0.42	42	1.29	31	1.3	100	1.3	0	0	956.1	NA	0.0000		9999	1640	0	0	0
2019/04/14 04:55:01	BASE	0.94	36	1.75	20	1.3	100	1.3	0	0	956.1	NA	0.0000		9999	1670	0	0	0
2019/04/14 04:56:01	BASE	1.45	29	2.31	27	1.3	100	1.3	0	0	956.1	NA	0.0000		9999	1640	0	0	0
2019/04/14 04:57:01	BASE	2.16	26	2.62	26	1.3	100	1.3	0	0	956.2	NA	0.0000		9999	1670	0	0	0
2019/04/14 04:58:01	BASE	2.56	27	2.83	25	1.3	100	1.3	0	0	956.2	NA	0.0000		9999	1840	0	0	0
2019/04/14 04:59:01	BASE	2.82	33	3.34	36	1.2	100	1.2	0	0	956.2	NA	0.0000		9999	1710	2360	0	0
2019/04/14 05:00:01	BASE	3.54	36	5.30	26	1.2	100	1.2	0	0	956.2	NA	0.0000		9999	1770	0	0	0
2019/04/14 05:01:01	BASE	4.58	26	5.97	19	1.1	100	1.1	0	0	956.2	NA	0.0000		9999	1770	0	0	0
2019/04/14 05:02:01	BASE	4.60	19	5.97	19	1.0	100	1.0	0	0	956.3	NA	0.0000		9999	1770	0	0	0
2019/04/14 05:03:01	BASE	3.45	17	5.97	19	1.0	100	1.0	0	0	956.4	NA	0.0000		9999	1570	0	0	0
2019/04/14 05:04:01	BASE	2.27	15	5.97	19	1.0	100	1.0	0	0	956.4	NA	0.0000		9999	1570	0	0	0
2019/04/14 05:05:01	BASE	1.53	23	5.97	19	1.0	100	1.0	0	0	956.4	NA	0.0000		9999	1670	0	0	0
2019/04/14 05:06:01	BASE	0.76	40	5.97	19	1.0	100	1.0	0	0	956.4	NA	0.0000		9999	1670	0	0	0
2019/04/14 05:07:01	BASE	0.63	53	5.97	19	1.0	100	1.0	0	0	956.5	NA	0.0000		9999	1670	0	0	0
2019/04/14 05:08:01	BASE	1.72	55	5.97	19	1.1	100	1.1	0	0	956.5	NA	0.0000		9999	1670	0	0	0
2019/04/14 05:09:01	BASE	2.60	54	5.97	19	1.1	100	1.1	0	0	956.5	NA	0.0000		9999	1740	2300	0	0
2019/04/14 05:10:01	BASE	3.01	55	5.97	19	1.0	100	1.0	0	0	956.5	NA	0.0000		9999	1740	2330	0	0
2019/04/14 05:11:01	BASE	3.07	52	5.71	19	1.0	100	1.0	0	0	956.5	NA	0.0000		9999	1740	0	0	0
2019/04/14 05:12:01	BASE	2.94	52	4.06	46	1.0	100	1.0	0	0	956.5	NA	0.0000		9999	2070	0	0	0
2019/04/14 05:13:01	BASE	3.10	62	4.06	46	1.0	100	1.0	0	0	956.5	NA	0.0000		9999	2200	0	0	0
2019/04/14 05:14:01	BASE	2.91	59	4.06	46	1.0	100	1.0	0	0	956.5	NA	0.0000		9999	2260	0	0	0
2019/04/14 05:15:01	BASE	2.94	46	4.06	46	1.0	100	1.0	0	0	956.5	NA	0.0000		9999	2100	0	0	0
2019/04/14 05:16:01	BASE	2.92	39	4.06	46	1.0	100	1.0	0	0	956.5	NA	0.0000		9999	1970	0	0	0
2019/04/14 05:17:01	BASE	2.97	35	4.06	46	0.9	100	0.9	0	0	956.5	NA	0.0000		9999	2030	0	0	0
2019/04/14 05:18:01	BASE	3.14	34	4.06	46	0.9	100	0.9	0	0	956.5	NA	0.0000		9999	2070	0	0	0
2019/04/14 05:19:01	BASE	2.92	33	4.42	34	0.9	100	0.9	0	0	956.6	NA	0.0000		9999	2070	0	0	0
2019/04/14 05:20:01	BASE	3.65	28	5.76	24	0.9	100	0.9	0	0	956.6	NA	0.0000		9999	2100	0	0	0
2019/04/14 05:21:01	BASE	4.66	27	5.76	24	0.8	100	0.8	0	0	956.6	NA	0.0000		9999	2100	0	0	0
2019/04/14 05:22:01	BASE	4.96	28	5.76	24	0.8	100	0.8	0	0	956.6	NA	0.0000		9999	2130	0	0	0
2019/04/14 05:23:01	BASE	5.19	29	5.86	23	0.8	100	0.8	0	0	956.6	NA	0.0000		9999	2200	0	0	0
2019/04/14 05:24:01	BASE	5.37	29	5.86	23	0.8	100	0.8	0	0	956.6	NA	0.0000		9999	2200	0	0	0
2019/04/14 05:25:01	BASE	5.25	27	5.86	38	0.8	100	0.8	0	0	956.6	NA	0.0000		9999	2230	0	0	0
2019/04/14 05:26:01	BASE	5.61	26	7.10	21	0.8	100	0.8	0	0	956.7	NA	0.0000		9999	2260	0	0	0
2019/04/14 05:27:01	BASE	6.78	23	8.95	21	0.8	100	0.8	0	0	956.7	NA	0.0000		9999	2300	0	0	0
2019/04/14 05:28:01	BASE	8.24	21	10.08	16	0.8	100	0.8	0	0	956.7	NA	0.0000		9999	2330	0	0	0
2019/04/14 05:29:01	BASE	8.69	18	10.08	16	0.8	100	0.8	0	0	956.7	NA	0.0000		9999	2330	0	0	0
2019/04/14 05:30:01	BASE	8.67	13	10.08	16	0.8	100	0.8	0	0	956.7	NA	0.0000		9999	2360	0	0	0
2019/04/14 05:31:01	BASE	9.00	11	10.08	16	0.8	100	0.8	0	0	956.7	NA	0.0000		9999	2330	0	0	0
2019/04/14 05:32:01	BASE	8.86	9	10.08	16	0.7	100	0.7	0	0	956.7	NA	0.0000		9999	2330	0	0	0
2019/04/14 05:33:01	BASE	8.41	9	10.08	16	0.7	100	0.7	0	0	956.7	NA	0.0000		9999	2300	0	0	0
2019/04/14 05:34:01	BASE	8.00	10	10.08	16	0.7	100	0.7	0	0	956.7	NA	0.0000		9999	2330	0	0	0
2019/04/14 05:35:01	BASE	7.57	11	10.08	16	0.6	100	0.6	0	0	956.7	NA	0.0000		9999	2360	0	0	0
2019/04/14 05:36:01	BASE	7.91	11	10.08	16	0.6	100	0.6	0	0	956.7	NA	0.0000		9999	2300	0	0	0
2019/04/14 05:37:01	BASE	8.39	7	10.08	16	0.6	100	0.6	0	0	956.7	NA	0.0000		9999	2300	0	0	0
2019/04/14 05:38:01	BASE	8.43	5	9.77	8	0.6	100	0.6	0	0	956.7	NA	0.0000		9999	2360	0	0	0
2019/04/14 05:39:01	BASE	7.89	6	9.77	8	0.6	100	0.6	0	0	956.7	NA	0.0000		9999	2560	0	0	0
2019/04/14 05:40:01	BASE	7.23	3	9.72	9	0.6	100	0.6	0	0	956.7	NA	0.0000		9999	2920	0	0	0
2019/04/14 05:41:01	BASE	6.49	359	9.62	7	0.5	100	0.5	0	0	956.7	NA	0.0000		9999	2620	0	0	0
2019/04/14 05:42:01	BASE	5.54	356	9.62	7	0.5	100	0.5	0	0	956.8	NA	0.0000		9999	3050	3810	0	0
2019/04/14 05:43:01	BASE	4.83	336	9.62	7	0.5	100	0.5	0	0	956.9	NA	0.0000		9999	2590	3840	0	0
2019/04/14 05:44:01	BASE	4.48	308	9.62	7	0.5	100	0.5	0	0	956.9	NA	0.0000		9999	2660	0	0	0
2019/04/14 05:45:01	BASE	4.50	287	9.62	7	0.6	100	0.6	0	0	956.9	NA	0.0000		9999	2760	3740	0	0
2019/04/14 05:46:01	BASE	4.13	276	9.21	7	0.6	100	0.6	0	0	957.0	NA	0.0000		9999	2790	0	0	0
2019/04/14 05:47:01	BASE	4.15	284	9.16	5	0.6	100	0.6	0	0	957.0	NA	0.0000		9999	2920	0	0	0
2019/04/14 05:48:01	BASE	4.62	295	8.08	6	0.7	100	0.7	0	0	957.0	NA	0.0000		9999	2950	0	0	0
2019/04/14 05:49:01	BASE	5.03	299	8.03	360	0.7	100	0.7	0	0	957.0	NA	0.0000		9999	2990	0	0	0
2019/04/14 05:50:01	BASE	5.46	299	6.94	4	0.7	100	0.7	0	0	957.0	NA	0.0000		9999	2990	0	0	0
2019/04/14 05:51:01	BASE	5.78	296	6.48	295	0.7	100	0.7	0	0	957.0	NA	0.0000		9999	3050	0	0	0
2019/04/14 05:52:01	BASE	5.69	300	6.48	295	0.7	100	0.7	0	0	957.0	NA	0.0000		9999	3050	0	0	0
2019/04/14 05:53:01	BASE	5.49	306	6.48	295	0.6	100	0.6	0	0	957.0	NA	0.0000		9999	2660	0	0	0
2019/04/14 05:54:01	BASE	5.18	307	6.48	295	0.6	100	0.6	0	0	957.1	NA	0.0000		9999	3050	0	0	0
2019/04/14 05:55:01	BASE	4.86	304	6.48	295	0.6	100	0.6	0	0	957.1	NA	0.0000		9999	890	3050	0	0
2019/04/14 05:56:01	BASE	4.89	298	6.48	295	0.6	100	0.6	0	0	957.1	NA	0.0000		9999	890	3020	0	0
2019/04/14 05:57:01	BASE	4.58	283	6.48	295	0.6	100	0.6	0	0	957.1	NA	0.0000		9999	2720	0	0	0
2019/04/14 05:58:01	BASE	4.19	263	6.48	295	0.6	100	0.6	0	0	957.1	NA	0.0000		9999	2590	0	0	0
2019/04/14 05:59:01	BASE	5.67	243	7.41	238	0.6	100	0.6	0	0	957.1	NA	0.0000		9999	2760	0	0	0
2019/04/14 06:00:01	BASE	6.52	233	7.41	238	0.7	100	0.7	0	0	957.1	NA	0.0000		9999	2820	0	0	0
2019/04/14 06:01:01	BASE	5.72	234	7.41	238	0.7	100	0.7	0	0	957.1	NA	0.0000		9999	2920	0	0	0
2019/04/14 06:02:01	BASE	5.14	242	7.41	238	0.8	100	0.8	0	0	957.2	NA	0.0000		9999	2990	0	0	0
2019/04/14 06:03:01	BASE	5.32	255	7.72	254	0.8	100	0.8	0	0	957.2	NA	0.0000		9999	2890	0	0	0
2019/04/14 06:04:01	BASE	7.00	258	10.65	243	0.8	100	0.8	0	0	957.3	NA	0.0000		9999	950	2820	0	0
2019/04/14 06:05:01	BASE	10.17	246	14.87	232	0.8	100	0.8	0	0	957.2	NA	0.0000		9999	1050	2660	3310	0
2019/04/14 06:06:01	BASE	12.21	241	14.87	232	0.7	100	0.7	0	0	957.2	NA	0.0000		9999	2230	0	0	0
2019/04/14 06:07:01	BASE	13.67	235	16.87	229	0.6	100	0.6	0	0	957.2	NA	0.0000		9999	3250	0	0	0
2019/04/14 06:08:01	BASE	12.96	232	16.87	229	0.5	100	0.5	0	0	957.3	NA	0.0000		9999	2760	0	0	0
2019/04/14 06:09:01	BASE	10.64	241	16.87	229	0.4	100	0.4	0	0	957.3	NA	0.0000		9999	2890	0	0	0
2019/04/14 06:10:01	BASE	10.71	248	16.87	229	0.3	100	0.3	0	0	957.3	NA	0.0000		9999	0	0	0	3580
2019/04/14 06:11:01	BASE	10.89	254	16.87	229	0.3	100	0.3	0	0	957.4	NA	0.0000		9999	0	0	0	3640
2019/04/14 06:12:01	BASE	11.43	257	16.87	229	0.3	100	0.3	0	0	957.4	NA	0.0000		9999	1080	0	0	0
2019/04/14 06:13:01	BASE	13.46	249	16.87	229	0.3	100	0.3	0	0	957.3	NA	0.0000		9999	660	0	0	0
2019/04/14 06:14:01	BASE	13.41	240	16.87	229	0.2	100	0.2	0	0	957.4	NA	0.0000		9999	490	0	0	0
2019/04/14 06:15:01	BASE	13.78	236	17.75	232	0.1	100	0.1	0	0	957.3	NA	0.0000		8000	360	0	0	0
2019/04/14 06:16:01	BASE	14.89	237	17.75	232	0.0	100	0.0	0	0	957.4	NA	0.0000	-SN	9000	330	1150	0	0
2019/04/14 06:17:01	BASE	13.72	241	17.75	232	-0.0	100	-0.0	0	0	957.5	NA	0.0000	-SN	8000	360	0	0	0
2019/04/14 06:18:01	BASE	12.22	242	17.75	232	-0.1	100	-0.1	0	0	957.5	NA	0.0000	-SN	7000	330	0	0	0
2019/04/14 06:19:01	BASE	12.83	243	17.75	232	-0.2	100	-0.2	0	0	957.4	NA	0.0000	-SN	7000	300	0	0	0
2019/04/14 06:20:00	BASE	14.17	243	17.75	232	-0.2	100	-0.2	0	0	957.5	NA	0.0000	-SN BR	5000	330	0	0	0
2019/04/14 06:21:01	BASE	13.05	237	17.75	232	-0.2	100	-0.2	0	0	957.5	NA	0.0000	-SN BR	4300	330	0	0	0
2019/04/14 06:22:01	BASE	13.04	233	17.75	232	-0.2	100	-0.2	0	0	957.5	NA	0.0000	-SN BR	4100	300	0	0	0
2019/04/14 06:23:01	BASE	13.57	236	17.75	232	-0.2	100	-0.2	0	0	957.6	NA	0.0000	-SN BR	3900	330	0	0	0
2019/04/14 06:24:00	BASE	12.36	242	17.75	232	-0.2	100	-0.2	0	0	957.6	NA	0.0000	-SN BR	3500	330	0	0	0
2019/04/14 06:25:01	BASE	11.90	244	16.41	240	-0.2	100	-0.2	0	0	957.6	NA	0.0000	-SN BR	4100	330	0	0	0
2019/04/14 06:26:00	BASE	12.30	240	16.41	240	-0.1	100	-0.1	0	0	957.7	NA	0.0000	-SN BR	4300	330	0	0	0
2019/04/14 06:27:01	BASE	12.96	239	16.41	240	-0.1	100	-0.1	0	0	957.6	NA	0.0000	-SN BR	4300	330	0	0	0
2019/04/14 06:28:01	BASE	13.94	239	17.29	240	-0.1	100	-0.1	0	0	957.7	NA	0.0000	-SN BR	4800	360	0	0	0
2019/04/14 06:29:01	BASE	15.25	236	17.95	235	-0.1	100	-0.1	0	0	957.7	NA	0.0000	-SN BR	5000	360	1120	0	0
2019/04/14 06:30:01	BASE	15.74	233	19.39	232	-0.1	100	-0.1	0	0	957.7	NA	0.0000	-SN BR	5000	330	0	0	0
2019/04/14 06:31:00	BASE	16.71	229	20.01	223	-0.2	100	-0.2	0	0	957.7	NA	0.0000	-SN BR	4900	330	0	0	0
2019/04/14 06:32:00	BASE	17.94	226	20.01	223	-0.2	100	-0.2	0	0	957.7	NA	0.0000	-SN BR	6000	330	0	0	0
2019/04/14 06:33:01	BASE	18.24	226	20.01	226	-0.4	100	-0.4	0	0	957.7	NA	0.0000	-SN BR	8000	360	0	0	0
2019/04/14 06:34:00	BASE	17.41	229	20.01	226	-0.5	100	-0.5	0	0	957.8	NA	0.0000	-SN BR	8000	360	0	0	0
2019/04/14 06:35:00	BASE	16.02	231	20.01	226	-0.5	100	-0.5	0	0	957.8	NA	0.0000	-SN BR	9999	360	0	0	0
2019/04/14 06:36:00	BASE	15.50	230	20.01	226	-0.6	100	-0.6	0	0	957.9	NA	0.0000	-SN BR	9000	330	920	0	0
2019/04/14 06:37:00	BASE	14.86	232	20.01	226	-0.6	100	-0.6	0	0	957.9	NA	0.0000	-SN BR	7000	300	0	0	0
2019/04/14 06:38:00	BASE	14.39	233	20.01	226	-0.5	100	-0.5	0	0	957.9	NA	0.0000	-SN BR	6000	300	0	0	0
2019/04/14 06:39:00	BASE	14.81	233	20.01	226	-0.5	100	-0.5	0	0	957.9	NA	0.0000	-SN BR	6000	300	0	0	0
2019/04/14 06:40:01	BASE	15.33	237	20.01	226	-0.5	100	-0.5	0	0	958.0	NA	0.0000	-SN BR	8000	300	0	0	0
2019/04/14 06:41:01	BASE	15.34	237	20.01	226	-0.6	100	-0.6	0	0	958.0	NA	0.0000	-SN BR	7000	300	0	0	0
2019/04/14 06:42:00	BASE	14.54	235	20.01	226	-0.6	100	-0.6	0	0	958.1	NA	0.0000	-SN BR	7000	300	0	0	0
2019/04/14 06:43:00	BASE	13.74	237	18.57	242	-0.6	100	-0.6	0	0	958.1	NA	0.0000	-SN BR	8000	260	0	0	0
2019/04/14 06:44:00	BASE	14.00	238	18.57	242	-0.6	100	-0.6	0	0	958.1	NA	0.0000	-SN BR	7000	0	0	0	1080
2019/04/14 06:45:00	BASE	14.32	238	18.57	242	-0.6	100	-0.6	0	0	958.1	NA	0.0000	-SN BR	6000	0	0	0	750
2019/04/14 06:46:00	BASE	14.89	238	18.57	242	-0.6	100	-0.6	0	0	958.2	NA	0.0000	-SN BR	6000	0	0	0	750
2019/04/14 06:47:01	BASE	14.25	240	18.57	242	-0.6	100	-0.6	0	0	958.3	NA	0.0000	-SN BR	6000	0	0	0	950
2019/04/14 06:48:00	BASE	14.37	240	18.57	242	-0.6	100	-0.6	0	0	958.2	NA	0.0000	-SN BR	5000	0	0	0	1050
2019/04/14 06:49:00	BASE	14.13	241	17.44	233	-0.6	100	-0.6	0	0	958.3	NA	0.0000	-SN BR	5000	0	0	0	750
2019/04/14 06:50:01	BASE	13.83	243	17.44	233	-0.6	100	-0.6	0	0	958.3	NA	0.0000	-SN BR	5000	0	0	0	620
2019/04/14 06:51:00	BASE	14.99	244	17.44	233	-0.6	100	-0.6	0	0	958.3	NA	0.0000	-SN BR	5000	0	0	0	690
2019/04/14 06:52:00	BASE	15.04	243	17.44	233	-0.7	100	-0.7	0	0	958.4	NA	0.0000	-SN BR	5000	0	0	0	1150
2019/04/14 06:53:00	BASE	15.03	241	17.44	233	-0.7	100	-0.7	0	0	958.4	NA	0.0000	-SN BR	5000	0	0	0	1150
2019/04/14 06:54:00	BASE	14.48	240	17.44	233	-0.8	100	-0.8	0	0	958.4	NA	0.0000	-SN BR	5000	0	0	0	1250
2019/04/14 06:55:01	BASE	13.38	240	17.08	241	-0.8	100	-0.8	0	0	958.5	NA	0.0000	-SN BR	5000	0	0	0	1250
2019/04/14 06:56:01	BASE	13.89	238	17.29	237	-0.8	100	-0.8	0	0	958.5	NA	0.0000	-SN BR	5000	0	0	0	1350
2019/04/14 06:57:00	BASE	14.19	238	17.29	237	-0.8	100	-0.8	0	0	958.5	NA	0.0000	-SN BR	5000	0	0	0	1380
2019/04/14 06:58:00	BASE	13.68	239	17.29	237	-0.8	100	-0.8	0	0	958.5	NA	0.0000	-SN BR	4700	0	0	0	1410
2019/04/14 06:59:00	BASE	13.53	239	17.29	237	-0.8	100	-0.8	0	0	958.5	NA	0.0000	-SN BR	4600	0	0	0	1410
2019/04/14 07:00:01	BASE	13.34	241	17.29	237	-0.8	100	-0.8	0	0	958.6	NA	0.0000	-SN BR	5000	0	0	0	1210
2019/04/14 07:01:00	BASE	12.69	243	17.29	237	-0.8	100	-0.8	0	0	958.6	NA	0.0000	-SN BR	5000	0	0	0	1380
2019/04/14 07:02:00	BASE	13.14	244	17.29	237	-0.8	100	-0.8	0	0	958.6	NA	0.0000	-SN BR	5000	0	0	0	1380
2019/04/14 07:03:00	BASE	13.67	246	17.29	237	-0.8	100	-0.8	0	0	958.6	NA	0.0000	-SN BR	7000	0	0	0	1380
2019/04/14 07:04:00	BASE	12.91	245	17.29	237	-0.9	100	-0.9	0	0	958.6	NA	0.0000	-SN BR	8000	0	0	0	920
2019/04/14 07:05:01	BASE	13.85	245	17.29	237	-0.9	100	-0.9	0	0	958.6	NA	0.0000	-SN BR	8000	0	0	0	1410
2019/04/14 07:06:00	BASE	14.51	247	16.31	246	-1.0	100	-1.0	0	0	958.7	NA	0.0000	-SN BR	9000	0	0	0	1510
2019/04/14 07:07:00	BASE	13.86	244	16.31	246	-1.0	100	-1.0	0	0	958.7	NA	0.0000	-SN BR	9000	0	0	0	1570
2019/04/14 07:08:00	BASE	13.73	242	16.31	246	-1.1	100	-1.1	0	0	958.7	NA	0.0000	-SN BR	9000	0	0	0	1610
2019/04/14 07:09:00	BASE	13.32	244	16.31	246	-1.1	100	-1.1	0	0	958.8	NA	0.0000	-SN BR	9000	0	0	0	1670
2019/04/14 07:10:00	BASE	12.59	245	16.31	246	-1.1	100	-1.1	0	0	958.9	NA	0.0000	-SN BR	9000	0	0	0	1640
2019/04/14 07:11:00	BASE	12.80	244	16.31	246	-1.1	100	-1.1	0	0	958.9	NA	0.0000	-SN BR	8000	0	0	0	1610
2019/04/14 07:12:00	BASE	12.41	243	16.31	246	-1.1	100	-1.1	0	0	958.9	NA	0.0000	-SN BR	7000	0	0	0	1570
2019/04/14 07:13:00	BASE	11.19	244	16.31	246	-1.1	100	-1.1	0	0	959.0	NA	0.0000	-SN BR	7000	0	0	0	1540
2019/04/14 07:14:00	BASE	10.80	242	16.31	246	-1.1	100	-1.1	0	0	959.0	NA	0.0000	-SN BR	7000	0	0	0	1570
2019/04/14 07:15:00	BASE	9.82	244	15.74	243	-1.1	100	-1.1	0	0	959.1	NA	0.0000	-SN BR	6000	0	0	0	1570
2019/04/14 07:16:00	BASE	9.28	248	15.74	243	-1.1	100	-1.1	0	0	959.1	NA	0.0000	-SN BR	7000	0	0	0	1510
2019/04/14 07:17:00	BASE	10.19	249	15.69	238	-1.1	100	-1.1	0	0	959.1	NA	0.0000	-SN BR	7000	0	0	0	1610
2019/04/14 07:18:00	BASE	10.52	250	15.12	238	-1.1	100	-1.1	0	0	959.1	NA	0.0000	-SN BR	6000	0	0	0	1540
2019/04/14 07:19:00	BASE	10.40	251	14.04	236	-1.1	100	-1.1	0	0	959.2	NA	0.0000	-SN BR	6000	0	0	0	1410
2019/04/14 07:20:00	BASE	9.91	252	14.04	236	-1.2	100	-1.2	0	0	959.2	NA	0.0000	-SN BR	7000	0	0	0	750
2019/04/14 07:21:00	BASE	9.42	250	14.04	236	-1.2	100	-1.2	0	0	959.2	NA	0.0000	-SN BR	7000	0	0	0	790
2019/04/14 07:22:00	BASE	10.53	251	13.07	248	-1.2	100	-1.2	0	0	959.2	NA	0.0000	-SN BR	7000	0	0	0	850
2019/04/14 07:23:00	BASE	10.13	251	13.07	248	-1.2	100	-1.2	0	0	959.2	NA	0.0000	-SN BR	6000	0	0	0	1440
2019/04/14 07:24:01	BASE	9.22	253	13.07	248	-1.2	100	-1.2	0	0	959.2	NA	0.0000	-SN BR	6000	0	0	0	1610
2019/04/14 07:25:01	BASE	9.61	255	13.07	248	-1.2	100	-1.2	0	0	959.2	NA	0.0000	-SN BR	6000	0	0	0	1570
2019/04/14 07:26:00	BASE	9.21	255	13.07	248	-1.2	100	-1.2	0	0	959.2	NA	0.0000	-SN BR	5000	0	0	0	920
2019/04/14 07:27:00	BASE	8.11	257	13.07	248	-1.2	100	-1.2	0	0	959.3	NA	0.0000	-SN BR	5000	0	0	0	790
2019/04/14 07:28:00	BASE	7.87	260	13.07	248	-1.2	100	-1.2	0	0	959.3	NA	0.0000	-SN BR	4900	0	0	0	750
2019/04/14 07:29:00	BASE	8.33	256	13.07	248	-1.1	100	-1.1	0	0	959.4	NA	0.0000	-SN BR	3900	0	0	0	920
2019/04/14 07:30:00	BASE	9.29	253	13.07	248	-1.1	100	-1.1	0	0	959.4	NA	0.0000	-SN BR	4500	0	0	0	950
2019/04/14 07:31:01	BASE	9.01	252	13.07	248	-1.2	100	-1.2	0	0	959.4	NA	0.0000	-SN BR	5000	0	0	0	1310
2019/04/14 07:32:01	BASE	7.55	251	11.21	250	-1.2	100	-1.2	0	0	959.4	NA	0.0000	-SN BR	4400	0	0	0	1180
2019/04/14 07:33:01	BASE	7.47	253	11.21	250	-1.2	100	-1.2	0	0	959.4	NA	0.0000	-SN BR	4200	0	0	0	1310
2019/04/14 07:34:00	BASE	7.51	254	11.21	250	-1.2	100	-1.2	0	0	959.5	NA	0.0000	-SN BR	4100	0	0	0	920
2019/04/14 07:35:00	BASE	8.27	254	11.21	250	-1.2	100	-1.2	0	0	959.5	NA	0.0000	-SN BR	4600	0	0	0	890
2019/04/14 07:36:00	BASE	9.46	255	11.32	261	-1.2	100	-1.2	0	0	959.5	NA	0.0000	-SN BR	5000	0	0	0	920
2019/04/14 07:37:00	BASE	9.30	253	11.32	261	-1.2	100	-1.2	0	0	959.5	NA	0.0000	-SN BR	5000	0	0	0	1180
2019/04/14 07:38:00	BASE	8.95	253	11.32	261	-1.2	100	-1.2	0	0	959.6	NA	0.0000	-SN BR	6000	0	0	0	850
2019/04/14 07:39:00	BASE	9.48	256	11.32	258	-1.2	100	-1.2	0	0	959.6	NA	0.0000	-SN BR	5000	0	0	0	1020
2019/04/14 07:40:01	BASE	10.20	256	12.04	252	-1.2	100	-1.2	0	0	959.6	NA	0.0000	-SN BR	5000	0	0	0	1180
2019/04/14 07:41:00	BASE	10.12	254	12.04	252	-1.2	100	-1.2	0	0	959.6	NA	0.0000	-SN BR	4900	0	0	0	1180
2019/04/14 07:42:00	BASE	9.59	255	12.04	252	-1.2	100	-1.2	0	0	959.6	NA	0.0000	-SN BR	4900	0	0	0	1080
2019/04/14 07:43:00	BASE	9.42	258	12.04	252	-1.2	100	-1.2	0	0	959.7	NA	0.0000	-SN BR	4900	0	0	0	920
2019/04/14 07:44:01	BASE	10.13	258	12.60	258	-1.2	100	-1.2	0	0	959.6	NA	0.0000	-SN BR	4600	0	0	0	1050
2019/04/14 07:45:00	BASE	10.46	258	12.60	258	-1.2	100	-1.2	0	0	959.7	NA	0.0000	-SN BR	5000	0	0	0	1350
2019/04/14 07:46:00	BASE	10.20	256	12.60	258	-1.2	100	-1.2	0	0	959.7	NA	0.0000	-SN BR	5000	0	0	0	1080
2019/04/14 07:47:00	BASE	10.76	255	12.71	252	-1.2	100	-1.2	0	0	959.7	NA	0.0000	-SN BR	4600	0	0	0	920
2019/04/14 07:48:00	BASE	10.84	253	12.71	252	-1.2	100	-1.2	0	0	959.7	NA	0.0000	-SN BR	4400	0	0	0	1180
2019/04/14 07:49:00	BASE	9.87	252	12.71	252	-1.2	100	-1.2	0	0	959.7	NA	0.0000	-SN BR	4300	0	0	0	1310
2019/04/14 07:50:00	BASE	9.45	252	12.71	252	-1.2	100	-1.2	0	0	959.7	NA	0.0000	-SN BR	4000	0	0	0	1280
2019/04/14 07:51:00	BASE	9.09	253	12.71	252	-1.2	100	-1.2	0	0	959.8	NA	0.0000	-SN BR	3800	0	0	0	1050
2019/04/14 07:52:00	BASE	9.30	252	12.71	252	-1.2	100	-1.2	0	0	959.8	NA	0.0000	-SN BR	4000	0	0	0	1250
2019/04/14 07:53:00	BASE	11.09	252	13.63	253	-1.2	100	-1.2	0	0	959.8	NA	0.0000	-SN BR	4500	0	0	0	1120
2019/04/14 07:54:00	BASE	11.48	252	13.63	253	-1.2	100	-1.2	0	0	959.8	NA	0.0000	-SN BR	5000	0	0	0	980
2019/04/14 07:55:00	BASE	11.50	251	13.94	242	-1.3	100	-1.3	0	0	959.8	NA	0.0000	-SN BR	5000	300	0	0	0
2019/04/14 07:56:00	BASE	11.09	249	13.94	242	-1.3	100	-1.3	0	0	959.9	NA	0.0000	-SN BR	5000	260	0	0	0
2019/04/14 07:57:00	BASE	9.88	245	13.94	242	-1.3	100	-1.3	0	0	960.0	NA	0.0000	-SN BR	6000	300	0	0	0
2019/04/14 07:58:00	BASE	9.11	245	13.94	242	-1.3	100	-1.3	0	0	960.0	NA	0.0000	-SN BR	6000	330	0	0	0
2019/04/14 07:59:00	BASE	8.62	249	13.94	242	-1.3	100	-1.3	0	0	960.0	NA	0.0000	-SN BR	4900	360	0	0	0
2019/04/14 08:00:01	BASE	8.90	249	13.94	242	-1.3	100	-1.3	0	0	960.1	NA	0.0000	-SN BR	5000	330	0	0	0
2019/04/14 08:01:00	BASE	9.23	248	13.94	242	-1.4	100	-1.4	0	0	960.1	NA	0.0000	-SN BR	5000	330	0	0	0
2019/04/14 08:02:00	BASE	8.58	248	13.94	242	-1.4	100	-1.4	0	0	960.1	NA	0.0000	-SN BR	5000	330	0	0	0
2019/04/14 08:03:00	BASE	7.60	250	13.94	242	-1.4	100	-1.4	0	0	960.1	NA	0.0000	-SN BR	5000	330	0	0	0
2019/04/14 08:04:00	BASE	7.72	253	13.94	242	-1.4	100	-1.4	0	0	960.1	NA	0.0000	-SN BR	5000	330	0	0	0
2019/04/14 08:05:00	BASE	8.09	256	12.45	252	-1.4	100	-1.4	0	0	960.2	NA	0.0000	-SN BR	6000	330	0	0	0
2019/04/14 08:06:00	BASE	7.99	258	11.78	248	-1.3	100	-1.3	0	0	960.2	NA	0.0000	-SN BR	7000	330	0	0	0
2019/04/14 08:07:00	BASE	8.10	262	11.78	248	-1.3	100	-1.3	0	0	960.2	NA	0.0000	-SN BR	7000	330	0	0	0
2019/04/14 08:08:00	BASE	8.42	263	11.78	248	-1.3	100	-1.3	0	0	960.2	NA	0.0000	-SN BR	7000	330	0	0	0
2019/04/14 08:09:00	BASE	8.23	262	11.78	248	-1.3	100	-1.3	0	0	960.2	NA	0.0000	-SN BR	7000	360	0	0	0
2019/04/14 08:10:00	BASE	7.28	266	10.44	281	-1.4	100	-1.4	0	0	960.3	NA	0.0000	-SN BR	8000	360	0	0	0
2019/04/14 08:11:00	BASE	7.05	268	10.60	247	-1.4	100	-1.4	0	0	960.3	NA	0.0000	-SN BR	7000	360	0	0	0
2019/04/14 08:12:00	BASE	7.70	261	10.60	247	-1.4	100	-1.4	0	0	960.3	NA	0.0000	-SN BR	6000	360	0	0	0
2019/04/14 08:13:00	BASE	7.62	258	10.60	247	-1.4	100	-1.4	0	0	960.3	NA	0.0000	-SN BR	7000	390	0	0	0
2019/04/14 08:14:00	BASE	7.33	262	10.60	247	-1.4	100	-1.4	0	0	960.3	NA	0.0000	-SN BR	9000	360	0	0	0
2019/04/14 08:15:00	BASE	8.11	262	11.01	250	-1.4	100	-1.4	0	0	960.3	NA	0.0000	-SN BR	8000	390	0	0	0
2019/04/14 08:16:00	BASE	8.73	263	11.01	250	-1.4	100	-1.4	0	0	960.4	NA	0.0000	-SN BR	7000	360	0	0	0
2019/04/14 08:17:00	BASE	8.04	264	11.01	250	-1.4	100	-1.4	0	0	960.4	NA	0.0000	-SN BR	8000	360	0	0	0
2019/04/14 08:18:00	BASE	7.70	269	11.01	250	-1.3	100	-1.3	0	0	960.4	NA	0.0000	-SN BR	6000	330	0	0	0
2019/04/14 08:19:00	BASE	7.35	273	11.01	250	-1.3	100	-1.3	0	0	960.4	NA	0.0000	-SN BR	7000	330	0	0	0
2019/04/14 08:20:00	BASE	6.52	269	11.01	250	-1.3	100	-1.3	0	0	960.5	NA	0.0000	-SN BR	7000	330	0	0	0
2019/04/14 08:21:00	BASE	6.59	271	11.01	250	-1.3	100	-1.3	0	0	960.6	NA	0.0000	-SN BR	6000	330	0	0	0
2019/04/14 08:22:00	BASE	7.49	276	11.01	250	-1.3	100	-1.3	0	0	960.6	NA	0.0000	-SN BR	6000	300	0	0	0
2019/04/14 08:23:00	BASE	8.33	278	11.01	250	-1.3	100	-1.3	0	0	960.6	NA	0.0000	-SN BR	5000	260	0	0	0
2019/04/14 08:24:00	BASE	8.20	273	11.01	250	-1.3	100	-1.3	0	0	960.6	NA	0.0000	-SN BR	5000	0	0	0	950
2019/04/14 08:25:00	BASE	8.51	266	11.27	265	-1.3	100	-1.3	0	0	960.6	NA	0.0000	-SN BR	6000	260	0	0	0
2019/04/14 08:26:00	BASE	8.24	266	11.27	265	-1.3	100	-1.3	0	0	960.7	NA	0.0000	-SN BR	6000	0	0	0	1050
2019/04/14 08:27:00	BASE	7.68	267	11.27	265	-1.3	100	-1.3	0	0	960.7	NA	0.0000	-SN BR	7000	300	0	0	0
2019/04/14 08:28:00	BASE	7.76	272	11.27	265	-1.3	100	-1.3	0	0	960.8	NA	0.0000	-SN BR	8000	300	0	0	0
2019/04/14 08:29:00	BASE	7.37	276	11.27	265	-1.3	100	-1.3	0	0	960.8	NA	0.0000	-SN BR	9000	300	0	0	0
2019/04/14 08:30:00	BASE	7.10	273	11.27	265	-1.4	100	-1.4	0	0	960.8	NA	0.0000	-SN BR	9000	300	0	0	0
2019/04/14 08:31:00	BASE	7.06	268	11.27	265	-1.4	100	-1.4	0	0	960.8	NA	0.0000	-SN BR	9999	330	0	0	0
2019/04/14 08:32:00	BASE	6.84	261	11.27	265	-1.4	100	-1.4	0	0	960.9	NA	0.0000	-SN BR	9999	360	0	0	0
2019/04/14 08:33:00	BASE	6.97	261	11.27	265	-1.4	100	-1.4	0	0	960.9	NA	0.0000	-SN BR	9999	360	0	0	0
2019/04/14 08:34:00	BASE	7.56	266	11.27	265	-1.4	100	-1.4	0	0	960.9	NA	0.0000	-SN BR	9999	360	0	0	0
2019/04/14 08:35:00	BASE	8.38	264	12.35	270	-1.4	100	-1.4	0	0	960.9	NA	0.0000	-SN BR	9999	300	0	0	0
2019/04/14 08:36:00	BASE	9.09	262	12.35	270	-1.4	100	-1.4	0	0	961.0	NA	0.0000	-SN BR	9999	330	0	0	0
2019/04/14 08:37:00	BASE	8.36	265	12.35	270	-1.5	100	-1.5	0	0	960.9	NA	0.0000	-SN	9999	260	0	0	0
2019/04/14 08:38:00	BASE	7.97	266	12.35	270	-1.5	100	-1.5	0	0	961.0	NA	0.0000	-SN	9999	230	0	0	0
2019/04/14 08:39:00	BASE	7.80	264	12.35	270	-1.5	100	-1.5	0	0	961.0	NA	0.0000	-SN	9999	300	0	0	0
2019/04/14 08:40:00	BASE	7.82	267	12.35	270	-1.5	100	-1.5	0	0	961.0	NA	0.0000	-SN	9000	300	0	0	0
2019/04/14 08:41:00	BASE	8.09	272	12.35	270	-1.5	100	-1.5	0	0	961.0	NA	0.0000	-SN	8000	300	0	0	0
2019/04/14 08:42:00	BASE	8.12	267	12.35	270	-1.5	100	-1.6	0	0	961.1	NA	0.0000	-SN	8000	260	0	0	0
2019/04/14 08:43:00	BASE	7.61	265	12.35	270	-1.6	100	-1.6	0	0	961.1	NA	0.0000	-SN BR	8000	260	0	0	0
2019/04/14 08:44:00	BASE	7.47	268	12.35	270	-1.6	100	-1.6	0	0	961.1	NA	0.0000	-SN BR	8000	300	0	0	0
2019/04/14 08:45:00	BASE	7.83	270	11.27	264	-1.6	100	-1.6	0	0	961.1	NA	0.0000	-SN BR	7000	260	0	0	0
2019/04/14 08:46:00	BASE	7.26	273	11.27	264	-1.6	100	-1.6	0	0	961.1	NA	0.0000	-SN BR	8000	260	0	0	0
2019/04/14 08:47:00	BASE	6.99	273	11.27	264	-1.6	100	-1.6	0	0	961.1	NA	0.0000	-SN BR	7000	260	0	0	0
2019/04/14 08:48:00	BASE	7.40	270	11.27	264	-1.6	100	-1.6	0	0	961.1	NA	0.0000	-SN BR	6000	260	0	0	0
2019/04/14 08:49:00	BASE	7.88	267	11.27	264	-1.6	100	-1.6	0	0	961.1	NA	0.0000	-SN BR	7000	260	0	0	0
2019/04/14 08:50:00	BASE	7.17	267	10.49	264	-1.6	100	-1.6	0	0	961.1	NA	0.0000	-SN BR	8000	300	0	0	0
2019/04/14 08:51:00	BASE	6.30	273	10.49	264	-1.6	100	-1.6	0	0	961.1	NA	0.0000	-SN BR	9000	330	0	0	0
2019/04/14 08:52:00	BASE	6.47	278	10.19	266	-1.5	100	-1.5	0	0	961.2	NA	0.0000	-SN BR	9999	330	0	0	0
2019/04/14 08:53:00	BASE	6.98	280	10.19	266	-1.5	100	-1.5	0	0	961.2	NA	0.0000	-SN BR	9999	300	0	0	0
2019/04/14 08:54:00	BASE	7.25	281	10.19	266	-1.5	100	-1.5	0	0	961.2	NA	0.0000	-SN BR	9000	300	0	0	0
2019/04/14 08:55:00	BASE	7.33	281	10.19	266	-1.5	100	-1.5	0	0	961.2	NA	0.0000	-SN BR	9000	300	0	0	0
2019/04/14 08:56:00	BASE	7.82	281	10.19	266	-1.5	100	-1.5	0	0	961.3	NA	0.0000	-SN BR	9999	360	0	0	0
2019/04/14 08:57:00	BASE	7.85	278	10.19	266	-1.5	100	-1.5	0	0	961.4	NA	0.0000	-SN BR	9999	430	0	0	0
2019/04/14 08:58:00	BASE	7.31	275	9.67	276	-1.5	100	-1.5	0	0	961.4	NA	0.0000	-SN	9999	430	0	0	0
2019/04/14 08:59:00	BASE	7.44	275	9.67	276	-1.5	100	-1.5	0	0	961.4	NA	0.0000	-SN	9999	430	0	0	0
2019/04/14 09:00:00	BASE	7.36	281	9.67	276	-1.5	100	-1.5	0	0	961.4	NA	0.0000	-SN	9999	390	0	0	0
2019/04/14 09:01:00	BASE	7.22	279	9.67	276	-1.5	100	-1.5	0	0	961.4	NA	0.0000	-SN	9999	430	0	0	0
2019/04/14 09:02:00	BASE	7.28	273	9.67	276	-1.5	100	-1.5	0	0	961.4	NA	0.0000	-SN	9999	390	0	0	0
2019/04/14 09:03:00	BASE	7.88	279	9.67	291	-1.5	100	-1.5	0	0	961.4	NA	0.0000	-SN	9999	390	0	0	0
2019/04/14 09:04:00	BASE	8.03	284	9.67	291	-1.5	100	-1.5	0	0	961.4	NA	0.0000	-SN	9999	390	0	0	0
2019/04/14 09:05:00	BASE	8.32	282	10.13	282	-1.5	100	-1.5	0	0	961.5	NA	0.0000	-SN	9999	430	0	0	0
2019/04/14 09:06:00	BASE	8.80	283	10.13	282	-1.5	100	-1.5	0	0	961.5	NA	0.0000	-SN	9999	390	0	0	0
2019/04/14 09:07:00	BASE	8.29	285	10.13	282	-1.5	100	-1.5	0	0	961.5	NA	0.0000	-SN	9999	390	0	0	0
2019/04/14 09:08:00	BASE	8.16	283	10.13	282	-1.5	100	-1.5	0	0	961.5	NA	0.0000	-SN	9999	390	0	0	0
2019/04/14 09:09:00	BASE	8.59	278	10.55	275	-1.5	100	-1.5	0	0	961.5	NA	0.0000	-SN	9999	360	0	0	0
2019/04/14 09:10:00	BASE	9.38	277	10.60	273	-1.4	100	-1.4	0	0	961.6	NA	0.0000	-SN	9000	360	0	0	0
2019/04/14 09:11:00	BASE	9.01	275	10.60	273	-1.4	100	-1.4	0	0	961.6	NA	0.0000	-SN	9999	360	0	0	0
2019/04/14 09:12:00	BASE	8.55	275	11.01	288	-1.5	100	-1.5	0	0	961.6	NA	0.0000	-SN	9999	360	0	0	0
2019/04/14 09:13:00	BASE	9.08	278	11.21	279	-1.5	100	-1.5	0	0	961.6	NA	0.0000	-SN	9999	390	0	0	0
2019/04/14 09:14:00	BASE	8.74	274	11.21	279	-1.5	100	-1.5	0	0	961.7	NA	0.0000	-SN	9999	360	0	0	0
2019/04/14 09:15:00	BASE	8.04	274	11.21	279	-1.5	100	-1.5	0	0	961.7	NA	0.0000	-SN	8000	360	0	0	0
2019/04/14 09:16:00	BASE	8.21	279	11.21	279	-1.5	100	-1.5	0	0	961.7	NA	0.0000	-SN BR	5000	330	1380	0	0
2019/04/14 09:17:00	BASE	8.06	281	11.21	279	-1.5	100	-1.5	0	0	961.7	NA	0.0000	-SN BR	3900	360	0	0	0
2019/04/14 09:18:00	BASE	7.36	281	11.21	279	-1.5	100	-1.5	0	0	961.7	NA	0.0000	-SN BR	4900	330	0	0	0
2019/04/14 09:19:00	BASE	7.21	280	11.21	279	-1.4	100	-1.4	0	0	961.7	NA	0.0000	-SN BR	5000	360	0	0	0
2019/04/14 09:20:00	BASE	8.05	280	11.21	279	-1.4	100	-1.4	0	0	961.8	NA	0.0000	-SN BR	5000	330	0	0	0
2019/04/14 09:21:00	BASE	8.41	281	11.21	279	-1.4	100	-1.4	0	0	961.8	NA	0.0000	-SN BR	7000	230	0	0	0
2019/04/14 09:22:00	BASE	8.69	283	11.21	279	-1.4	100	-1.4	0	0	961.8	NA	0.0000	-SN BR	5000	260	0	0	0
2019/04/14 09:23:00	BASE	9.47	282	11.47	283	-1.3	100	-1.3	0	0	961.8	NA	0.0000	-SN BR	4500	260	0	0	0
2019/04/14 09:24:00	BASE	10.60	283	11.94	291	-1.4	100	-1.4	0	0	961.8	NA	0.0000	-SN BR	3800	0	0	0	1280
2019/04/14 09:25:00	BASE	10.76	282	11.94	291	-1.4	100	-1.4	0	0	961.9	NA	0.0000	-SN BR	3900	0	0	0	1210
2019/04/14 09:26:00	BASE	10.20	281	11.94	291	-1.4	100	-1.4	0	0	962.0	NA	0.0000	-SN BR	4100	0	0	0	1250
2019/04/14 09:27:00	BASE	10.38	280	12.50	273	-1.5	100	-1.5	0	0	962.0	NA	0.0000	-SN BR	4500	0	0	0	1250
2019/04/14 09:28:00	BASE	10.55	276	12.50	273	-1.5	100	-1.5	0	0	962.0	NA	0.0000	-SN BR	5000	0	0	0	1120
2019/04/14 09:29:00	BASE	11.14	277	12.50	273	-1.5	100	-1.5	0	0	962.0	NA	0.0000	-SN BR	5000	0	0	0	1380
2019/04/14 09:30:00	BASE	11.29	281	12.50	273	-1.6	100	-1.6	0	0	962.0	NA	0.0000	-SN BR	5000	0	0	0	1410
2019/04/14 09:31:00	BASE	10.24	282	12.50	273	-1.6	100	-1.6	0	0	962.1	NA	0.0000	-SN BR	5000	0	0	0	1380
2019/04/14 09:32:00	BASE	9.97	280	12.50	273	-1.6	100	-1.6	0	0	962.1	NA	0.0000	-SN BR	5000	0	0	0	1350
2019/04/14 09:33:00	BASE	9.93	284	12.50	273	-1.6	100	-1.6	0	0	962.1	NA	0.0000	-SN BR	3900	0	0	0	1310
2019/04/14 09:34:00	BASE	9.52	286	12.50	273	-1.6	100	-1.6	0	0	962.1	NA	0.0000	-SN BR	4000	0	0	0	1180
2019/04/14 09:35:00	BASE	10.66	285	12.50	273	-1.6	100	-1.6	0	0	962.1	NA	0.0000	-SN BR	5000	0	0	0	1150
2019/04/14 09:36:00	BASE	11.26	286	12.50	273	-1.6	100	-1.6	0	0	962.2	NA	0.0000	-SN BR	4600	0	0	0	1380
2019/04/14 09:37:00	BASE	10.72	287	12.24	283	-1.6	100	-1.6	0	0	962.2	NA	0.0000	-SN BR	4800	0	0	0	1440
2019/04/14 09:38:00	BASE	10.44	289	12.24	283	-1.6	100	-1.6	0	0	962.2	NA	0.0000	-SN BR	8000	0	0	0	1410
2019/04/14 09:39:00	BASE	10.47	293	12.24	283	-1.6	100	-1.6	0	0	962.2	NA	0.0000	-SN BR	9000	0	0	0	1670
2019/04/14 09:40:00	BASE	10.55	294	12.24	283	-1.6	100	-1.6	0	0	962.2	NA	0.0000	-SN BR	9999	0	0	0	1870
2019/04/14 09:41:00	BASE	10.59	291	12.24	283	-1.6	100	-1.6	0	0	962.3	NA	0.0000	-SN BR	9999	0	0	0	1250
2019/04/14 09:42:00	BASE	10.03	285	12.24	283	-1.6	100	-1.6	0	0	962.3	NA	0.0000	-SN BR	6000	0	0	0	1380
2019/04/14 09:43:00	BASE	9.19	284	12.24	283	-1.6	100	-1.6	0	0	962.3	NA	0.0000	-SN BR	5000	0	0	0	1350
2019/04/14 09:44:00	BASE	8.81	285	12.24	283	-1.6	100	-1.6	0	0	962.3	NA	0.0000	-SN BR	6000	0	0	0	1250
2019/04/14 09:45:00	BASE	8.85	286	12.09	286	-1.6	100	-1.6	0	0	962.3	NA	0.0000	-SN BR	7000	0	0	0	1180
2019/04/14 09:46:00	BASE	9.78	287	12.09	286	-1.6	100	-1.6	0	0	962.3	NA	0.0000	-SN BR	9000	0	0	0	1350
2019/04/14 09:47:00	BASE	10.06	287	12.09	286	-1.6	100	-1.6	0	0	962.4	NA	0.0000	-SN BR	7000	0	0	0	1210
2019/04/14 09:48:00	BASE	9.46	284	12.09	286	-1.6	100	-1.6	0	0	962.5	NA	0.0000	-SN BR	5000	0	0	0	1310
2019/04/14 09:49:00	BASE	9.63	280	12.09	286	-1.6	100	-1.6	0	0	962.5	NA	0.0000	-SN BR	4600	0	0	0	1120
2019/04/14 09:50:00	BASE	10.14	285	12.09	286	-1.6	100	-1.6	0	0	962.5	NA	0.0000	-SN BR	3800	0	0	0	1250
2019/04/14 09:51:00	BASE	9.84	286	11.27	287	-1.6	100	-1.6	0	0	962.6	NA	0.0000	-SN BR	4400	0	0	0	1410
2019/04/14 09:52:00	BASE	9.18	281	11.27	287	-1.5	100	-1.6	0	0	962.6	NA	0.0000	-SN BR	4000	0	0	0	1310
2019/04/14 09:53:00	BASE	9.26	276	11.27	287	-1.5	100	-1.5	0	0	962.7	NA	0.0000	-SN BR	4100	0	0	0	1210
2019/04/14 09:54:00	BASE	9.29	274	11.27	287	-1.5	100	-1.5	0	0	962.7	NA	0.0000	-SN BR	4800	0	0	0	1510
2019/04/14 09:55:00	BASE	8.99	274	11.27	287	-1.5	100	-1.5	0	0	962.7	NA	0.0000	-SN BR	5000	0	0	0	1540
2019/04/14 09:56:00	BASE	7.47	272	11.21	287	-1.4	100	-1.4	0	0	962.7	NA	0.0000	-SN BR	4700	0	0	0	1410
2019/04/14 09:57:00	BASE	6.54	273	11.21	287	-1.4	100	-1.4	0	0	962.7	NA	0.0000	-SN BR	4300	0	0	0	1250
2019/04/14 09:58:00	BASE	7.21	275	11.21	287	-1.4	100	-1.4	0	0	962.7	NA	0.0000	-SN BR	4100	0	0	0	890
2019/04/14 09:59:00	BASE	9.45	263	15.54	251	-1.3	100	-1.3	0	0	962.7	NA	0.0000	-SN BR	4200	0	0	0	750
2019/04/14 10:00:00	BASE	12.07	249	15.54	251	-1.3	100	-1.3	0	0	962.7	NA	0.0000	-SN BR	4800	0	0	0	890
2019/04/14 10:01:00	BASE	11.78	241	15.54	251	-1.3	100	-1.3	0	0	962.8	NA	0.0000	-SN BR	4100	0	0	0	660
2019/04/14 10:02:00	BASE	11.59	241	15.54	251	-1.3	100	-1.3	0	0	962.8	NA	0.0000	-SN BR	3100	0	0	0	790
2019/04/14 10:03:00	BASE	11.76	246	15.54	251	-1.3	100	-1.3	0	0	962.9	NA	0.0000	-SN BR	3200	0	0	0	750
2019/04/14 10:04:00	BASE	11.46	250	15.54	251	-1.4	100	-1.4	0	0	962.9	NA	0.0000	-SN BR	3400	0	0	0	750
2019/04/14 10:05:00	BASE	11.74	251	15.54	251	-1.5	100	-1.5	0	0	962.9	NA	0.0000	-SN BR	3600	0	0	0	890
2019/04/14 10:06:00	BASE	12.11	251	15.54	251	-1.5	100	-1.5	0	0	962.9	NA	0.0000	-SN BR	3500	0	0	0	1080
2019/04/14 10:07:00	BASE	13.14	252	15.54	251	-1.6	100	-1.6	0	0	962.9	NA	0.0000	-SN BR	4300	0	0	0	1540
2019/04/14 10:08:00	BASE	14.04	251	15.54	251	-1.7	100	-1.7	0	0	963.0	NA	0.0000	-SN BR	4800	0	0	0	1740
2019/04/14 10:09:00	BASE	13.24	252	14.87	257	-1.8	100	-1.8	0	0	963.0	NA	0.0000	-SN BR	4200	0	0	0	1020
2019/04/14 10:10:00	BASE	11.74	254	14.87	257	-1.8	100	-1.8	0	0	963.1	NA	0.0000	-SN BR	4500	0	0	0	1080
2019/04/14 10:11:00	BASE	11.56	253	14.87	257	-1.8	100	-1.8	0	0	963.1	NA	0.0000	-SN BR	4000	0	0	0	1770
2019/04/14 10:12:00	BASE	11.77	252	14.87	257	-1.8	100	-1.8	0	0	963.1	NA	0.0000	-SN BR	4100	0	0	0	2130
2019/04/14 10:13:00	BASE	11.73	254	14.87	257	-1.8	100	-1.8	0	0	963.1	NA	0.0000	-SN BR	3900	0	0	0	1380
2019/04/14 10:14:00	BASE	12.20	255	14.87	257	-1.8	100	-1.8	0	0	963.2	NA	0.0000	-SN BR	3500	0	0	0	1440
2019/04/14 10:15:00	BASE	12.57	254	14.87	257	-1.9	100	-1.9	0	0	963.2	NA	0.0000	-SN BR	3700	0	0	0	2260
2019/04/14 10:16:00	BASE	12.84	253	14.87	257	-1.9	100	-1.9	0	0	963.2	NA	0.0000	-SN BR	4000	0	0	0	2300
2019/04/14 10:17:00	BASE	12.79	251	14.76	253	-2.0	100	-2.0	0	0	963.3	NA	0.0000	-SN BR	5000	0	0	0	2400
2019/04/14 10:18:00	BASE	11.31	251	14.76	253	-2.0	100	-2.0	0	0	963.3	NA	0.0000	-SN BR	5000	0	0	0	2430
2019/04/14 10:19:00	BASE	10.04	250	14.76	253	-2.0	100	-2.0	0	0	963.4	NA	0.0000	-SN BR	4100	0	0	0	2430
2019/04/14 10:20:00	BASE	9.64	248	14.76	253	-2.0	100	-2.0	0	0	963.4	NA	0.0000	-SN BR	3800	0	0	0	1350
2019/04/14 10:21:00	BASE	9.35	244	14.76	253	-1.9	100	-1.9	0	0	963.5	NA	0.0000	-SN BR	3900	0	0	0	2400
2019/04/14 10:22:00	BASE	9.85	245	14.76	253	-1.9	100	-1.9	0	0	963.5	NA	0.0000	-SN BR	4100	0	0	0	1570
2019/04/14 10:23:00	BASE	10.26	246	14.76	253	-1.9	100	-1.9	0	0	963.5	NA	0.0000	-SN BR	5000	300	0	0	0
2019/04/14 10:24:00	BASE	10.44	243	14.76	253	-1.8	100	-1.8	0	0	963.5	NA	0.0000	-SN BR	5000	330	2030	0	0
2019/04/14 10:25:00	BASE	9.65	241	14.66	250	-1.8	100	-1.8	0	0	963.5	NA	0.0000	-SN BR	6000	330	0	0	0
2019/04/14 10:26:00	BASE	8.26	242	14.04	252	-1.8	100	-1.8	0	0	963.6	NA	0.0000	-SN BR	6000	330	0	0	0
2019/04/14 10:27:00	BASE	9.04	244	12.50	254	-1.8	100	-1.8	0	0	963.6	NA	0.0000	-SN BR	7000	330	0	0	0
2019/04/14 10:28:00	BASE	10.69	244	12.50	254	-1.8	100	-1.8	0	0	963.6	NA	0.0000	-SN BR	9000	360	2460	0	0
2019/04/14 10:29:00	BASE	11.15	242	12.50	254	-1.8	100	-1.8	0	0	963.6	NA	0.0000	-SN BR	9999	360	0	0	0
2019/04/14 10:30:00	BASE	10.86	243	12.50	254	-1.9	100	-1.9	0	0	963.6	NA	0.0000	-SN BR	9999	360	0	0	0
2019/04/14 10:31:00	BASE	10.70	243	13.17	234	-1.9	100	-1.9	0	0	963.6	NA	0.0000	-SN BR	9999	360	0	0	0
2019/04/14 10:32:00	BASE	10.86	245	13.17	234	-1.9	100	-1.9	0	0	963.7	NA	0.0000	-SN BR	9999	390	0	0	0
2019/04/14 10:33:00	BASE	10.78	248	13.17	234	-1.8	100	-1.8	0	0	963.7	NA	0.0000	-SN BR	9999	1710	2300	0	0
2019/04/14 10:34:00	BASE	11.21	244	13.84	240	-1.8	100	-1.8	0	0	963.7	NA	0.0000	-SN BR	9999	1870	0	0	0
2019/04/14 10:35:00	BASE	12.37	241	14.51	251	-1.8	100	-1.8	0	0	963.7	NA	0.0000	-SN	9999	1870	0	0	0
2019/04/14 10:36:00	BASE	12.58	239	14.51	251	-1.8	100	-1.8	0	0	963.8	NA	0.0000	-SN	9999	1900	0	0	0
2019/04/14 10:37:00	BASE	12.66	239	14.82	245	-1.8	100	-1.8	0	0	963.7	NA	0.0000	-SN	9999	2230	0	0	0
2019/04/14 10:38:00	BASE	12.54	243	14.82	245	-1.7	100	-1.7	0	0	963.8	NA	0.0000	-SN	9999	2000	0	0	0
2019/04/14 10:39:00	BASE	11.72	247	14.82	245	-1.7	100	-1.7	0	0	963.9	NA	0.0000	-SN	9999	2000	0	0	0
2019/04/14 10:40:00	BASE	12.07	249	15.95	236	-1.7	100	-1.7	0	0	963.8	NA	0.0000	-SN	9999	2000	0	0	0
2019/04/14 10:41:00	BASE	13.11	250	15.95	236	-1.7	100	-1.7	0	0	963.9	NA	0.0000	-SN	9999	2000	0	0	0
2019/04/14 10:42:00	BASE	14.50	252	17.85	254	-1.7	100	-1.7	0	0	963.9	NA	0.0000		9999	2070	0	0	0
2019/04/14 10:43:00	BASE	14.84	251	17.85	254	-1.7	100	-1.7	0	0	963.9	NA	0.0000		9999	2100	0	0	0
2019/04/14 10:44:00	BASE	14.45	251	17.85	254	-1.7	100	-1.7	0	0	963.9	NA	0.0000		9999	2200	0	0	0
2019/04/14 10:45:00	BASE	14.80	250	17.85	254	-1.6	100	-1.6	0	0	964.0	NA	0.0000		9999	2130	0	0	0
2019/04/14 10:46:00	BASE	15.19	250	17.85	254	-1.6	100	-1.6	0	0	964.0	NA	0.0000		9999	2200	0	0	0
2019/04/14 10:47:00	BASE	15.04	252	17.85	254	-1.6	100	-1.6	0	0	964.0	NA	0.0000		9999	2230	0	0	0
2019/04/14 10:48:00	BASE	14.62	252	17.85	254	-1.6	100	-1.6	0	0	964.1	NA	0.0000		9999	2230	0	0	0
2019/04/14 10:49:00	BASE	13.96	249	17.85	254	-1.6	100	-1.6	0	0	964.1	NA	0.0000		9999	2070	0	0	0
2019/04/14 10:50:00	BASE	13.65	250	17.85	254	-1.5	100	-1.6	0	0	964.2	NA	0.0000		9999	2030	0	0	0
2019/04/14 10:51:00	BASE	13.87	255	17.85	254	-1.5	100	-1.6	0	0	964.2	NA	0.0000		9999	2000	0	0	0
2019/04/14 10:52:00	BASE	14.73	254	17.13	245	-1.5	99	-1.6	0	0	964.2	NA	0.0000		9999	2030	0	0	0
2019/04/14 10:53:00	BASE	14.52	251	17.13	245	-1.5	99	-1.7	0	0	964.2	NA	0.0000		9999	2030	0	0	0
2019/04/14 10:54:00	BASE	13.03	250	17.13	245	-1.5	98	-1.8	0	0	964.3	NA	0.0000		9999	1970	0	0	0
2019/04/14 10:55:00	BASE	12.94	251	17.85	260	-1.4	98	-1.8	0	0	964.3	NA	0.0000		9999	2030	2620	0	0
2019/04/14 10:56:00	BASE	13.86	251	17.85	260	-1.4	97	-1.8	0	0	964.3	NA	0.0000		9999	2070	2660	0	0
2019/04/14 10:57:00	BASE	14.49	253	17.85	260	-1.4	97	-1.8	0	0	964.3	NA	0.0000		9999	1940	2850	0	0
2019/04/14 10:58:00	BASE	15.05	255	17.85	260	-1.4	97	-1.8	0	0	964.4	NA	0.0000	-SN	9999	1970	2890	0	0
2019/04/14 10:59:00	BASE	15.89	254	18.62	250	-1.4	96	-1.9	0	0	964.4	NA	0.0000	-SN	9999	1940	0	0	0
2019/04/14 11:00:00	BASE	15.65	252	18.62	250	-1.4	96	-1.9	0	0	964.4	NA	0.0000	-SN	9999	1380	0	0	0
2019/04/14 11:01:00	BASE	15.82	252	18.62	250	-1.4	96	-2.0	0	0	964.5	NA	0.0000	-SN	9999	390	0	0	0
2019/04/14 11:02:00	BASE	15.50	251	18.62	250	-1.4	96	-2.0	0	0	964.5	NA	0.0000	-SN	9999	2000	0	0	0
2019/04/14 11:03:00	BASE	14.86	251	18.62	253	-1.4	96	-2.0	0	0	964.5	NA	0.0000	-SN	9999	1970	0	0	0
2019/04/14 11:04:00	BASE	15.97	250	18.88	243	-1.5	96	-2.1	0	0	964.5	NA	0.0000	-SN	9999	1870	0	0	0
2019/04/14 11:05:00	BASE	15.85	247	18.88	243	-1.5	95	-2.1	0	0	964.5	NA	0.0000	-SN	9999	430	0	0	0
2019/04/14 11:06:00	BASE	15.04	245	18.88	243	-1.5	95	-2.1	0	0	964.6	NA	0.0000	-SN	9999	1940	0	0	0
2019/04/14 11:07:00	BASE	15.11	247	18.88	243	-1.5	95	-2.2	0	0	964.6	NA	0.0000	-SN	9999	2030	0	0	0
2019/04/14 11:08:00	BASE	14.99	249	18.88	243	-1.5	95	-2.2	0	0	964.6	NA	0.0000	-SN	9999	2000	0	0	0
2019/04/14 11:09:00	BASE	14.69	250	18.88	243	-1.5	95	-2.2	0	0	964.6	NA	0.0000	-SN	9999	2070	0	0	0
2019/04/14 11:10:00	BASE	14.11	250	18.88	243	-1.5	94	-2.3	0	0	964.7	NA	0.0000	-SN	9999	2170	0	0	0
2019/04/14 11:11:00	BASE	13.92	248	18.88	243	-1.5	94	-2.3	0	0	964.7	NA	0.0000	-SN	9999	430	0	0	0
2019/04/14 11:12:00	BASE	13.75	248	18.88	243	-1.5	94	-2.3	0	0	964.8	NA	0.0000	-SN	9999	2260	0	0	0
2019/04/14 11:13:00	BASE	13.13	250	18.88	243	-1.5	94	-2.4	0	0	964.8	NA	0.0000	-SN	9999	2400	0	0	0
2019/04/14 11:14:00	BASE	13.33	252	18.06	243	-1.5	94	-2.4	0	0	964.8	NA	0.0000	-SN	9999	390	0	0	0
2019/04/14 11:15:00	BASE	13.35	247	18.06	243	-1.5	94	-2.4	0	0	964.8	NA	0.0000	-SN	9999	2330	0	0	0
2019/04/14 11:16:00	BASE	13.79	242	17.49	258	-1.5	94	-2.4	0	0	964.8	NA	0.0000	-SN	9999	2360	0	0	0
2019/04/14 11:17:00	BASE	14.09	245	17.49	258	-1.5	93	-2.4	0	0	964.9	NA	0.0000	-SN	9999	2260	0	0	0
2019/04/14 11:18:00	BASE	13.23	248	17.49	258	-1.5	93	-2.4	0	0	964.9	NA	0.0000	-SN	9999	2300	0	0	0
2019/04/14 11:19:00	BASE	13.25	249	17.49	258	-1.5	93	-2.4	0	0	964.9	NA	0.0000	-SN	9999	2330	0	0	0
2019/04/14 11:20:00	BASE	13.26	249	17.49	258	-1.5	93	-2.5	0	0	964.9	NA	0.0000	-SN	9999	2400	0	0	0
2019/04/14 11:21:00	BASE	12.98	251	17.49	258	-1.5	93	-2.5	0	0	965.0	NA	0.0000	-SN	9999	2460	0	0	0
2019/04/14 11:22:00	BASE	13.43	253	17.49	258	-1.5	93	-2.5	0	0	965.0	NA	0.0000	-SN	9999	2530	0	0	0
2019/04/14 11:23:00	BASE	13.20	250	17.49	258	-1.5	93	-2.5	1	0	965.0	NA	0.0000	-SN	9999	2460	0	0	0
2019/04/14 11:24:00	BASE	12.51	250	17.29	240	-1.5	93	-2.5	1	0	965.0	NA	0.0000	-SN	9999	2590	0	0	0
2019/04/14 11:25:00	BASE	12.17	250	17.29	240	-1.5	93	-2.5	1	0	965.1	NA	0.0000	-SN	9999	2490	0	0	0
2019/04/14 11:26:00	BASE	11.76	247	15.59	251	-1.5	93	-2.6	1	0	965.1	NA	0.0000	-SN	9999	2590	0	0	0
2019/04/14 11:27:00	BASE	11.48	248	15.59	251	-1.5	92	-2.6	1	0	965.1	NA	0.0000	-SN	9999	2660	0	0	0
2019/04/14 11:28:00	BASE	11.86	250	15.59	251	-1.5	92	-2.6	1	0	965.1	NA	0.0000	-SN	9999	2170	2690	0	0
2019/04/14 11:29:00	BASE	11.89	252	15.54	255	-1.5	92	-2.6	1	0	965.1	NA	0.0000	-SN	9999	2000	2820	0	0
2019/04/14 11:30:00	BASE	11.01	254	15.54	255	-1.5	92	-2.6	1	0	965.2	NA	0.0000	-SN	9999	1940	0	0	0
2019/04/14 11:31:00	BASE	10.84	251	15.28	249	-1.5	92	-2.5	1	0	965.2	NA	0.0000	-SN	9999	2230	0	0	0
2019/04/14 11:32:00	BASE	11.06	249	14.25	251	-1.5	93	-2.5	1	0	965.3	NA	0.0000	-SN	9999	2430	0	0	0
2019/04/14 11:33:00	BASE	10.93	248	14.10	243	-1.5	93	-2.5	1	0	965.3	NA	0.0000	-SN	9999	2530	0	0	0
2019/04/14 11:34:00	BASE	10.37	251	14.10	243	-1.4	93	-2.5	1	0	965.3	NA	0.0000	-SN	9999	2490	0	0	0
2019/04/14 11:35:00	BASE	10.61	254	13.94	253	-1.4	92	-2.5	1	0	965.3	NA	0.0000		9999	2590	0	0	0
2019/04/14 11:36:00	BASE	11.29	251	13.94	253	-1.4	92	-2.5	1	0	965.3	NA	0.0000		9999	2030	2660	0	0
2019/04/14 11:37:00	BASE	11.70	249	13.94	253	-1.5	92	-2.6	1	0	965.4	NA	0.0000		9999	2720	0	0	0
2019/04/14 11:38:00	BASE	11.39	249	13.58	258	-1.5	92	-2.6	1	0	965.4	NA	0.0000		9999	2760	0	0	0
2019/04/14 11:39:00	BASE	11.08	249	13.02	253	-1.5	92	-2.6	1	0	965.4	NA	0.0000		9999	2760	0	0	0
2019/04/14 11:40:00	BASE	10.03	252	13.02	253	-1.5	92	-2.7	1	0	965.4	NA	0.0000	-SN	9999	2660	0	0	0
2019/04/14 11:41:00	BASE	9.14	253	13.02	253	-1.5	91	-2.7	1	0	965.4	NA	0.0000		9999	2590	0	0	0
2019/04/14 11:42:00	BASE	9.51	251	13.02	253	-1.5	91	-2.7	1	0	965.4	NA	0.0000		9999	2790	0	0	0
2019/04/14 11:43:00	BASE	9.57	250	13.02	253	-1.5	91	-2.7	1	0	965.4	NA	0.0000		9999	2530	0	0	0
2019/04/14 11:44:00	BASE	8.85	252	13.02	253	-1.4	92	-2.6	1	0	965.5	NA	0.0000	-SN	9999	2260	2890	0	0
2019/04/14 11:45:00	BASE	8.12	255	13.02	253	-1.4	92	-2.6	1	0	965.6	NA	0.0000	-SN	9999	1940	2890	0	0
2019/04/14 11:46:00	BASE	8.27	257	13.02	253	-1.4	92	-2.5	1	0	965.6	NA	0.0000	-SN	9000	2030	0	0	0
2019/04/14 11:47:00	BASE	8.05	258	12.55	247	-1.4	93	-2.4	1	0	965.6	NA	0.0000	-SN	9999	1970	0	0	0
2019/04/14 11:48:00	BASE	8.60	258	12.30	249	-1.4	93	-2.4	1	0	965.6	NA	0.0000	-SN	9999	1940	0	0	0
2019/04/14 11:49:00	BASE	9.02	261	11.68	244	-1.4	93	-2.3	1	0	965.6	NA	0.0000	-SN	8000	1900	0	0	0
2019/04/14 11:50:00	BASE	8.87	261	11.68	244	-1.4	94	-2.3	2	0	965.6	NA	0.0000	-SN	9000	2100	0	0	0
2019/04/14 11:51:00	BASE	9.64	253	11.88	245	-1.4	94	-2.2	2	0	965.7	NA	0.0000	-SN	9999	2560	0	0	0
2019/04/14 11:52:00	BASE	9.58	252	11.88	245	-1.4	94	-2.3	2	0	965.7	NA	0.0000	-SN	9000	2230	0	0	0
2019/04/14 11:53:00	BASE	9.30	258	11.99	256	-1.4	94	-2.3	2	0	965.8	NA	0.0000	-SN BR	9999	3080	0	0	0
2019/04/14 11:54:00	BASE	9.55	262	11.99	256	-1.4	94	-2.3	3	0	965.8	NA	0.0000	-SN BR	9999	2620	3250	0	0
2019/04/14 11:55:00	BASE	9.79	261	11.99	256	-1.4	94	-2.3	3	0	965.8	NA	0.0000	-SN BR	9999	2400	0	0	0
2019/04/14 11:56:00	BASE	10.03	257	11.99	256	-1.4	94	-2.3	3	0	965.8	NA	0.0000	-SN BR	9999	2490	0	0	0
2019/04/14 11:57:00	BASE	9.14	261	11.99	256	-1.4	94	-2.3	3	0	965.8	NA	0.0000	-SN BR	9999	2230	0	0	0
2019/04/14 11:58:00	BASE	8.20	261	11.99	256	-1.4	93	-2.4	3	0	965.9	NA	0.0000	-SN BR	9999	2460	0	0	0
2019/04/14 11:59:00	BASE	8.71	258	12.86	250	-1.4	93	-2.4	3	0	965.9	NA	0.0000	-SN BR	9999	2130	0	0	0
2019/04/14 12:00:00	BASE	9.86	259	12.86	250	-1.4	93	-2.4	3	0	965.9	NA	0.0000	-SN BR	9999	2330	0	0	0
2019/04/14 12:01:00	BASE	9.66	256	12.86	250	-1.4	93	-2.4	3	0	966.0	NA	0.0000	-SN BR	9000	2330	0	0	0
2019/04/14 12:02:00	BASE	9.43	253	12.86	250	-1.4	93	-2.4	3	0	966.0	NA	0.0000	-SN BR	9000	2530	0	0	0
2019/04/14 12:03:00	BASE	10.47	251	12.86	250	-1.4	93	-2.4	3	0	966.0	NA	0.0000	-SN BR	9999	2330	0	0	0
2019/04/14 12:04:00	BASE	10.90	251	12.86	250	-1.4	93	-2.4	4	0	966.0	NA	0.0000	-SN BR	9999	2560	0	0	0
2019/04/14 12:05:00	BASE	10.67	249	12.86	250	-1.5	93	-2.5	4	0	966.0	NA	0.0000	-SN BR	9000	2790	0	0	0
2019/04/14 12:06:00	BASE	10.14	249	12.86	250	-1.5	92	-2.6	4	0	966.1	NA	0.0000	-SN BR	9999	2820	0	0	0
2019/04/14 12:07:00	BASE	9.41	251	12.86	250	-1.5	92	-2.6	4	0	966.1	NA	0.0000	-SN BR	9999	2990	0	0	0
2019/04/14 12:08:00	BASE	9.42	252	12.86	250	-1.5	91	-2.7	4	0	966.1	NA	0.0000	-SN BR	9999	3080	0	0	0
2019/04/14 12:09:00	BASE	10.08	251	12.35	252	-1.5	91	-2.7	5	0	966.1	NA	0.0000	-SN BR	9999	2490	0	0	0
2019/04/14 12:10:00	BASE	10.93	248	12.35	252	-1.5	91	-2.7	5	0	966.2	NA	0.0000	-SN BR	9999	2300	2990	0	0
2019/04/14 12:11:00	BASE	10.65	247	12.35	252	-1.5	91	-2.7	5	0	966.2	NA	0.0000	-SN BR	9000	2130	0	0	0
2019/04/14 12:12:00	BASE	10.13	247	12.35	252	-1.4	91	-2.7	5	0	966.2	NA	0.0000	-SN BR	9000	2100	0	0	0
2019/04/14 12:13:00	BASE	10.19	247	12.35	252	-1.5	91	-2.8	5	0	966.2	NA	0.0000	-SN BR	9000	2100	0	0	0
2019/04/14 12:14:00	BASE	9.96	247	12.35	252	-1.5	91	-2.8	5	0	966.2	NA	0.0000	-SN BR	9000	2030	2660	0	0
2019/04/14 12:15:00	BASE	9.49	250	12.35	252	-1.5	90	-2.8	5	0	966.2	NA	0.0000	-SN BR	9000	2000	2790	0	0
2019/04/14 12:16:00	BASE	10.10	252	12.35	252	-1.4	90	-2.8	5	0	966.2	NA	0.0000	-SN BR	9000	2030	0	0	0
2019/04/14 12:17:00	BASE	10.28	249	12.35	252	-1.5	90	-2.9	5	0	966.2	NA	0.0000	-SN BR	9000	2170	0	0	0
2019/04/14 12:18:00	BASE	8.54	249	12.35	252	-1.4	90	-2.9	6	0	966.2	NA	0.0000	-SN BR	9000	2330	0	0	0
2019/04/14 12:19:00	BASE	8.40	250	12.04	246	-1.4	90	-2.8	6	0	966.3	NA	0.0000	-SN BR	9000	1970	2690	0	0
2019/04/14 12:20:00	BASE	9.70	249	12.04	246	-1.4	90	-2.8	6	0	966.3	NA	0.0000	-SN BR	9000	2230	0	0	0
2019/04/14 12:21:00	BASE	10.03	248	12.04	246	-1.4	91	-2.8	6	0	966.4	NA	0.0000	-SN BR	9000	1870	0	0	0
2019/04/14 12:22:00	BASE	9.33	246	12.04	246	-1.4	91	-2.7	6	0	966.4	NA	0.0000	-SN BR	8000	1870	0	0	0
2019/04/14 12:23:00	BASE	8.75	248	12.04	246	-1.4	91	-2.7	5	0	966.4	NA	0.0000	-SN BR	7000	1970	0	0	0
2019/04/14 12:24:00	BASE	9.85	250	12.24	244	-1.4	91	-2.6	6	0	966.4	NA	0.0000	-SN BR	8000	2000	0	0	0
2019/04/14 12:25:00	BASE	10.94	248	12.24	244	-1.4	91	-2.6	6	0	966.4	NA	0.0000	-SN BR	9000	2200	0	0	0
2019/04/14 12:26:00	BASE	10.65	244	12.24	244	-1.4	91	-2.6	6	0	966.5	NA	0.0000	-SN BR	9000	2070	0	0	0
2019/04/14 12:27:00	BASE	10.34	242	12.24	244	-1.4	91	-2.7	6	0	966.5	NA	0.0000	-SN BR	9000	2000	0	0	0
2019/04/14 12:28:00	BASE	9.89	240	12.24	244	-1.4	91	-2.7	6	0	966.5	NA	0.0000	-SN BR	8000	2070	0	0	0
2019/04/14 12:29:00	BASE	9.69	241	12.24	244	-1.4	91	-2.7	6	0	966.5	NA	0.0000	-SN BR	7000	1900	0	0	0
2019/04/14 12:30:00	BASE	10.07	246	12.24	244	-1.4	91	-2.7	6	0	966.5	NA	0.0000	-SN BR	8000	1900	0	0	0
2019/04/14 12:31:00	BASE	10.18	250	12.24	244	-1.4	91	-2.7	7	0	966.6	NA	0.0000	-SN BR	7000	2000	0	0	0
2019/04/14 12:32:00	BASE	9.71	250	12.24	244	-1.4	92	-2.6	7	0	966.6	NA	0.0000	-SN BR	8000	1940	0	0	0
2019/04/14 12:33:00	BASE	9.51	246	12.24	244	-1.4	92	-2.6	8	0	966.6	NA	0.0000	-SN BR	9000	1940	0	0	0
2019/04/14 12:34:00	BASE	9.48	243	12.19	238	-1.4	92	-2.5	8	0	966.6	NA	0.0000	-SN BR	8000	1940	2760	0	0
2019/04/14 12:35:00	BASE	9.46	242	12.19	238	-1.4	92	-2.5	8	0	966.6	NA	0.0000	-SN BR	6000	2200	0	0	0
2019/04/14 12:36:00	BASE	9.92	242	12.19	238	-1.4	92	-2.5	9	0	966.6	NA	0.0000	-SN BR	5000	2230	0	0	0
2019/04/14 12:37:00	BASE	10.00	242	12.14	246	-1.4	92	-2.6	9	0	966.7	NA	0.0000	-SN BR	6000	2400	0	0	0
2019/04/14 12:38:00	BASE	10.49	243	12.14	246	-1.5	92	-2.6	9	0	966.7	NA	0.0000	-SN BR	9999	2130	0	0	0
2019/04/14 12:39:00	BASE	11.15	243	12.14	246	-1.5	92	-2.6	10	0	966.7	NA	0.0000	-SN BR	9000	2300	0	0	0
2019/04/14 12:40:00	BASE	10.24	239	12.04	246	-1.5	92	-2.6	10	0	966.7	NA	0.0000	-SN BR	8000	390	0	0	0
2019/04/14 12:41:00	BASE	8.49	243	12.04	246	-1.5	92	-2.6	11	0	966.7	NA	0.0000	-SN BR	7000	2530	0	0	0
2019/04/14 12:42:00	BASE	8.36	246	12.04	246	-1.5	92	-2.6	11	0	966.7	NA	0.0000	-SN BR	4600	1940	2660	0	0
2019/04/14 12:43:00	BASE	8.91	243	12.04	246	-1.5	92	-2.6	11	0	966.8	NA	0.0000	-SN BR	6000	1840	0	0	0
2019/04/14 12:44:00	BASE	9.10	243	12.04	246	-1.5	92	-2.6	12	0	966.8	NA	0.0000	-SN BR	9999	2070	0	0	0
2019/04/14 12:45:00	BASE	9.76	243	12.04	246	-1.5	92	-2.6	12	0	966.8	NA	0.0000	-SN BR	9000	2170	0	0	0
2019/04/14 12:46:00	BASE	9.02	238	12.04	246	-1.5	92	-2.6	13	0	966.9	NA	0.0000	-SN BR	8000	2330	0	0	0
2019/04/14 12:47:00	BASE	7.43	240	12.04	246	-1.5	92	-2.6	13	0	966.9	NA	0.0000	-SN BR	9999	2430	0	0	0
2019/04/14 12:48:00	BASE	6.87	246	11.88	245	-1.5	92	-2.6	13	0	967.0	NA	0.0000	-SN BR	9999	2460	0	0	0
2019/04/14 12:49:00	BASE	7.32	249	10.80	243	-1.5	92	-2.6	14	0	967.0	NA	0.0000	-SN BR	9999	2560	0	0	0
2019/04/14 12:50:00	BASE	8.07	249	10.80	243	-1.5	92	-2.6	15	0	967.0	NA	0.0000	-SN BR	9999	2660	0	0	0
2019/04/14 12:51:00	BASE	7.82	242	10.80	243	-1.5	92	-2.6	16	0	967.0	NA	0.0000	-SN BR	9999	2720	0	0	0
2019/04/14 12:52:00	BASE	7.83	241	10.80	243	-1.5	92	-2.6	16	0	967.0	NA	0.0000	-SN	9999	2790	0	0	0
2019/04/14 12:53:00	BASE	8.76	242	10.80	243	-1.5	92	-2.6	16	0	967.0	NA	0.0000	-SN	9999	2200	2790	0	0
2019/04/14 12:54:00	BASE	8.60	236	10.75	240	-1.5	92	-2.6	17	0	967.1	NA	0.0000	-SN	9999	2030	0	0	0
2019/04/14 12:55:01	BASE	8.34	232	10.80	230	-1.5	92	-2.6	17	0	967.1	NA	0.0000	-SN	9999	2890	0	0	0
2019/04/14 12:56:00	BASE	9.23	236	10.80	230	-1.5	92	-2.6	18	0	967.1	NA	0.0000		9999	2490	0	0	0
2019/04/14 12:57:00	BASE	9.17	238	10.80	230	-1.5	92	-2.7	19	0	967.1	NA	0.0000		9999	2660	0	0	0
2019/04/14 12:58:00	BASE	8.16	241	10.80	230	-1.5	91	-2.7	20	0	967.1	NA	0.0000		9999	2820	0	0	0
2019/04/14 12:59:00	BASE	8.38	245	10.80	230	-1.5	91	-2.8	21	0	967.1	NA	0.0000		9999	2530	0	0	0
2019/04/14 13:00:00	BASE	8.42	245	10.80	230	-1.5	90	-2.8	22	0	967.2	NA	0.0000		9999	2430	0	0	0
2019/04/14 13:01:00	BASE	7.89	245	10.80	230	-1.4	90	-2.8	24	0	967.2	NA	0.0000		9999	2100	3150	0	0
2019/04/14 13:02:00	BASE	8.89	242	11.88	244	-1.4	90	-2.9	25	0	967.2	NA	0.0000		9999	2070	3220	0	0
2019/04/14 13:03:00	BASE	9.57	240	11.88	244	-1.4	90	-2.8	25	0	967.2	NA	0.0000		9999	2400	3150	0	0
2019/04/14 13:04:00	BASE	9.46	238	11.88	244	-1.4	90	-2.8	24	0	967.2	NA	0.0000		9999	2230	3310	0	0
2019/04/14 13:05:00	BASE	9.59	239	11.88	244	-1.4	90	-2.8	23	0	967.2	NA	0.0000		9999	2300	3280	0	0
2019/04/14 13:06:00	BASE	9.39	240	11.88	244	-1.4	90	-2.8	23	0	967.3	NA	0.0000		9999	2460	3280	0	0
2019/04/14 13:07:00	BASE	8.77	240	11.88	244	-1.4	90	-2.8	23	0	967.3	NA	0.0000		9999	2430	0	0	0
2019/04/14 13:08:00	BASE	8.57	240	11.88	244	-1.4	90	-2.8	24	0	967.3	NA	0.0000		9999	2460	0	0	0
2019/04/14 13:09:00	BASE	8.98	241	11.88	244	-1.4	90	-2.8	25	0	967.3	NA	0.0000		9999	2560	3310	0	0
2019/04/14 13:10:00	BASE	8.93	245	11.88	244	-1.4	90	-2.8	25	0	967.3	NA	0.0000		9999	2620	3380	0	0
2019/04/14 13:11:00	BASE	8.91	247	11.88	244	-1.4	90	-2.8	25	0	967.3	NA	0.0000		9999	2590	3310	0	0
2019/04/14 13:12:00	BASE	8.72	248	11.21	239	-1.4	90	-2.8	25	0	967.4	NA	0.0000		9999	2990	0	0	0
2019/04/14 13:13:00	BASE	8.50	248	11.21	239	-1.4	90	-2.9	25	0	967.4	NA	0.0000		9999	2690	0	0	0
2019/04/14 13:14:00	BASE	8.45	249	11.21	239	-1.4	89	-2.9	25	0	967.4	NA	0.0000		9999	2790	3280	0	0
2019/04/14 13:15:00	BASE	8.14	249	10.80	250	-1.4	89	-2.9	25	0	967.4	NA	0.0000		9999	2890	0	0	0
2019/04/14 13:16:00	BASE	7.93	253	10.80	250	-1.4	89	-3.0	25	0	967.5	NA	0.0000		9999	2850	0	0	0
2019/04/14 13:17:00	BASE	7.70	252	10.80	250	-1.4	89	-3.0	25	0	967.5	NA	0.0000		9999	2950	0	0	0
2019/04/14 13:18:00	BASE	8.21	243	10.80	250	-1.4	89	-3.0	25	0	967.5	NA	0.0000		9999	2950	0	0	0
2019/04/14 13:19:00	BASE	8.46	242	10.80	250	-1.4	89	-3.0	25	0	967.6	NA	0.0000		9999	2950	0	0	0
2019/04/14 13:20:00	BASE	7.88	244	10.80	250	-1.4	88	-3.0	25	0	967.6	NA	0.0000		9999	2950	0	0	0
2019/04/14 13:21:00	BASE	7.99	245	10.08	237	-1.4	88	-3.1	25	0	967.6	NA	0.0000		9999	2950	0	0	0
2019/04/14 13:22:00	BASE	8.18	245	10.24	238	-1.4	88	-3.1	26	0	967.7	NA	0.0000		9999	3050	0	0	0
2019/04/14 13:23:00	BASE	9.05	241	10.55	246	-1.3	88	-3.1	26	0	967.7	NA	0.0000		9999	3050	0	0	0
2019/04/14 13:24:00	BASE	9.02	240	10.55	246	-1.3	88	-3.1	27	0	967.7	NA	0.0000		9999	3050	0	0	0
2019/04/14 13:25:00	BASE	8.39	239	10.55	246	-1.3	87	-3.1	28	0	967.7	NA	0.0000		9999	2990	0	0	0
2019/04/14 13:26:00	BASE	8.04	244	10.55	246	-1.3	87	-3.1	28	0	967.7	NA	0.0000		9999	2330	3020	0	0
2019/04/14 13:27:00	BASE	8.48	250	10.55	246	-1.2	87	-3.1	28	0	967.7	NA	0.0000		9999	3050	0	0	0
2019/04/14 13:28:00	BASE	8.88	246	10.55	246	-1.2	87	-3.1	28	0	967.8	NA	0.0000		9999	3150	0	0	0
2019/04/14 13:29:00	BASE	7.44	243	10.55	246	-1.2	87	-3.2	28	0	967.8	NA	0.0000		9999	3120	0	0	0
2019/04/14 13:30:00	BASE	7.23	243	10.55	246	-1.2	87	-3.1	28	0	967.8	NA	0.0000		9999	2890	0	0	0
2019/04/14 13:31:00	BASE	8.62	240	10.75	233	-1.2	87	-3.2	29	0	967.8	NA	0.0000		9999	3020	0	0	0
2019/04/14 13:32:00	BASE	9.33	239	10.75	233	-1.3	87	-3.2	29	0	967.8	NA	0.0000		9999	3120	0	0	0
2019/04/14 13:33:00	BASE	8.82	241	10.75	233	-1.2	87	-3.2	29	0	967.8	NA	0.0000		9999	3150	0	0	0
2019/04/14 13:34:00	BASE	8.50	241	10.75	233	-1.2	87	-3.2	29	0	967.8	NA	0.0000		9999	3220	0	0	0
2019/04/14 13:35:00	BASE	9.32	249	10.75	233	-1.2	86	-3.2	29	0	967.8	NA	0.0000		9999	3280	0	0	0
2019/04/14 13:36:00	BASE	9.78	258	10.75	233	-1.2	86	-3.2	29	0	967.9	NA	0.0000		9999	3280	0	0	0
2019/04/14 13:37:00	BASE	9.52	254	11.37	246	-1.2	86	-3.3	29	0	967.9	NA	0.0000		9999	3220	0	0	0
2019/04/14 13:38:00	BASE	8.65	249	11.37	246	-1.2	86	-3.2	29	0	967.9	NA	0.0000		9999	3120	0	0	0
2019/04/14 13:39:00	BASE	7.89	243	11.37	246	-1.2	86	-3.2	29	0	967.9	NA	0.0000		9999	3080	0	0	0
2019/04/14 13:40:00	BASE	7.32	240	11.37	246	-1.2	86	-3.2	29	0	967.9	NA	0.0000		9999	2790	0	0	0
2019/04/14 13:41:00	BASE	6.99	244	11.37	246	-1.2	86	-3.2	29	0	967.9	NA	0.0000		9999	2990	0	0	0
2019/04/14 13:42:00	BASE	7.72	247	11.37	246	-1.2	86	-3.2	29	0	967.9	NA	0.0000		9999	3220	0	0	0
2019/04/14 13:43:00	BASE	8.45	247	11.37	246	-1.2	86	-3.2	28	0	967.9	NA	0.0000		9999	3150	0	0	0
2019/04/14 13:44:00	BASE	8.92	247	11.37	246	-1.2	86	-3.2	27	0	968.0	NA	0.0000		9999	2890	0	0	0
2019/04/14 13:45:00	BASE	8.61	251	11.37	246	-1.2	86	-3.3	26	0	968.1	NA	0.0000		9999	2950	0	0	0
2019/04/14 13:46:00	BASE	8.00	254	11.37	246	-1.2	86	-3.3	26	0	968.1	NA	0.0000		9999	2820	0	0	0
2019/04/14 13:47:00	BASE	7.78	256	9.67	238	-1.2	85	-3.3	25	0	968.1	NA	0.0000		9999	2620	0	0	0
2019/04/14 13:48:00	BASE	8.36	258	10.55	256	-1.2	85	-3.4	24	0	968.1	NA	0.0000		9999	2720	0	0	0
2019/04/14 13:49:00	BASE	8.72	258	10.55	256	-1.2	85	-3.4	24	0	968.1	NA	0.0000		9999	2690	0	0	0
2019/04/14 13:50:01	BASE	7.91	259	10.55	256	-1.2	85	-3.4	24	0	968.2	NA	0.0000		9999	2690	0	0	0
2019/04/14 13:51:00	BASE	7.62	258	10.55	256	-1.2	85	-3.4	23	0	968.2	NA	0.0000		9999	2560	0	0	0
2019/04/14 13:52:00	BASE	7.43	260	10.55	256	-1.2	85	-3.4	23	0	968.2	NA	0.0000		9999	2560	0	0	0
2019/04/14 13:53:00	BASE	6.43	264	10.55	256	-1.2	85	-3.4	22	0	968.2	NA	0.0000		9999	2530	0	0	0
2019/04/14 13:54:00	BASE	6.01	263	10.55	256	-1.1	85	-3.3	20	0	968.3	NA	0.0000		9999	2530	0	0	0
2019/04/14 13:55:00	BASE	6.76	265	10.55	256	-1.1	85	-3.3	19	0	968.3	NA	0.0000		9999	2400	0	0	0
2019/04/14 13:56:00	BASE	7.91	267	10.55	256	-1.1	85	-3.3	18	0	968.3	NA	0.0000		9999	2330	0	0	0
2019/04/14 13:57:00	BASE	7.59	263	10.55	256	-1.1	85	-3.3	17	0	968.3	NA	0.0000		9999	2400	0	0	0
2019/04/14 13:58:00	BASE	6.52	260	9.52	263	-1.1	85	-3.3	17	0	968.3	NA	0.0000		9999	2260	0	0	0
2019/04/14 13:59:00	BASE	6.08	267	9.52	263	-1.1	85	-3.3	16	0	968.3	NA	0.0000		9999	2230	0	0	0
2019/04/14 14:00:00	BASE	5.48	279	9.52	263	-1.1	85	-3.4	17	0	968.3	NA	0.0000		9999	2330	0	0	0
2019/04/14 14:01:00	BASE	5.50	280	9.52	263	-1.1	85	-3.4	18	0	968.4	NA	0.0000		9999	2330	0	0	0
2019/04/14 14:02:00	BASE	5.34	270	9.52	263	-1.1	85	-3.3	20	0	968.4	NA	0.0000		9999	2260	0	0	0
2019/04/14 14:03:00	BASE	5.93	260	9.52	263	-1.1	85	-3.3	22	0	968.4	NA	0.0000		9999	2230	0	0	0
2019/04/14 14:04:00	BASE	6.49	259	9.52	263	-1.1	85	-3.3	24	0	968.4	NA	0.0000		9999	2330	0	0	0
2019/04/14 14:05:00	BASE	5.65	263	9.52	263	-1.1	85	-3.3	25	0	968.4	NA	0.0000		9999	2330	0	0	0
2019/04/14 14:06:00	BASE	5.95	270	8.85	260	-1.1	85	-3.3	25	0	968.4	NA	0.0000		9999	2330	0	0	0
2019/04/14 14:07:00	BASE	6.38	276	7.72	250	-1.1	85	-3.3	25	0	968.5	NA	0.0000		9999	2170	0	0	0
2019/04/14 14:08:00	BASE	6.19	271	7.72	250	-1.1	85	-3.3	24	0	968.5	NA	0.0000		9999	2230	0	0	0
2019/04/14 14:09:00	BASE	6.38	270	8.23	277	-1.1	85	-3.3	24	0	968.5	NA	0.0000		9999	2230	0	0	0
2019/04/14 14:10:00	BASE	7.60	271	10.49	283	-1.0	85	-3.2	25	0	968.5	NA	0.0000		9999	2330	0	0	0
2019/04/14 14:11:00	BASE	9.18	267	12.09	259	-1.0	85	-3.2	27	0	968.5	NA	0.0000		9999	2360	0	0	0
2019/04/14 14:12:00	BASE	10.66	261	13.38	256	-1.0	86	-3.1	28	0	968.5	NA	0.0000		9999	2460	0	0	0
2019/04/14 14:13:00	BASE	11.45	259	13.38	256	-1.0	86	-3.1	29	0	968.6	NA	0.0000		9999	2460	0	0	0
2019/04/14 14:14:00	BASE	11.28	259	13.38	256	-1.0	86	-3.1	30	0	968.6	NA	0.0000		9999	2430	0	0	0
2019/04/14 14:15:00	BASE	10.32	264	13.38	256	-1.1	86	-3.1	31	0	968.6	NA	0.0000		9999	2400	0	0	0
2019/04/14 14:16:00	BASE	9.06	272	13.38	256	-1.1	86	-3.1	31	0	968.7	NA	0.0000		9999	2360	0	0	0
2019/04/14 14:17:00	BASE	10.08	274	13.38	256	-1.0	86	-3.1	32	0	968.6	NA	0.0000		9999	2430	0	0	0
2019/04/14 14:18:00	BASE	10.96	274	13.38	256	-1.0	86	-3.1	34	0	968.7	NA	0.0000		9999	2430	0	0	0
2019/04/14 14:19:00	BASE	10.66	271	13.38	256	-1.0	86	-3.0	36	0	968.7	NA	0.0000		9999	2430	0	0	0
2019/04/14 14:20:00	BASE	10.69	273	13.38	256	-1.0	86	-3.0	38	0	968.7	NA	0.0000		9999	2490	0	0	0
2019/04/14 14:21:00	BASE	9.87	279	13.38	256	-1.0	86	-3.1	40	0	968.7	NA	0.0000		9999	2590	0	0	0
2019/04/14 14:22:00	BASE	9.36	280	13.27	276	-1.1	85	-3.2	43	0	968.8	NA	0.0000		9999	2720	0	0	0
2019/04/14 14:23:00	BASE	9.23	287	13.27	276	-1.1	85	-3.3	46	0	968.8	NA	0.0000		9999	2590	0	0	0
2019/04/14 14:24:00	BASE	8.82	292	13.27	276	-1.1	84	-3.4	49	0	968.8	NA	0.0000		9999	2760	0	0	0
2019/04/14 14:25:00	BASE	8.49	293	13.27	276	-1.1	84	-3.5	53	0	968.9	NA	0.0000		9999	2620	0	0	0
2019/04/14 14:26:00	BASE	8.26	294	13.27	276	-1.1	83	-3.6	58	0	968.9	NA	0.0000		9999	2760	0	0	0
2019/04/14 14:27:00	BASE	7.94	294	13.27	276	-1.0	83	-3.6	63	0	968.9	NA	0.0000		9999	2690	0	0	0
2019/04/14 14:28:00	BASE	8.18	291	13.27	276	-1.0	82	-3.7	68	0	968.9	NA	0.0000		9999	2690	0	0	0
2019/04/14 14:29:00	BASE	8.53	283	12.35	280	-1.0	82	-3.7	72	0	968.9	NA	0.0000		9999	2660	0	0	0
2019/04/14 14:30:00	BASE	8.91	279	11.11	280	-1.0	82	-3.6	75	0	969.0	NA	0.0000		9999	2790	0	0	0
2019/04/14 14:31:00	BASE	9.07	281	11.06	280	-0.9	82	-3.7	76	0	969.0	NA	0.0000		9999	2460	0	0	0
2019/04/14 14:32:00	BASE	8.36	276	10.60	286	-0.9	82	-3.7	77	0	969.0	NA	0.0000		9999	2530	0	0	0
2019/04/14 14:33:00	BASE	7.23	272	10.60	286	-0.9	81	-3.7	75	0	969.0	NA	0.0000		9999	2490	0	0	0
2019/04/14 14:34:00	BASE	7.29	276	10.60	286	-0.9	81	-3.7	72	0	969.1	NA	0.0000		9999	2530	0	0	0
2019/04/14 14:35:00	BASE	7.91	277	10.60	286	-0.9	81	-3.8	66	0	969.1	NA	0.0000		9999	2490	3120	0	0
2019/04/14 14:36:00	BASE	7.06	277	10.60	286	-0.9	81	-3.8	59	0	969.1	NA	0.0000		9999	2400	0	0	0
2019/04/14 14:37:00	BASE	6.74	283	10.60	286	-0.9	81	-3.8	54	0	969.1	NA	0.0000		9999	2330	0	0	0
2019/04/14 14:38:00	BASE	7.77	284	10.60	286	-0.9	81	-3.7	51	0	969.1	NA	0.0000		9999	2430	22770	0	0
2019/04/14 14:39:00	BASE	8.52	282	10.60	286	-0.9	81	-3.7	49	0	969.1	NA	0.0000		9999	2300	0	0	0
2019/04/14 14:40:00	BASE	8.58	282	10.60	286	-0.9	82	-3.6	48	0	969.2	NA	0.0000		9999	2430	0	0	0
2019/04/14 14:41:00	BASE	8.62	274	10.24	261	-0.9	82	-3.6	49	0	969.2	NA	0.0000		9999	2300	0	0	0
2019/04/14 14:42:00	BASE	8.96	261	10.34	261	-0.9	82	-3.6	49	0	969.2	NA	0.0000		9999	2530	0	0	0
2019/04/14 14:43:00	BASE	8.84	261	10.34	261	-0.9	82	-3.6	48	0	969.2	NA	0.0000		9999	2560	0	0	0
2019/04/14 14:44:00	BASE	8.08	264	10.34	261	-0.9	82	-3.6	46	0	969.2	NA	0.0000		9999	2460	0	0	0
2019/04/14 14:45:00	BASE	8.07	261	10.80	256	-1.0	82	-3.6	44	0	969.2	NA	0.0000		9999	2300	0	0	0
2019/04/14 14:46:00	BASE	8.07	265	10.80	256	-1.0	82	-3.6	43	0	969.2	NA	0.0000		9999	2300	0	0	0
2019/04/14 14:47:00	BASE	8.02	274	10.80	256	-1.0	82	-3.6	43	0	969.2	NA	0.0000		9999	2260	0	0	0
2019/04/14 14:48:00	BASE	8.68	277	10.80	256	-0.9	83	-3.5	43	0	969.3	NA	0.0000		9999	2260	0	0	0
2019/04/14 14:49:00	BASE	9.18	274	10.80	256	-0.9	83	-3.5	42	0	969.3	NA	0.0000		9999	2230	0	0	0
2019/04/14 14:50:00	BASE	8.35	270	10.80	256	-0.9	83	-3.4	41	0	969.3	NA	0.0000		9999	2230	0	0	0
2019/04/14 14:51:00	BASE	7.31	267	10.80	256	-0.9	83	-3.4	41	0	969.4	NA	0.0000		9999	2170	0	0	0
2019/04/14 14:52:00	BASE	7.31	259	10.80	256	-0.9	84	-3.3	43	0	969.5	NA	0.0000		9999	2030	0	0	0
2019/04/14 14:53:00	BASE	8.27	254	10.80	256	-0.9	84	-3.2	44	0	969.5	NA	0.0000		9999	2200	0	0	0
2019/04/14 14:54:00	BASE	9.39	260	11.68	258	-0.9	85	-3.1	44	0	969.5	NA	0.0000		9999	2760	0	0	0
2019/04/14 14:55:00	BASE	8.91	263	11.68	258	-0.9	85	-3.1	44	0	969.5	NA	0.0000		9999	2660	0	0	0
2019/04/14 14:56:00	BASE	7.97	264	11.68	258	-1.0	85	-3.1	44	0	969.5	NA	0.0000		9999	2620	0	0	0
2019/04/14 14:57:00	BASE	8.31	263	11.68	258	-1.0	85	-3.1	43	0	969.5	NA	0.0000		9999	2790	0	0	0
2019/04/14 14:58:00	BASE	8.64	265	11.68	258	-1.0	85	-3.2	42	0	969.6	NA	0.0000		9999	2720	0	0	0
2019/04/14 14:59:00	BASE	8.22	269	11.68	258	-1.0	85	-3.2	41	0	969.6	NA	0.0000		9999	2430	0	0	0
2019/04/14 15:00:00	BASE	8.39	270	11.68	258	-1.0	85	-3.2	42	0	969.7	NA	0.0000		9999	2460	0	0	0
2019/04/14 15:01:00	BASE	8.28	271	11.68	258	-1.0	86	-3.1	44	0	969.7	NA	0.0000		9999	2460	0	0	0
2019/04/14 15:02:00	BASE	8.44	271	11.68	258	-1.0	86	-3.1	45	0	969.7	NA	0.0000		9999	2620	0	0	0
2019/04/14 15:03:00	BASE	9.40	270	12.30	270	-1.0	86	-3.1	45	0	969.7	NA	0.0000		9999	2070	2690	0	0
2019/04/14 15:04:00	BASE	10.53	262	13.02	255	-1.0	86	-3.1	45	0	969.7	NA	0.0000		9999	2590	0	0	0
2019/04/14 15:05:00	BASE	10.49	259	13.02	255	-1.0	86	-3.1	43	0	969.8	NA	0.0000		9999	2400	0	0	0
2019/04/14 15:06:00	BASE	10.37	259	13.02	255	-1.0	86	-3.1	43	0	969.8	NA	0.0000		9999	2560	0	0	0
2019/04/14 15:07:00	BASE	10.75	257	13.02	255	-1.0	86	-3.1	41	0	969.8	NA	0.0000		9999	2590	0	0	0
2019/04/14 15:08:00	BASE	9.71	260	13.02	255	-1.1	86	-3.1	40	0	969.8	NA	0.0000		9999	2560	0	0	0
2019/04/14 15:09:00	BASE	8.94	260	13.02	255	-1.1	86	-3.1	38	0	969.8	NA	0.0000		9999	2490	0	0	0
2019/04/14 15:10:00	BASE	9.50	257	13.02	255	-1.1	86	-3.1	37	0	969.8	NA	0.0000		9999	2460	0	0	0
2019/04/14 15:11:00	BASE	9.29	255	13.02	255	-1.1	86	-3.1	36	0	969.8	NA	0.0000		9999	2430	0	0	0
2019/04/14 15:12:00	BASE	8.79	253	13.02	255	-1.0	86	-3.1	35	0	969.9	NA	0.0000		9999	1710	0	0	0
2019/04/14 15:13:00	BASE	9.53	251	13.02	255	-1.0	86	-3.1	35	0	969.9	NA	0.0000		9999	2260	0	0	0
2019/04/14 15:14:00	BASE	9.84	249	12.60	253	-1.0	86	-3.1	36	0	969.9	NA	0.0000		9999	2170	0	0	0
2019/04/14 15:15:00	BASE	9.31	249	12.60	253	-1.1	86	-3.1	36	0	969.9	NA	0.0000		9999	1350	0	0	0
2019/04/14 15:16:00	BASE	8.78	251	12.09	263	-1.1	86	-3.2	35	0	970.0	NA	0.0000		9999	620	0	0	0
2019/04/14 15:17:00	BASE	8.94	255	11.42	257	-1.1	86	-3.2	37	0	970.0	NA	0.0000		9999	2100	0	0	0
2019/04/14 15:18:00	BASE	8.56	258	11.42	257	-1.1	86	-3.2	39	0	970.1	NA	0.0000		9999	690	2260	0	0
2019/04/14 15:19:00	BASE	8.21	259	11.11	265	-1.1	86	-3.2	42	0	970.1	NA	0.0000		9999	2200	0	0	0
2019/04/14 15:20:00	BASE	9.07	258	11.11	265	-1.1	86	-3.1	46	0	970.1	NA	0.0000		9999	520	2400	0	0
2019/04/14 15:21:00	BASE	9.26	264	12.24	271	-1.1	87	-3.0	50	0	970.1	NA	0.0000		9999	2330	0	0	0
2019/04/14 15:22:00	BASE	9.30	272	12.24	271	-1.1	87	-3.0	53	0	970.0	NA	0.0000		9999	2490	0	0	0
2019/04/14 15:23:00	BASE	9.94	274	12.24	271	-1.2	88	-2.9	54	0	970.1	NA	0.0000		9999	2430	0	0	0
2019/04/14 15:24:00	BASE	10.28	274	13.38	281	-1.2	89	-2.8	54	0	970.2	NA	0.0000		9999	2330	0	0	0
2019/04/14 15:25:00	BASE	11.14	275	13.58	280	-1.2	89	-2.7	52	0	970.2	NA	0.0000		9999	2170	0	0	0
2019/04/14 15:26:00	BASE	10.14	272	13.58	280	-1.2	90	-2.6	49	0	970.2	NA	0.0000		9999	1840	0	0	0
2019/04/14 15:27:00	BASE	9.94	266	15.64	263	-1.1	91	-2.4	48	0	970.2	NA	0.0000		9999	1380	0	0	0
2019/04/14 15:28:00	BASE	11.36	265	15.64	263	-1.1	92	-2.3	48	0	970.2	NA	0.0000		9999	1510	2360	0	0
2019/04/14 15:29:00	BASE	10.94	268	15.64	263	-1.2	93	-2.1	47	0	970.3	NA	0.0000		9999	1570	0	0	0
2019/04/14 15:30:00	BASE	11.20	268	15.64	263	-1.2	94	-2.0	46	0	970.3	NA	0.0000		9999	1310	0	0	0
2019/04/14 15:31:00	BASE	12.16	263	15.64	263	-1.2	95	-1.9	46	0	970.3	NA	0.0000		9999	1150	0	0	0
2019/04/14 15:32:00	BASE	11.55	263	15.64	263	-1.3	96	-1.8	46	0	970.3	NA	0.0000		9999	2300	0	0	0
2019/04/14 15:33:00	BASE	10.30	266	15.64	263	-1.3	97	-1.7	45	0	970.4	NA	0.0000		9999	2130	0	0	0
2019/04/14 15:34:00	BASE	10.03	267	15.64	263	-1.3	98	-1.6	43	0	970.4	NA	0.0000		9999	620	0	0	0
2019/04/14 15:35:00	BASE	9.69	265	15.64	263	-1.3	99	-1.5	38	0	970.4	NA	0.0000		9999	360	2070	0	0
2019/04/14 15:36:00	BASE	9.83	267	15.64	263	-1.4	99	-1.5	37	0	970.4	NA	0.0000		9999	390	0	0	0
2019/04/14 15:37:00	BASE	10.26	267	15.54	257	-1.4	100	-1.5	38	0	970.4	NA	0.0000		9999	660	0	0	0
2019/04/14 15:38:00	BASE	11.26	256	15.54	257	-1.5	100	-1.5	40	0	970.4	NA	0.0000		9999	460	0	0	0
2019/04/14 15:39:00	BASE	11.90	254	15.54	257	-1.5	100	-1.5	41	0	970.5	NA	0.0000		9999	460	1770	0	0
2019/04/14 15:40:00	BASE	11.84	256	15.54	257	-1.5	100	-1.5	42	0	970.5	NA	0.0000		9999	520	0	0	0
2019/04/14 15:41:00	BASE	10.48	258	13.84	253	-1.5	100	-1.5	44	0	970.6	NA	0.0000		9999	430	0	0	0
2019/04/14 15:42:00	BASE	9.31	261	13.84	253	-1.5	100	-1.5	47	0	970.6	NA	0.0000		9999	430	0	0	0
2019/04/14 15:43:00	BASE	10.75	260	13.84	253	-1.5	100	-1.5	49	0	970.6	NA	0.0000		9999	430	0	0	0
2019/04/14 15:44:00	BASE	11.26	262	13.84	253	-1.5	100	-1.5	48	0	970.6	NA	0.0000		9999	460	0	0	0
2019/04/14 15:45:00	BASE	10.34	268	13.84	253	-1.6	100	-1.6	47	0	970.6	NA	0.0000		9999	660	0	0	0
2019/04/14 15:46:00	BASE	10.23	268	13.84	253	-1.6	100	-1.6	43	0	970.6	NA	0.0000		9999	660	0	0	0
2019/04/14 15:47:00	BASE	10.63	270	13.84	253	-1.6	100	-1.6	40	0	970.6	NA	0.0000		9999	1210	0	0	0
2019/04/14 15:48:00	BASE	10.21	271	13.79	250	-1.6	100	-1.6	41	0	970.7	NA	0.0000		9999	1150	0	0	0
2019/04/14 15:49:00	BASE	9.77	267	13.79	250	-1.6	100	-1.6	44	0	970.8	NA	0.0000		9999	1210	0	0	0
2019/04/14 15:50:00	BASE	10.88	263	14.35	266	-1.6	100	-1.6	45	0	970.7	NA	0.0000		9999	1350	0	0	0
2019/04/14 15:51:00	BASE	11.95	259	14.82	260	-1.5	100	-1.5	44	0	970.8	NA	0.0000		9999	560	1940	0	0
2019/04/14 15:52:00	BASE	12.04	256	14.82	260	-1.5	100	-1.5	39	0	970.8	NA	0.0000		9999	390	0	0	0
2019/04/14 15:53:00	BASE	11.59	254	14.82	260	-1.5	100	-1.5	37	0	970.8	NA	0.0000		8000	260	0	0	0
2019/04/14 15:54:00	BASE	10.80	252	14.82	260	-1.5	100	-1.5	35	0	970.9	NA	0.0000	UP	7000	260	0	0	0
2019/04/14 15:55:00	BASE	9.87	250	14.82	260	-1.5	100	-1.5	34	0	970.9	NA	0.0000	UP	7000	330	0	0	0
2019/04/14 15:56:00	BASE	10.67	252	14.82	260	-1.5	100	-1.5	36	0	970.9	NA	0.0000	UP	8000	430	0	0	0
2019/04/14 15:57:00	BASE	11.68	259	14.82	260	-1.6	100	-1.6	39	0	970.8	NA	0.0000	UP BR	9999	1250	0	0	0
2019/04/14 15:58:00	BASE	11.05	266	14.82	260	-1.6	100	-1.6	41	0	970.9	NA	0.0000	UP BR	9999	490	0	0	0
2019/04/14 15:59:00	BASE	11.27	272	14.82	260	-1.6	100	-1.6	46	0	970.9	NA	0.0000	UP BR	9999	430	0	0	0
2019/04/14 16:00:00	BASE	12.22	268	14.82	260	-1.7	100	-1.7	48	0	970.9	NA	0.0000	UP BR	9999	460	0	0	0
2019/04/14 16:01:00	BASE	11.75	263	14.71	252	-1.7	100	-1.7	50	0	970.9	NA	0.0000	UP BR	9999	560	0	0	0
2019/04/14 16:02:00	BASE	10.53	263	14.71	252	-1.6	100	-1.6	52	0	970.9	NA	0.0000	UP BR	9999	950	0	0	0
2019/04/14 16:03:00	BASE	10.29	263	14.71	252	-1.6	100	-1.6	53	0	971.0	NA	0.0000		9999	1740	0	0	0
2019/04/14 16:04:00	BASE	10.89	266	14.82	263	-1.5	100	-1.6	55	0	971.0	NA	0.0000		9999	1900	0	0	0
2019/04/14 16:05:00	BASE	11.23	265	14.82	263	-1.5	100	-1.5	55	0	971.0	NA	0.0000		9999	2030	0	0	0
2019/04/14 16:06:00	BASE	11.97	267	15.84	271	-1.5	100	-1.5	55	0	971.0	NA	0.0000		9999	2100	0	0	0
2019/04/14 16:07:00	BASE	12.46	271	15.84	271	-1.5	100	-1.5	56	0	971.0	NA	0.0000		9999	1380	2200	0	0
2019/04/14 16:08:00	BASE	11.84	272	15.84	271	-1.5	100	-1.5	59	0	971.0	NA	0.0000		9999	750	2260	0	0
2019/04/14 16:09:00	BASE	12.67	277	16.05	274	-1.5	100	-1.5	59	0	971.0	NA	0.0000		9999	690	0	0	0
2019/04/14 16:10:00	BASE	13.00	275	16.05	274	-1.5	100	-1.5	59	0	971.1	NA	0.0000		9999	1020	2260	0	0
2019/04/14 16:11:00	BASE	12.56	271	16.05	274	-1.5	100	-1.5	60	0	971.1	NA	0.0000		9999	890	2400	0	0
2019/04/14 16:12:00	BASE	12.49	270	16.05	274	-1.5	100	-1.5	61	0	971.1	NA	0.0000		9999	750	1870	0	0
2019/04/14 16:13:00	BASE	11.87	273	16.05	274	-1.6	100	-1.6	61	0	971.2	NA	0.0000		9999	460	0	0	0
2019/04/14 16:14:00	BASE	11.82	275	16.82	269	-1.6	100	-1.6	61	0	971.2	NA	0.0000		9999	1050	2070	0	0
2019/04/14 16:15:00	BASE	11.81	267	16.82	269	-1.6	100	-1.6	62	0	971.2	NA	0.0000		9999	1480	2000	0	0
2019/04/14 16:16:00	BASE	11.21	262	16.82	269	-1.6	100	-1.6	63	0	971.2	NA	0.0000		9999	690	0	0	0
2019/04/14 16:17:00	BASE	11.71	266	16.82	269	-1.5	100	-1.5	66	0	971.2	NA	0.0000		9999	1480	0	0	0
2019/04/14 16:18:00	BASE	11.91	269	16.82	269	-1.5	100	-1.5	68	0	971.2	NA	0.0000		9999	1770	2400	0	0
2019/04/14 16:19:00	BASE	11.56	267	16.82	269	-1.5	100	-1.5	70	0	971.2	NA	0.0000		9999	1610	2260	0	0
2019/04/14 16:20:00	BASE	12.01	269	16.82	269	-1.5	100	-1.5	71	0	971.2	NA	0.0000		9999	2360	0	0	0
2019/04/14 16:21:00	BASE	12.17	270	16.82	269	-1.5	100	-1.5	72	0	971.3	NA	0.0000		9999	2330	0	0	0
2019/04/14 16:22:00	BASE	11.42	271	16.82	269	-1.5	100	-1.5	73	0	971.3	NA	0.0000		9999	2850	0	0	0
2019/04/14 16:23:00	BASE	10.98	272	16.82	269	-1.5	100	-1.5	74	0	971.3	NA	0.0000		9999	2560	0	0	0
2019/04/14 16:24:00	BASE	12.29	274	16.41	278	-1.5	100	-1.5	75	0	971.3	NA	0.0000		9999	2590	0	0	0
2019/04/14 16:25:00	BASE	12.86	274	16.41	278	-1.5	100	-1.5	76	0	971.4	NA	0.0000		9999	2790	0	0	0
2019/04/14 16:26:00	BASE	12.76	276	16.41	278	-1.5	100	-1.5	76	0	971.4	NA	0.0000		9999	2720	0	0	0
2019/04/14 16:27:00	BASE	13.02	279	16.41	278	-1.5	100	-1.5	75	0	971.4	NA	0.0000		9999	2620	0	0	0
2019/04/14 16:28:00	BASE	13.57	278	16.41	278	-1.5	100	-1.6	74	0	971.4	NA	0.0000		9999	2690	0	0	0
2019/04/14 16:29:00	BASE	13.69	278	16.41	278	-1.6	100	-1.6	73	0	971.4	NA	0.0000		9999	2690	0	0	0
2019/04/14 16:30:00	BASE	13.68	278	16.51	275	-1.6	99	-1.6	72	0	971.5	NA	0.0000		9999	1510	0	0	0
2019/04/14 16:31:00	BASE	14.13	278	16.51	275	-1.6	99	-1.7	71	0	971.5	NA	0.0000		9999	2890	0	0	0
2019/04/14 16:32:00	BASE	14.07	280	16.51	275	-1.6	99	-1.7	70	0	971.5	NA	0.0000		9999	2890	0	0	0
2019/04/14 16:33:00	BASE	13.24	275	16.51	275	-1.5	99	-1.7	70	0	971.6	NA	0.0000		9999	1350	2400	0	0
2019/04/14 16:34:00	BASE	13.34	275	16.51	275	-1.5	99	-1.7	71	0	971.6	NA	0.0000		9999	1610	2590	0	0
2019/04/14 16:35:00	BASE	13.97	277	16.51	275	-1.5	99	-1.7	72	0	971.6	NA	0.0000		9999	620	0	0	0
2019/04/14 16:36:00	BASE	13.26	277	16.51	275	-1.5	98	-1.8	73	0	971.6	NA	0.0000		9999	2400	0	0	0
2019/04/14 16:37:00	BASE	13.14	279	16.51	275	-1.6	98	-1.8	74	0	971.7	NA	0.0000		9999	2430	0	0	0
2019/04/14 16:38:00	BASE	12.67	274	16.51	275	-1.6	98	-1.9	74	0	971.7	NA	0.0000		9999	1480	0	0	0
2019/04/14 16:39:00	BASE	12.05	272	16.51	275	-1.6	97	-1.9	74	0	971.7	NA	0.0000		9999	1210	2490	0	0
2019/04/14 16:40:00	BASE	12.24	275	16.15	284	-1.6	97	-1.9	72	0	971.8	NA	0.0000		9999	1640	0	0	0
2019/04/14 16:41:00	BASE	12.98	280	16.15	284	-1.5	97	-2.0	70	0	971.8	NA	0.0000		9999	590	0	0	0
2019/04/14 16:42:00	BASE	14.13	280	16.87	267	-1.5	97	-1.9	70	0	971.8	NA	0.0000		9999	1940	0	0	0
2019/04/14 16:43:00	BASE	13.76	278	16.87	267	-1.5	97	-2.0	69	0	971.8	NA	0.0000		9999	2070	0	0	0
2019/04/14 16:44:00	BASE	12.77	279	16.87	267	-1.5	97	-1.9	67	0	971.8	NA	0.0000		9999	1840	0	0	0
2019/04/14 16:45:00	BASE	12.61	278	16.87	267	-1.5	97	-1.9	66	0	971.9	NA	0.0000		9999	1840	0	0	0
2019/04/14 16:46:00	BASE	12.56	278	16.87	267	-1.5	97	-1.9	66	0	971.9	NA	0.0000		9999	1900	0	0	0
2019/04/14 16:47:00	BASE	12.98	276	16.87	267	-1.5	97	-2.0	66	0	971.9	NA	0.0000		9999	1570	0	0	0
2019/04/14 16:48:00	BASE	12.41	274	16.87	267	-1.5	97	-1.9	67	0	971.9	NA	0.0000		9999	1970	0	0	0
2019/04/14 16:49:00	BASE	11.29	268	16.87	267	-1.5	97	-1.9	68	0	972.0	NA	0.0000		9999	2000	0	0	0
2019/04/14 16:50:00	BASE	11.90	264	16.87	267	-1.5	97	-2.0	69	0	972.0	NA	0.0000		9999	2300	0	0	0
2019/04/14 16:51:00	BASE	11.71	268	16.87	267	-1.5	97	-2.0	71	0	972.0	NA	0.0000		9999	1280	0	0	0
2019/04/14 16:52:00	BASE	11.70	269	15.38	268	-1.6	97	-2.0	74	0	972.1	NA	0.0000		9999	1510	0	0	0
2019/04/14 16:53:00	BASE	12.65	274	15.38	270	-1.6	97	-2.0	75	0	972.1	NA	0.0000		9999	2070	0	0	0
2019/04/14 16:54:00	BASE	12.43	273	15.38	270	-1.6	97	-2.0	74	0	972.1	NA	0.0000		9999	2360	0	0	0
2019/04/14 16:55:00	BASE	12.15	267	15.38	270	-1.6	97	-2.0	72	0	972.1	NA	0.0000		9999	2590	0	0	0
2019/04/14 16:56:00	BASE	12.46	268	15.38	270	-1.6	97	-2.0	74	0	972.1	NA	0.0000		9999	2660	0	0	0
2019/04/14 16:57:00	BASE	12.81	273	15.48	271	-1.5	97	-2.0	76	0	972.1	NA	0.0000		9999	2620	0	0	0
2019/04/14 16:58:00	BASE	12.96	276	15.48	271	-1.5	97	-2.0	76	0	972.2	NA	0.0000		9999	2760	0	0	0
2019/04/14 16:59:00	BASE	13.58	277	15.95	281	-1.6	97	-1.9	75	0	972.2	NA	0.0000		9999	2790	0	0	0
2019/04/14 17:00:00	BASE	13.64	277	15.95	281	-1.6	97	-1.9	76	0	972.3	NA	0.0000		9999	2660	0	0	0
2019/04/14 17:01:00	BASE	12.64	276	15.95	281	-1.6	98	-1.9	77	0	972.3	NA	0.0000		9999	2400	0	0	0
2019/04/14 17:02:00	BASE	12.46	276	15.95	281	-1.6	98	-1.9	78	0	972.3	NA	0.0000		9999	2660	0	0	0
2019/04/14 17:03:00	BASE	12.69	275	15.95	281	-1.6	98	-1.9	79	0	972.4	NA	0.0000		9999	2490	0	0	0
2019/04/14 17:04:00	BASE	12.43	276	15.95	281	-1.7	98	-1.9	80	0	972.4	NA	0.0000		9999	2720	0	0	0
2019/04/14 17:05:00	BASE	12.84	277	15.95	281	-1.7	98	-1.9	80	0	972.4	NA	0.0000		9999	2720	0	0	0
2019/04/14 17:06:00	BASE	12.71	279	15.95	281	-1.6	98	-1.9	80	0	972.4	NA	0.0000		9999	2590	0	0	0
2019/04/14 17:07:00	BASE	11.91	281	15.95	281	-1.6	98	-1.9	80	0	972.5	NA	0.0000		9999	2720	0	0	0
2019/04/14 17:08:00	BASE	11.97	279	15.95	281	-1.6	98	-1.8	79	0	972.5	NA	0.0000		9999	2690	0	0	0
2019/04/14 17:09:00	BASE	12.32	276	14.92	267	-1.6	98	-1.8	77	0	972.5	NA	0.0000		9999	2560	0	0	0
2019/04/14 17:10:00	BASE	11.93	279	14.87	283	-1.6	99	-1.8	75	0	972.6	NA	0.0000		9999	2590	0	0	0
2019/04/14 17:11:00	BASE	11.97	283	14.87	283	-1.6	99	-1.7	74	0	972.6	NA	0.0000		9999	2790	0	0	0
2019/04/14 17:12:00	BASE	12.13	285	14.61	274	-1.6	99	-1.7	74	0	972.6	NA	0.0000		9999	2530	0	0	0
2019/04/14 17:13:00	BASE	11.83	284	14.61	274	-1.6	99	-1.7	73	0	972.7	NA	0.0000		9999	2720	0	0	0
2019/04/14 17:14:00	BASE	11.08	283	14.61	274	-1.6	99	-1.7	70	0	972.7	NA	0.0000		9999	2400	2950	0	0
2019/04/14 17:15:00	BASE	11.46	280	14.61	273	-1.6	100	-1.7	68	0	972.7	NA	0.0000		9999	1350	2430	0	0
2019/04/14 17:16:00	BASE	12.62	276	14.61	273	-1.7	100	-1.7	69	0	972.7	NA	0.0000		9999	1280	2360	0	0
2019/04/14 17:17:00	BASE	13.07	275	14.82	274	-1.7	100	-1.7	70	0	972.7	NA	0.0000		9999	2490	0	0	0
2019/04/14 17:18:00	BASE	12.65	277	14.82	274	-1.7	100	-1.7	70	0	972.7	NA	0.0000		9999	2130	0	0	0
2019/04/14 17:19:00	BASE	11.84	278	14.82	274	-1.8	100	-1.8	70	0	972.8	NA	0.0000		9999	2460	0	0	0
2019/04/14 17:20:00	BASE	11.69	277	14.82	274	-1.8	100	-1.8	71	0	972.8	NA	0.0000		9999	2560	0	0	0
2019/04/14 17:21:00	BASE	11.85	278	14.82	274	-1.8	100	-1.8	71	0	972.8	NA	0.0000		9999	2620	0	0	0
2019/04/14 17:22:00	BASE	12.46	280	14.82	274	-1.8	100	-1.8	71	0	972.8	NA	0.0000		9999	2660	0	0	0
2019/04/14 17:23:00	BASE	13.00	282	14.82	274	-1.8	100	-1.8	69	0	972.8	NA	0.0000		9999	2590	0	0	0
2019/04/14 17:24:00	BASE	12.66	283	14.82	274	-1.8	100	-1.8	66	0	972.9	NA	0.0000		9999	2620	0	0	0
2019/04/14 17:25:00	BASE	12.10	282	14.82	274	-1.8	100	-1.8	64	0	972.9	NA	0.0000		9999	2400	0	0	0
2019/04/14 17:26:00	BASE	11.08	284	14.82	274	-1.9	100	-1.9	63	0	972.9	NA	0.0000		9999	2560	0	0	0
2019/04/14 17:27:00	BASE	9.59	285	14.71	282	-1.9	100	-1.9	63	0	973.0	NA	0.0000		9999	620	2490	0	0
2019/04/14 17:28:00	BASE	9.60	286	14.71	282	-1.9	100	-1.9	64	0	973.0	NA	0.0000		9999	2330	0	0	0
2019/04/14 17:29:00	BASE	9.93	289	14.71	282	-1.9	100	-1.9	65	0	973.0	NA	0.0000		9999	2360	0	0	0
2019/04/14 17:30:00	BASE	9.59	287	14.71	282	-1.9	100	-1.9	65	0	973.0	NA	0.0000		9999	2460	0	0	0
2019/04/14 17:31:00	BASE	9.13	285	14.71	282	-1.9	100	-1.9	60	0	973.0	NA	0.0000		9999	1440	2460	0	0
2019/04/14 17:32:00	BASE	10.60	290	14.71	282	-1.8	100	-1.8	51	0	973.0	NA	0.0000		9999	1350	2260	0	0
2019/04/14 17:33:00	BASE	12.69	290	15.28	285	-1.8	100	-1.8	47	0	973.0	NA	0.0000		9999	620	0	0	0
2019/04/14 17:34:00	BASE	12.54	287	15.28	285	-1.8	100	-1.8	49	0	973.0	NA	0.0000		9999	850	0	0	0
2019/04/14 17:35:00	BASE	12.13	285	15.28	285	-1.7	100	-1.7	53	0	973.0	NA	0.0000		9999	1150	2260	0	0
2019/04/14 17:36:00	BASE	12.10	282	15.28	285	-1.7	100	-1.7	56	0	973.1	NA	0.0000		9999	2200	0	0	0
2019/04/14 17:37:00	BASE	11.81	279	15.28	285	-1.7	100	-1.7	56	0	973.1	NA	0.0000		9999	2000	0	0	0
2019/04/14 17:38:00	BASE	10.66	280	15.28	285	-1.7	100	-1.7	57	0	973.2	NA	0.0000		9999	1210	2530	0	0
2019/04/14 17:39:00	BASE	10.80	277	15.28	285	-1.7	100	-1.7	57	0	973.2	NA	0.0000		9999	790	2560	0	0
2019/04/14 17:40:00	BASE	11.75	275	15.28	285	-1.7	100	-1.7	58	0	973.2	NA	0.0000		9999	1180	2490	0	0
2019/04/14 17:41:00	BASE	11.33	277	15.28	285	-1.7	100	-1.7	60	0	973.2	NA	0.0000		9999	2620	21160	0	0
2019/04/14 17:42:00	BASE	11.34	275	15.28	285	-1.7	100	-1.7	61	0	973.2	NA	0.0000		9999	1250	0	0	0
2019/04/14 17:43:00	BASE	11.28	275	14.20	287	-1.7	100	-1.7	60	0	973.3	NA	0.0000		9999	2760	0	0	0
2019/04/14 17:44:00	BASE	11.49	278	14.15	273	-1.7	100	-1.7	59	0	973.3	NA	0.0000		9999	2720	0	0	0
2019/04/14 17:45:00	BASE	12.52	278	14.20	279	-1.7	100	-1.7	57	0	973.3	NA	0.0000		9999	660	0	0	0
2019/04/14 17:46:00	BASE	12.41	279	14.20	279	-1.7	100	-1.7	56	0	973.3	NA	0.0000		9999	490	2620	0	0
2019/04/14 17:47:00	BASE	11.04	278	14.20	279	-1.7	100	-1.7	55	0	973.4	NA	0.0000		9999	430	2590	0	0
2019/04/14 17:48:01	BASE	10.38	274	14.20	279	-1.7	100	-1.7	53	0	973.4	NA	0.0000		9999	430	0	0	0
2019/04/14 17:49:00	BASE	9.89	275	14.20	279	-1.8	100	-1.8	52	0	973.4	NA	0.0000		9999	490	0	0	0
2019/04/14 17:50:00	BASE	9.89	280	14.20	279	-1.8	100	-1.8	53	0	973.4	NA	0.0000		9999	460	0	0	0
2019/04/14 17:51:00	BASE	10.60	280	14.20	279	-1.8	100	-1.8	53	0	973.5	NA	0.0000		9999	950	0	0	0
2019/04/14 17:52:00	BASE	9.50	276	14.20	279	-1.8	100	-1.8	52	0	973.5	NA	0.0000		9999	980	0	0	0
2019/04/14 17:53:00	BASE	7.85	272	14.20	279	-1.8	100	-1.8	52	0	973.5	NA	0.0000		9999	1180	0	0	0
2019/04/14 17:54:00	BASE	7.06	272	14.20	279	-1.7	100	-1.7	51	0	973.5	NA	0.0000		9999	820	0	0	0
2019/04/14 17:55:00	BASE	7.27	266	13.99	278	-1.7	100	-1.7	48	0	973.5	NA	0.0000		9999	1020	2490	0	0
2019/04/14 17:56:00	BASE	7.87	262	12.14	278	-1.7	100	-1.7	46	0	973.5	NA	0.0000		9999	1280	0	0	0
2019/04/14 17:57:00	BASE	7.11	267	12.14	278	-1.7	100	-1.7	45	0	973.6	NA	0.0000		9999	1180	0	0	0
2019/04/14 17:58:00	BASE	7.14	271	12.14	278	-1.7	100	-1.7	46	0	973.5	NA	0.0000		9999	1280	2490	0	0
2019/04/14 17:59:00	BASE	8.08	273	12.14	278	-1.7	100	-1.7	46	0	973.5	NA	0.0000		9999	1410	2360	0	0
2019/04/14 18:00:00	BASE	9.35	273	12.71	274	-1.7	100	-1.7	47	0	973.6	NA	0.0000		9999	1310	0	0	0
2019/04/14 18:01:00	BASE	10.73	276	12.71	274	-1.7	100	-1.7	49	0	973.5	NA	0.0000		9999	1410	0	0	0
2019/04/14 18:02:00	BASE	9.85	275	12.71	274	-1.7	100	-1.7	51	0	973.6	NA	0.0000		9999	1310	0	0	0
2019/04/14 18:03:00	BASE	8.91	273	12.71	274	-1.7	100	-1.7	52	0	973.6	NA	0.0000		9999	2560	0	0	0
2019/04/14 18:04:00	BASE	9.27	278	12.71	274	-1.7	100	-1.7	52	0	973.6	NA	0.0000		9999	2560	0	0	0
2019/04/14 18:05:00	BASE	9.64	277	12.71	274	-1.7	100	-1.7	53	0	973.6	NA	0.0000		9999	1180	0	0	0
2019/04/14 18:06:00	BASE	10.02	275	12.71	274	-1.7	100	-1.7	54	0	973.6	NA	0.0000		9999	2490	0	0	0
2019/04/14 18:07:00	BASE	10.38	277	12.71	274	-1.7	100	-1.7	55	0	973.6	NA	0.0000		9999	2430	0	0	0
2019/04/14 18:08:00	BASE	9.74	280	12.71	274	-1.7	100	-1.7	58	0	973.7	NA	0.0000		9999	2560	3540	0	0
2019/04/14 18:09:00	BASE	10.23	285	13.02	290	-1.7	100	-1.7	61	0	973.7	NA	0.0000		9999	2620	0	0	0
2019/04/14 18:10:00	BASE	10.85	288	13.02	290	-1.7	100	-1.7	63	0	973.7	NA	0.0000		9999	1080	2460	0	0
2019/04/14 18:11:00	BASE	10.35	285	13.02	290	-1.6	100	-1.6	65	0	973.7	NA	0.0000		9999	950	0	0	0
2019/04/14 18:12:00	BASE	11.05	283	13.02	290	-1.6	100	-1.6	67	0	973.7	NA	0.0000		9999	1120	2850	0	0
2019/04/14 18:13:00	BASE	10.88	286	13.02	290	-1.6	100	-1.6	68	0	973.7	NA	0.0000		9999	1120	2170	0	0
2019/04/14 18:14:00	BASE	10.64	289	13.02	290	-1.6	100	-1.6	70	0	973.8	NA	0.0000		9999	2590	0	0	0
2019/04/14 18:15:00	BASE	10.75	287	13.02	290	-1.6	100	-1.6	71	0	973.8	NA	0.0000		9999	2000	2950	0	0
2019/04/14 18:16:00	BASE	10.63	285	13.02	290	-1.7	100	-1.7	72	0	973.8	NA	0.0000		9999	1970	0	0	0
2019/04/14 18:17:00	BASE	10.27	287	13.02	290	-1.7	100	-1.7	73	0	973.8	NA	0.0000		9999	1770	0	0	0
2019/04/14 18:18:00	BASE	10.29	287	13.02	290	-1.7	100	-1.7	74	0	973.8	NA	0.0000		9999	1080	1710	0	0
2019/04/14 18:19:00	BASE	10.64	287	12.81	279	-1.7	100	-1.7	76	0	973.9	NA	0.0000		9999	1120	1840	0	0
2019/04/14 18:20:00	BASE	10.27	287	12.81	279	-1.8	100	-1.8	77	0	973.9	NA	0.0000		9999	1180	1800	0	0
2019/04/14 18:21:00	BASE	9.94	287	12.81	279	-1.8	100	-1.8	72	0	973.9	NA	0.0000		9999	890	2100	0	0
2019/04/14 18:22:00	BASE	9.41	287	12.55	284	-1.7	100	-1.7	65	0	973.9	NA	0.0000		9999	690	0	0	0
2019/04/14 18:23:00	BASE	9.49	290	12.55	284	-1.7	100	-1.7	67	0	973.9	NA	0.0000		8000	390	0	0	0
2019/04/14 18:24:00	BASE	9.51	294	12.55	284	-1.7	100	-1.7	70	0	973.9	NA	0.0000		6000	390	0	0	0
2019/04/14 18:25:00	BASE	9.46	291	12.55	284	-1.7	100	-1.7	67	0	973.9	NA	0.0000	UP	5000	330	0	0	0
2019/04/14 18:26:00	BASE	8.94	287	12.55	284	-1.7	100	-1.7	62	0	974.0	NA	0.0000	UP BR	4300	260	0	0	0
2019/04/14 18:27:00	BASE	7.81	288	12.55	284	-1.8	100	-1.8	57	0	973.9	NA	0.0000	UP BR	2800	230	0	0	0
2019/04/14 18:28:00	BASE	7.58	286	11.42	291	-1.8	100	-1.8	52	0	974.0	NA	0.0000	UP BR	1900	0	0	0	3020
2019/04/14 18:29:00	BASE	7.71	285	11.01	289	-1.8	100	-1.8	47	0	974.0	NA	0.0000	UP BR	1600	0	0	0	2030
2019/04/14 18:30:00	BASE	7.88	285	11.01	289	-1.8	100	-1.8	47	0	974.0	NA	0.0000	UP BR	1300	0	0	0	1840
2019/04/14 18:31:00	BASE	7.67	280	11.01	289	-1.8	100	-1.8	52	0	974.1	NA	0.0000	UP BR	1300	0	0	0	2000
2019/04/14 18:32:00	BASE	7.19	279	11.01	289	-1.9	100	-1.9	55	0	974.1	NA	0.0000	UP BR	1900	0	0	0	1180
2019/04/14 18:33:00	BASE	7.24	284	11.01	289	-1.9	100	-1.9	57	0	974.1	NA	0.0000	UP BR	2600	260	0	0	0
2019/04/14 18:34:00	BASE	7.65	286	11.01	289	-1.9	100	-1.9	58	0	974.1	NA	0.0000	UP BR	3000	230	0	0	0
2019/04/14 18:35:00	BASE	8.36	285	10.24	281	-1.9	100	-1.9	57	0	974.1	NA	0.0000	UP BR	3700	330	0	0	0
2019/04/14 18:36:00	BASE	9.02	282	10.44	286	-1.9	100	-1.9	57	0	974.1	NA	0.0000	UP BR	2700	0	0	0	2690
2019/04/14 18:37:00	BASE	8.43	281	10.44	286	-1.9	100	-1.9	56	0	974.2	NA	0.0000	UP BR	2100	0	0	0	2460
2019/04/14 18:38:00	BASE	7.73	279	10.44	286	-1.9	100	-1.9	58	0	974.2	NA	0.0000	UP BR	2000	0	0	0	2170
2019/04/14 18:39:00	BASE	7.87	281	10.44	286	-1.9	100	-1.9	60	0	974.2	NA	0.0000	UP BR	2600	0	0	0	2590
2019/04/14 18:40:00	BASE	7.69	283	10.44	286	-1.9	100	-1.9	58	0	974.2	NA	0.0000	UP BR	3300	1770	20380	0	0
2019/04/14 18:41:00	BASE	6.83	282	10.44	286	-1.9	100	-1.9	53	0	974.2	NA	0.0000	UP BR	3300	1380	0	0	0
2019/04/14 18:42:00	BASE	6.78	280	10.44	286	-1.9	100	-1.9	44	0	974.2	NA	0.0000	UP BR	3300	2000	2790	0	0
2019/04/14 18:43:00	BASE	7.37	279	10.44	286	-1.9	100	-1.9	38	0	974.3	NA	0.0000	UP BR	6000	1440	2820	0	0
2019/04/14 18:44:00	BASE	7.65	278	10.44	286	-1.9	100	-1.9	33	0	974.3	NA	0.0000	UP BR	9999	890	0	0	0
2019/04/14 18:45:00	BASE	7.71	278	10.44	286	-1.9	100	-1.9	33	0	974.2	NA	0.0000	UP BR	9999	790	0	0	0
2019/04/14 18:46:00	BASE	8.23	279	9.52	285	-1.9	100	-1.9	32	0	974.3	NA	0.0000	UP BR	9999	790	1710	0	0
2019/04/14 18:47:00	BASE	8.32	282	9.52	285	-1.9	100	-1.9	31	0	974.3	NA	0.0000	UP BR	9999	920	0	0	0
2019/04/14 18:48:00	BASE	8.20	283	9.67	289	-1.9	100	-1.9	32	0	974.3	NA	0.0000	BR	9999	690	0	0	0
2019/04/14 18:49:00	BASE	8.71	284	10.75	274	-1.8	100	-1.8	36	0	974.3	NA	0.0000	BR	9999	720	3280	0	0
2019/04/14 18:50:00	BASE	9.26	283	11.11	276	-1.8	100	-1.8	39	0	974.3	NA	0.0000	BR	9999	1940	3410	0	0
2019/04/14 18:51:00	BASE	9.77	282	11.11	276	-1.8	100	-1.8	42	0	974.3	NA	0.0000	BR	9999	1570	0	0	0
2019/04/14 18:52:00	BASE	10.11	286	11.42	290	-1.8	100	-1.8	46	0	974.3	NA	0.0000		9999	980	1800	0	0
2019/04/14 18:53:00	BASE	10.65	286	12.45	292	-1.8	100	-1.8	48	0	974.4	NA	0.0000		9999	1740	3080	0	0
2019/04/14 18:54:00	BASE	9.98	287	12.45	292	-1.9	100	-1.9	49	0	974.4	NA	0.0000		9999	1740	3150	0	0
2019/04/14 18:55:00	BASE	9.53	290	12.45	292	-1.9	100	-1.9	49	0	974.4	NA	0.0000		9999	2850	0	0	0
2019/04/14 18:56:00	BASE	10.44	289	12.60	288	-1.9	100	-1.9	49	0	974.3	NA	0.0000		9999	1080	3510	0	0
2019/04/14 18:57:00	BASE	11.14	288	12.60	288	-1.8	100	-1.8	49	0	974.4	NA	0.0000		9999	1410	3540	0	0
2019/04/14 18:58:00	BASE	10.64	287	12.60	288	-1.8	100	-1.8	47	0	974.4	NA	0.0000		9999	3310	0	0	0
2019/04/14 18:59:00	BASE	10.60	285	13.12	280	-1.8	100	-1.8	44	0	974.5	NA	0.0000		9999	1150	3410	0	0
2019/04/14 19:00:00	BASE	11.35	282	13.12	280	-1.8	100	-1.8	45	0	974.5	NA	0.0000		9999	1250	2070	0	0
2019/04/14 19:01:00	BASE	10.83	284	13.12	280	-1.8	100	-1.8	45	0	974.5	NA	0.0000		9999	4860	0	0	0
2019/04/14 19:02:00	BASE	10.43	281	13.12	280	-1.9	100	-1.9	44	0	974.6	NA	0.0000		9999	4790	0	0	0
2019/04/14 19:03:00	BASE	9.99	278	13.12	280	-1.9	100	-1.9	42	0	974.6	NA	0.0000		9999	4330	0	0	0
2019/04/14 19:04:00	BASE	10.03	276	13.12	280	-1.8	100	-1.8	42	0	974.6	NA	0.0000		9999	1900	0	0	0
2019/04/14 19:05:00	BASE	10.67	276	13.12	280	-1.8	100	-1.8	42	0	974.6	NA	0.0000		9999	1640	0	0	0
2019/04/14 19:06:00	BASE	10.57	279	13.12	280	-1.8	100	-1.8	42	0	974.7	NA	0.0000		9999	1640	0	0	0
2019/04/14 19:07:00	BASE	10.49	278	13.12	280	-1.8	100	-1.8	42	0	974.7	NA	0.0000		9999	1640	0	0	0
2019/04/14 19:08:00	BASE	10.36	282	13.12	280	-1.9	100	-1.9	42	0	974.7	NA	0.0000		9999	1640	2130	0	0
2019/04/14 19:09:00	BASE	9.89	287	13.02	290	-1.9	100	-1.9	41	0	974.7	NA	0.0000		9999	1870	0	0	0
2019/04/14 19:10:00	BASE	9.46	288	12.45	279	-1.9	100	-1.9	41	0	974.7	NA	0.0000		9999	2070	0	0	0
2019/04/14 19:11:00	BASE	10.01	286	12.45	279	-1.9	100	-1.9	41	0	974.8	NA	0.0000		9999	2170	0	0	0
2019/04/14 19:12:00	BASE	10.29	286	12.45	279	-1.9	100	-1.9	42	0	974.8	NA	0.0000		9999	1280	2100	0	0
2019/04/14 19:13:00	BASE	9.64	287	12.45	279	-1.9	100	-1.9	41	0	974.8	NA	0.0000		9999	2170	0	0	0
2019/04/14 19:14:00	BASE	9.20	287	12.45	279	-1.9	100	-1.9	42	0	974.8	NA	0.0000		9999	1480	2430	0	0
2019/04/14 19:15:00	BASE	10.00	283	12.24	276	-1.9	100	-1.9	42	0	974.8	NA	0.0000		9999	1440	0	0	0
2019/04/14 19:16:00	BASE	10.41	277	12.24	292	-1.9	100	-1.9	41	0	974.8	NA	0.0000		9999	2530	0	0	0
2019/04/14 19:17:00	BASE	9.98	274	12.24	292	-1.8	100	-1.8	39	0	974.8	NA	0.0000		9999	430	1970	0	0
2019/04/14 19:18:00	BASE	9.94	273	12.24	292	-1.8	100	-1.8	37	0	974.8	NA	0.0000		9999	1050	2300	0	0
2019/04/14 19:19:00	BASE	9.71	271	12.24	292	-1.8	100	-1.8	35	0	974.9	NA	0.0000		9999	1080	0	0	0
2019/04/14 19:20:00	BASE	9.69	271	12.24	272	-1.8	100	-1.8	34	0	974.9	NA	0.0000		9999	2360	2890	0	0
2019/04/14 19:21:00	BASE	9.54	272	12.24	272	-1.8	100	-1.8	32	0	975.0	NA	0.0000		9999	1670	2460	0	0
2019/04/14 19:22:00	BASE	8.90	274	12.24	272	-1.9	100	-1.9	30	0	975.0	NA	0.0000		9999	430	0	0	0
2019/04/14 19:23:00	BASE	7.68	280	12.24	272	-1.9	100	-1.9	29	0	975.0	NA	0.0000		9999	520	0	0	0
2019/04/14 19:24:00	BASE	7.45	285	12.24	272	-1.9	100	-1.9	28	0	975.0	NA	0.0000		9999	590	0	0	0
2019/04/14 19:25:00	BASE	8.91	284	12.24	272	-1.9	100	-1.9	28	0	975.1	NA	0.0000		9999	690	0	0	0
2019/04/14 19:26:00	BASE	8.98	283	12.24	272	-1.9	100	-1.9	29	0	975.1	NA	0.0000		9999	620	0	0	0
2019/04/14 19:27:00	BASE	8.26	281	12.24	272	-1.9	100	-1.9	28	0	975.1	NA	0.0000		9999	1120	2660	0	0
2019/04/14 19:28:00	BASE	8.10	270	12.24	272	-1.8	100	-1.8	27	0	975.2	NA	0.0000		9999	1610	0	0	0
2019/04/14 19:29:00	BASE	7.51	262	12.24	272	-1.8	100	-1.8	27	0	975.1	NA	0.0000		9999	1480	2300	0	0
2019/04/14 19:30:00	BASE	6.52	267	11.68	287	-1.7	100	-1.7	26	0	975.2	NA	0.0000		9999	1710	2300	0	0
2019/04/14 19:31:00	BASE	6.37	271	11.68	287	-1.7	100	-1.7	26	0	975.2	NA	0.0000		9999	1670	0	0	0
2019/04/14 19:32:00	BASE	8.03	275	11.68	287	-1.6	100	-1.7	25	0	975.2	NA	0.0000		9999	2130	0	0	0
2019/04/14 19:33:00	BASE	8.98	275	11.68	287	-1.6	100	-1.7	25	0	975.2	NA	0.0000		9999	2300	0	0	0
2019/04/14 19:34:00	BASE	9.14	273	11.01	284	-1.6	99	-1.8	24	0	975.2	NA	0.0000		9999	1020	0	0	0
2019/04/14 19:35:00	BASE	9.60	276	11.01	280	-1.7	99	-1.8	24	0	975.2	NA	0.0000		9999	490	2400	0	0
2019/04/14 19:36:00	BASE	9.17	263	11.01	280	-1.7	98	-1.9	23	0	975.2	NA	0.0000		9999	920	0	0	0
2019/04/14 19:37:00	BASE	9.52	258	11.88	256	-1.7	98	-2.0	24	0	975.3	NA	0.0000		9999	1410	2170	0	0
2019/04/14 19:38:00	BASE	9.37	265	11.88	256	-1.7	97	-2.0	24	0	975.3	NA	0.0000		9999	1410	0	0	0
2019/04/14 19:39:00	BASE	7.77	262	11.88	256	-1.6	97	-2.0	24	0	975.3	NA	0.0000		9999	2760	0	0	0
2019/04/14 19:40:00	BASE	7.83	261	11.88	256	-1.6	97	-2.0	23	0	975.4	NA	0.0000		9999	2000	2690	0	0
2019/04/14 19:41:00	BASE	7.31	266	11.88	256	-1.6	97	-2.1	22	0	975.4	NA	0.0000		9999	590	0	0	0
2019/04/14 19:42:00	BASE	6.17	264	11.88	256	-1.7	97	-2.1	20	0	975.4	NA	0.0000		9999	1050	0	0	0
2019/04/14 19:43:00	BASE	6.79	260	11.88	256	-1.7	97	-2.1	19	0	975.4	NA	0.0000		9999	1900	0	0	0
2019/04/14 19:44:00	BASE	6.87	262	11.88	256	-1.6	97	-2.1	19	0	975.4	NA	0.0000		9999	1970	0	0	0
2019/04/14 19:45:00	BASE	6.50	260	11.88	256	-1.6	97	-2.1	18	0	975.4	NA	0.0000		9000	390	2000	0	0
2019/04/14 19:46:00	BASE	6.67	264	11.88	256	-1.6	97	-2.0	18	0	975.4	NA	0.0000		9999	560	2030	0	0
2019/04/14 19:47:00	BASE	6.90	280	10.29	265	-1.6	97	-2.0	17	0	975.4	NA	0.0000		9999	520	0	0	0
2019/04/14 19:48:00	BASE	6.87	286	9.83	256	-1.6	97	-2.0	17	0	975.4	NA	0.0000		9999	2200	0	0	0
2019/04/14 19:49:00	BASE	7.06	283	9.83	256	-1.6	97	-2.1	17	0	975.4	NA	0.0000		9999	2130	0	0	0
2019/04/14 19:50:00	BASE	7.53	284	9.16	269	-1.6	97	-2.1	17	0	975.4	NA	0.0000		9999	2030	0	0	0
2019/04/14 19:51:00	BASE	7.85	284	9.21	286	-1.6	96	-2.1	18	0	975.4	NA	0.0000		9999	2330	0	0	0
2019/04/14 19:52:00	BASE	8.53	279	11.16	267	-1.6	96	-2.2	18	0	975.4	NA	0.0000		9999	2400	0	0	0
2019/04/14 19:53:00	BASE	9.03	275	11.16	267	-1.6	95	-2.2	18	0	975.5	NA	0.0000		9999	2360	0	0	0
2019/04/14 19:54:00	BASE	8.94	272	11.16	267	-1.6	94	-2.3	19	0	975.5	NA	0.0000		9999	2400	0	0	0
2019/04/14 19:55:00	BASE	8.02	266	11.16	267	-1.5	93	-2.5	19	0	975.5	NA	0.0000		9999	2430	0	0	0
2019/04/14 19:56:00	BASE	7.15	269	11.16	267	-1.5	92	-2.6	19	0	975.5	NA	0.0000		9999	2530	0	0	0
2019/04/14 19:57:00	BASE	8.00	273	11.16	267	-1.5	91	-2.7	19	0	975.6	NA	0.0000		9999	2490	0	0	0
2019/04/14 19:58:00	BASE	9.05	277	11.16	267	-1.5	90	-2.9	19	0	975.6	NA	0.0000		9999	2530	0	0	0
2019/04/14 19:59:00	BASE	9.53	289	11.16	267	-1.5	90	-2.9	19	0	975.6	NA	0.0000		9999	2690	0	0	0
2019/04/14 20:00:00	BASE	9.48	291	11.16	267	-1.5	89	-3.1	19	0	975.6	NA	0.0000		9999	2850	0	0	0
2019/04/14 20:01:00	BASE	8.85	289	11.16	267	-1.4	88	-3.2	19	0	975.6	NA	0.0000		9999	2760	0	0	0
2019/04/14 20:02:00	BASE	9.76	288	11.68	295	-1.4	87	-3.3	19	0	975.6	NA	0.0000		9999	3120	0	0	0
2019/04/14 20:03:00	BASE	10.06	286	11.68	295	-1.4	86	-3.4	18	0	975.6	NA	0.0000		9999	3220	0	0	0
2019/04/14 20:04:00	BASE	9.92	288	11.68	295	-1.4	86	-3.5	18	0	975.6	NA	0.0000		9999	3220	0	0	0
2019/04/14 20:05:00	BASE	10.55	291	12.50	288	-1.4	85	-3.5	17	0	975.6	NA	0.0000		9999	3220	0	0	0
2019/04/14 20:06:00	BASE	9.48	285	12.50	288	-1.3	85	-3.5	17	0	975.6	NA	0.0000		9999	2990	0	0	0
2019/04/14 20:07:00	BASE	8.70	281	12.50	288	-1.3	85	-3.5	16	0	975.7	NA	0.0000		9999	3020	0	0	0
2019/04/14 20:08:00	BASE	10.08	282	12.50	288	-1.3	85	-3.5	17	0	975.6	NA	0.0000		9999	3150	0	0	0
2019/04/14 20:09:00	BASE	10.98	287	12.50	288	-1.3	84	-3.7	17	0	975.6	NA	0.0000		9999	2920	0	0	0
2019/04/14 20:10:00	BASE	10.85	289	12.50	288	-1.3	83	-3.8	17	0	975.6	NA	0.0000		9999	2950	0	0	0
2019/04/14 20:11:00	BASE	10.52	291	12.50	288	-1.3	83	-3.9	16	0	975.7	NA	0.0000		9999	3150	0	0	0
2019/04/14 20:12:00	BASE	9.74	293	12.50	288	-1.4	82	-4.1	16	0	975.7	NA	0.0000		9999	3220	0	0	0
2019/04/14 20:13:00	BASE	9.10	294	12.50	288	-1.4	81	-4.2	16	0	975.8	NA	0.0000		9999	2760	0	0	0
2019/04/14 20:14:00	BASE	8.65	297	12.50	288	-1.4	81	-4.2	16	0	975.8	NA	0.0000		9999	3150	0	0	0
2019/04/14 20:15:02	BASE	8.70	298	12.09	291	-1.4	81	-4.3	16	0	M	NA	0.0000		9999	3180	0	0	0
2019/04/14 20:16:00	BASE	8.72	284	12.09	291	-1.4	80	-4.3	15	0	975.8	NA	0.0000		9999	3050	0	0	0
2019/04/14 20:17:00	BASE	9.21	276	12.09	291	-1.4	80	-4.3	14	0	975.8	NA	0.0000		9999	3020	0	0	0
2019/04/14 20:18:00	BASE	9.89	276	12.09	291	-1.4	80	-4.4	13	0	975.9	NA	0.0000		9999	3080	3840	0	0
2019/04/14 20:19:00	BASE	9.32	278	12.09	291	-1.4	80	-4.4	12	0	975.9	NA	0.0000		9999	1480	0	0	0
2019/04/14 20:20:00	BASE	8.63	277	11.68	274	-1.4	80	-4.4	12	0	975.9	NA	0.0000		9999	1350	3580	0	0
2019/04/14 20:21:00	BASE	8.30	278	11.68	274	-1.4	79	-4.5	11	0	975.9	NA	0.0000		9999	1440	0	0	0
2019/04/14 20:22:00	BASE	7.77	279	11.68	274	-1.4	79	-4.6	10	0	975.9	NA	0.0000		9999	2100	0	0	0
2019/04/14 20:23:00	BASE	7.69	281	11.68	274	-1.3	79	-4.6	10	0	975.9	NA	0.0000		9999	1970	0	0	0
2019/04/14 20:24:00	BASE	7.90	277	11.68	274	-1.3	79	-4.5	9	0	976.0	NA	0.0000		9999	2230	0	0	0
2019/04/14 20:25:00	BASE	7.50	268	11.68	274	-1.2	79	-4.5	8	0	976.0	NA	0.0000		9999	2660	0	0	0
2019/04/14 20:26:00	BASE	7.81	268	11.68	274	-1.2	79	-4.4	7	0	976.0	NA	0.0000		9999	2790	0	0	0
2019/04/14 20:27:00	BASE	8.97	274	11.68	274	-1.3	80	-4.3	6	0	976.0	NA	0.0000		9999	2820	0	0	0
2019/04/14 20:28:00	BASE	8.77	275	10.60	273	-1.3	80	-4.3	6	0	976.0	NA	0.0000		9999	2760	0	0	0
2019/04/14 20:29:00	BASE	7.68	274	10.60	273	-1.3	80	-4.3	6	0	976.0	NA	0.0000		9999	2760	0	0	0
2019/04/14 20:30:00	BASE	7.28	274	10.60	273	-1.4	80	-4.3	5	0	976.0	NA	0.0000		9999	2720	0	0	0
2019/04/14 20:31:00	BASE	7.14	274	10.60	273	-1.4	80	-4.4	5	0	976.0	NA	0.0000		9999	2720	0	0	0
2019/04/14 20:32:00	BASE	6.92	274	10.60	273	-1.4	80	-4.4	5	0	976.1	NA	0.0000		9999	2590	0	0	0
2019/04/14 20:33:00	BASE	7.37	278	10.60	273	-1.4	80	-4.4	5	0	976.1	NA	0.0000		9999	2590	0	0	0
2019/04/14 20:34:00	BASE	7.60	283	10.60	273	-1.4	80	-4.4	5	0	976.1	NA	0.0000		9999	2760	0	0	0
2019/04/14 20:35:00	BASE	6.86	280	10.44	264	-1.3	80	-4.4	5	0	976.1	NA	0.0000		9999	2660	0	0	0
2019/04/14 20:36:00	BASE	7.19	281	10.19	271	-1.3	80	-4.3	5	0	976.1	NA	0.0000		9999	2950	0	0	0
2019/04/14 20:37:00	BASE	7.45	281	9.67	279	-1.3	80	-4.3	5	0	976.1	NA	0.0000		9999	2890	0	0	0
2019/04/14 20:38:00	BASE	7.02	280	9.67	279	-1.3	80	-4.3	5	0	976.2	NA	0.0000		9999	2920	0	0	0
2019/04/14 20:39:00	BASE	7.61	286	10.39	285	-1.3	80	-4.3	4	0	976.2	NA	0.0000		9999	2950	0	0	0
2019/04/14 20:40:00	BASE	9.00	284	10.39	285	-1.3	79	-4.4	4	0	976.2	NA	0.0000		9999	2560	0	0	0
2019/04/14 20:41:00	BASE	9.55	284	10.91	293	-1.3	79	-4.5	4	0	976.2	NA	0.0000		9999	3020	0	0	0
2019/04/14 20:42:00	BASE	9.92	291	12.04	293	-1.3	78	-4.6	4	0	976.2	NA	0.0000		9999	2950	0	0	0
2019/04/14 20:43:00	BASE	9.92	290	12.04	293	-1.3	78	-4.7	4	0	976.2	NA	0.0000		9999	2850	0	0	0
2019/04/14 20:44:00	BASE	8.43	290	12.04	293	-1.4	78	-4.8	4	0	976.3	NA	0.0000		9999	2950	0	0	0
2019/04/14 20:45:00	BASE	7.21	283	12.04	293	-1.4	78	-4.8	3	0	976.3	NA	0.0000		9999	3020	0	0	0
2019/04/14 20:46:00	BASE	5.96	273	12.04	293	-1.5	78	-4.8	3	0	976.3	NA	0.0000		9999	3020	0	0	0
2019/04/14 20:47:00	BASE	4.46	275	12.04	293	-1.5	78	-4.8	3	0	976.4	NA	0.0000		9999	3120	0	0	0
2019/04/14 20:48:00	BASE	3.87	279	12.04	293	-1.5	78	-4.8	3	0	976.3	NA	0.0000		9999	3020	0	0	0
2019/04/14 20:49:00	BASE	4.09	283	12.04	293	-1.5	78	-4.8	3	0	976.3	NA	0.0000		9999	2990	0	0	0
2019/04/14 20:50:00	BASE	4.26	290	12.04	293	-1.4	77	-4.9	3	0	976.3	NA	0.0000		9999	2990	0	0	0
2019/04/14 20:51:00	BASE	5.22	296	12.04	293	-1.4	76	-5.0	2	0	976.3	NA	0.0000		9999	2990	0	0	0
2019/04/14 20:52:00	BASE	7.15	295	9.88	294	-1.3	76	-5.1	2	0	976.3	NA	0.0000		9999	3020	0	0	0
2019/04/14 20:53:00	BASE	7.23	290	8.90	277	-1.3	75	-5.2	2	0	976.3	NA	0.0000		9999	3050	0	0	0
2019/04/14 20:54:00	BASE	6.31	290	8.75	289	-1.3	75	-5.2	2	0	976.3	NA	0.0000		9999	3080	0	0	0
2019/04/14 20:55:00	BASE	6.68	295	8.95	299	-1.2	75	-5.2	2	0	976.3	NA	0.0000		9999	3080	0	0	0
2019/04/14 20:56:00	BASE	7.25	296	8.95	299	-1.3	74	-5.2	2	0	976.3	NA	0.0000		9999	2950	0	0	0
2019/04/14 20:57:00	BASE	7.44	296	8.95	299	-1.2	74	-5.3	2	0	976.3	NA	0.0000		9999	2990	0	0	0
2019/04/14 20:58:00	BASE	7.25	294	8.95	299	-1.2	74	-5.3	2	0	976.3	NA	0.0000		9999	2950	0	0	0
2019/04/14 20:59:00	BASE	7.15	292	8.95	299	-1.2	73	-5.4	1	0	976.3	NA	0.0000		9999	3020	0	0	0
2019/04/14 21:00:00	BASE	7.55	288	8.95	277	-1.2	73	-5.5	1	0	976.4	NA	0.0000		9999	3050	0	0	0
2019/04/14 21:01:00	BASE	7.60	282	8.95	277	-1.2	73	-5.5	1	0	976.3	NA	0.0000		9999	2990	0	0	0
2019/04/14 21:02:00	BASE	7.09	279	8.95	277	-1.2	72	-5.5	1	0	976.3	NA	0.0000		9999	3020	0	0	0
2019/04/14 21:03:00	BASE	6.28	279	8.95	277	-1.2	72	-5.5	1	0	976.4	NA	0.0000		9999	2850	0	0	0
2019/04/14 21:04:00	BASE	6.00	289	8.95	277	-1.2	73	-5.5	1	0	976.4	NA	0.0000		9999	2950	0	0	0
2019/04/14 21:05:00	BASE	5.58	289	8.95	277	-1.2	73	-5.5	1	0	976.4	NA	0.0000		9999	2790	0	0	0
2019/04/14 21:06:00	BASE	5.48	288	8.95	277	-1.2	73	-5.4	1	0	976.4	NA	0.0000		9999	2820	0	0	0
2019/04/14 21:07:00	BASE	6.94	292	8.95	277	-1.2	73	-5.4	1	0	976.4	NA	0.0000		9999	2760	0	0	0
2019/04/14 21:08:01	BASE	7.44	288	8.95	277	-1.2	74	-5.3	1	0	976.4	NA	0.0000		9999	2760	0	0	0
2019/04/14 21:09:00	BASE	6.39	279	8.95	277	-1.2	74	-5.2	1	0	976.5	NA	0.0000		9999	2820	0	0	0
2019/04/14 21:10:00	BASE	5.54	273	8.54	294	-1.2	75	-5.1	1	0	976.5	NA	0.0000		9999	2890	0	0	0
2019/04/14 21:11:00	BASE	5.95	275	8.54	294	-1.2	75	-5.1	1	0	976.5	NA	0.0000		9999	2920	0	0	0
2019/04/14 21:12:00	BASE	6.23	279	8.54	294	-1.2	76	-5.0	1	0	976.5	NA	0.0000		9999	2990	0	0	0
2019/04/14 21:13:00	BASE	6.09	281	8.54	294	-1.2	76	-4.9	1	0	976.5	NA	0.0000		9999	3020	0	0	0
2019/04/14 21:14:00	BASE	6.92	282	8.54	294	-1.2	77	-4.8	1	0	976.6	NA	0.0000		9999	2890	0	0	0
2019/04/14 21:15:00	BASE	7.32	283	8.54	294	-1.3	77	-4.8	0	0	976.5	NA	0.0000		9999	2890	0	0	0
2019/04/14 21:16:00	BASE	6.79	276	8.54	294	-1.3	76	-4.9	0	0	976.6	NA	0.0000		9999	2890	0	0	0
2019/04/14 21:17:00	BASE	6.60	267	8.54	294	-1.3	76	-5.0	0	0	976.6	NA	0.0000		9999	2820	0	0	0
2019/04/14 21:18:00	BASE	6.30	266	8.28	265	-1.3	76	-5.0	0	0	976.6	NA	0.0000		9999	2790	0	0	0
2019/04/14 21:19:00	BASE	6.24	272	8.28	265	-1.3	76	-5.0	0	0	976.6	NA	0.0000		9999	2850	0	0	0
2019/04/14 21:20:00	BASE	6.06	277	8.28	265	-1.3	76	-5.1	0	0	976.7	NA	0.0000		9999	2890	0	0	0
2019/04/14 21:21:00	BASE	4.58	274	8.28	265	-1.3	76	-5.1	0	0	976.7	NA	0.0000		9999	2820	0	0	0
2019/04/14 21:22:00	BASE	3.85	268	8.28	265	-1.3	75	-5.1	0	0	976.7	NA	0.0000		9999	2850	0	0	0
2019/04/14 21:23:00	BASE	3.78	271	8.28	265	-1.3	75	-5.2	0	0	976.7	NA	0.0000		9999	2790	0	0	0
2019/04/14 21:24:00	BASE	3.55	279	8.28	265	-1.3	75	-5.2	0	0	976.7	NA	0.0000		9999	2760	0	0	0
2019/04/14 21:25:00	BASE	4.80	281	8.28	265	-1.3	75	-5.2	0	0	976.7	NA	0.0000		9999	2850	0	0	0
2019/04/14 21:26:00	BASE	6.55	278	8.64	269	-1.3	75	-5.2	0	0	976.7	NA	0.0000		9999	2920	0	0	0
2019/04/14 21:27:00	BASE	6.89	276	8.64	269	-1.3	75	-5.1	0	0	976.7	NA	0.0000		9999	3120	0	0	0
2019/04/14 21:28:00	BASE	6.55	272	8.64	269	-1.2	74	-5.2	0	0	976.7	NA	0.0000		9999	3080	0	0	0
2019/04/14 21:29:00	BASE	7.20	258	8.80	240	-1.2	74	-5.3	0	0	976.7	NA	0.0000		9999	3120	0	0	0
2019/04/14 21:30:00	BASE	7.26	256	8.80	240	-1.2	73	-5.4	0	0	976.7	NA	0.0000		9999	3120	0	0	0
2019/04/14 21:31:00	BASE	6.37	268	8.80	240	-1.2	73	-5.5	0	0	976.7	NA	0.0000		9999	3120	0	0	0
2019/04/14 21:32:00	BASE	6.82	276	8.80	240	-1.3	72	-5.6	0	0	976.7	NA	0.0000		9999	3020	0	0	0
2019/04/14 21:33:00	BASE	7.02	281	8.80	240	-1.3	72	-5.7	0	0	976.8	NA	0.0000		9999	2950	0	0	0
2019/04/14 21:34:00	BASE	6.93	286	8.80	240	-1.3	72	-5.7	0	0	976.8	NA	0.0000		9999	3020	0	0	0
2019/04/14 21:35:00	BASE	7.20	288	8.80	240	-1.3	71	-5.8	0	0	976.8	NA	0.0000		9999	3080	0	0	0
2019/04/14 21:36:00	BASE	6.55	285	8.80	240	-1.3	71	-5.8	0	0	976.9	NA	0.0000		9999	2950	0	0	0
2019/04/14 21:37:00	BASE	5.86	279	8.80	240	-1.3	71	-5.9	0	0	976.9	NA	0.0000		9999	2920	0	0	0
2019/04/14 21:38:00	BASE	5.39	277	8.80	240	-1.2	71	-5.9	0	0	976.9	NA	0.0000		9999	3050	0	0	0
2019/04/14 21:39:00	BASE	5.71	272	8.75	284	-1.2	70	-5.9	0	0	976.8	NA	0.0000		9999	3080	0	0	0
2019/04/14 21:40:00	BASE	6.42	263	8.75	284	-1.2	70	-5.9	0	0	976.9	NA	0.0000		9999	3050	0	0	0
2019/04/14 21:41:00	BASE	6.29	262	8.75	284	-1.2	71	-5.9	0	0	977.0	NA	0.0000		9999	3020	0	0	0
2019/04/14 21:42:00	BASE	6.10	269	7.97	287	-1.2	71	-5.8	0	0	977.0	NA	0.0000		9999	3050	0	0	0
2019/04/14 21:43:00	BASE	5.41	273	7.97	287	-1.2	72	-5.7	0	0	977.0	NA	0.0000		9999	3050	0	0	0
2019/04/14 21:44:00	BASE	4.91	276	7.67	287	-1.2	72	-5.6	0	0	977.0	NA	0.0000		9999	3050	0	0	0
2019/04/14 21:45:00	BASE	4.83	280	7.41	259	-1.2	72	-5.6	0	0	977.0	NA	0.0000		9999	3080	0	0	0
2019/04/14 21:46:00	BASE	5.80	282	9.67	285	-1.2	72	-5.6	0	0	977.0	NA	0.0000		9999	2990	0	0	0
2019/04/14 21:47:00	BASE	6.56	289	9.67	285	-1.2	72	-5.5	0	0	977.0	NA	0.0000		9999	2950	0	0	0
2019/04/14 21:48:00	BASE	5.93	286	9.67	285	-1.2	73	-5.5	0	0	977.0	NA	0.0000		9999	2990	0	0	0
2019/04/14 21:49:00	BASE	6.57	274	9.67	285	-1.2	73	-5.4	0	0	977.0	NA	0.0000		9999	2850	0	0	0
2019/04/14 21:50:00	BASE	6.54	271	9.67	285	-1.2	73	-5.4	0	0	977.0	NA	0.0000		9999	3080	0	0	0
2019/04/14 21:51:00	BASE	4.95	265	9.67	285	-1.2	73	-5.4	0	0	977.1	NA	0.0000		9999	3150	0	0	0
2019/04/14 21:52:00	BASE	4.98	256	9.67	285	-1.2	73	-5.4	0	0	977.0	NA	0.0000		9999	3020	0	0	0
2019/04/14 21:53:00	BASE	5.14	259	9.67	285	-1.2	73	-5.5	0	0	977.1	NA	0.0000		9999	2990	0	0	0
2019/04/14 21:54:00	BASE	4.95	272	9.67	285	-1.3	72	-5.6	0	0	977.1	NA	0.0000		9999	2990	0	0	0
2019/04/14 21:55:00	BASE	6.13	268	9.67	285	-1.3	72	-5.7	0	0	977.1	NA	0.0000		9999	2990	0	0	0
2019/04/14 21:56:00	BASE	6.30	261	8.59	273	-1.3	71	-5.8	0	0	977.1	NA	0.0000		9999	3020	0	0	0
2019/04/14 21:57:00	BASE	5.24	265	8.59	273	-1.2	71	-5.8	0	0	977.1	NA	0.0000		9999	3120	0	0	0
2019/04/14 21:58:00	BASE	4.82	274	8.59	273	-1.2	71	-5.9	0	0	977.1	NA	0.0000		9999	3080	0	0	0
2019/04/14 21:59:00	BASE	5.15	275	7.87	261	-1.2	70	-5.9	0	0	977.1	NA	0.0000		9999	3050	0	0	0
2019/04/14 22:00:00	BASE	6.16	275	7.87	261	-1.2	70	-6.0	0	0	977.1	NA	0.0000		9999	3080	0	0	0
2019/04/14 22:01:00	BASE	6.71	282	7.87	261	-1.2	70	-6.0	0	0	977.1	NA	0.0000		9999	3050	0	0	0
2019/04/14 22:02:00	BASE	6.68	287	7.87	261	-1.2	70	-6.0	0	0	977.2	NA	0.0000		9999	3050	0	0	0
2019/04/14 22:03:00	BASE	7.11	295	7.92	300	-1.2	70	-5.9	0	0	977.1	NA	0.0000		9999	3150	0	0	0
2019/04/14 22:04:00	BASE	6.56	297	7.92	300	-1.2	70	-5.9	0	0	977.2	NA	0.0000		9999	3120	0	0	0
2019/04/14 22:05:00	BASE	5.40	286	7.92	300	-1.2	70	-5.9	0	0	977.2	NA	0.0000		9999	3080	0	0	0
2019/04/14 22:06:00	BASE	5.07	274	7.92	300	-1.2	71	-5.9	0	0	977.2	NA	0.0000		9999	3150	0	0	0
2019/04/14 22:07:00	BASE	4.88	269	7.92	300	-1.2	71	-5.9	0	0	977.2	NA	0.0000		9999	3150	0	0	0
2019/04/14 22:08:00	BASE	5.02	272	7.92	300	-1.2	70	-5.9	0	0	977.2	NA	0.0000		9999	3220	0	0	0
2019/04/14 22:09:00	BASE	6.29	281	9.47	281	-1.2	70	-5.9	0	0	977.2	NA	0.0000		9999	3280	0	0	0
2019/04/14 22:10:00	BASE	6.84	280	9.47	281	-1.2	70	-5.9	0	0	977.2	NA	0.0000		9999	3250	0	0	0
2019/04/14 22:11:00	BASE	7.03	270	9.88	259	-1.2	70	-6.0	0	0	977.2	NA	0.0000		9999	3280	0	0	0
2019/04/14 22:12:00	BASE	7.55	268	9.88	259	-1.2	69	-6.1	0	0	977.2	NA	0.0000		9999	3150	0	0	0
2019/04/14 22:13:00	BASE	7.89	281	9.88	259	-1.2	69	-6.1	0	0	977.2	NA	0.0000		9999	3220	0	0	0
2019/04/14 22:14:00	BASE	8.08	293	9.88	259	-1.2	69	-6.2	0	0	977.3	NA	0.0000		9999	3250	0	0	0
2019/04/14 22:15:00	BASE	7.63	295	9.88	259	-1.2	69	-6.2	0	0	977.3	NA	0.0000		9999	3280	0	0	0
2019/04/14 22:16:00	BASE	7.40	293	9.88	259	-1.2	69	-6.2	0	0	977.3	NA	0.0000		9999	3150	0	0	0
2019/04/14 22:17:00	BASE	7.57	294	9.88	259	-1.2	69	-6.1	0	0	977.2	NA	0.0000		9999	3220	0	0	0
2019/04/14 22:18:00	BASE	7.95	289	9.88	259	-1.2	69	-6.1	0	0	977.2	NA	0.0000		9999	3250	0	0	0
2019/04/14 22:19:00	BASE	7.30	277	9.88	259	-1.2	69	-6.1	0	0	977.3	NA	0.0000		9999	3310	0	0	0
2019/04/14 22:20:00	BASE	6.50	271	9.88	259	-1.2	69	-6.1	0	0	977.3	NA	0.0000		9999	3280	0	0	0
2019/04/14 22:21:00	BASE	6.11	269	9.52	290	-1.2	69	-6.2	0	0	977.3	NA	0.0000		9999	3280	0	0	0
2019/04/14 22:22:00	BASE	6.86	274	9.98	272	-1.2	68	-6.3	0	0	977.2	NA	0.0000		9999	3220	0	0	0
2019/04/14 22:23:00	BASE	7.65	285	9.98	272	-1.2	68	-6.4	0	0	977.3	NA	0.0000		9999	3250	0	0	0
2019/04/14 22:24:00	BASE	7.38	293	9.98	272	-1.2	67	-6.5	0	0	977.3	NA	0.0000		9999	3310	0	0	0
2019/04/14 22:25:00	BASE	7.05	295	9.98	272	-1.2	67	-6.6	0	0	977.3	NA	0.0000		9999	3280	0	0	0
2019/04/14 22:26:00	BASE	6.03	296	9.98	272	-1.2	67	-6.6	0	0	977.3	NA	0.0000		9999	3380	0	0	0
2019/04/14 22:27:00	BASE	5.84	296	9.98	272	-1.2	66	-6.7	0	0	977.3	NA	0.0000		9999	3380	0	0	0
2019/04/14 22:28:00	BASE	5.86	297	9.98	272	-1.2	66	-6.8	0	0	977.3	NA	0.0000		9999	3350	0	0	0
2019/04/14 22:29:00	BASE	5.76	303	9.98	272	-1.2	66	-6.8	0	0	977.3	NA	0.0000		9999	3310	0	0	0
2019/04/14 22:30:00	BASE	5.92	302	9.98	272	-1.2	66	-6.8	0	0	977.3	NA	0.0000		9999	3310	0	0	0
2019/04/14 22:31:00	BASE	6.19	297	9.98	272	-1.2	66	-6.8	0	0	977.3	NA	0.0000		9999	3310	0	0	0
2019/04/14 22:32:00	BASE	6.69	294	7.87	295	-1.2	66	-6.7	0	0	977.3	NA	0.0000		9999	3250	0	0	0
2019/04/14 22:33:00	BASE	6.55	283	7.87	295	-1.2	67	-6.6	0	0	977.3	NA	0.0000		9999	3310	0	0	0
2019/04/14 22:34:00	BASE	6.25	276	7.67	245	-1.2	67	-6.6	0	0	977.3	NA	0.0000		9999	3380	0	0	0
2019/04/14 22:35:00	BASE	5.63	279	7.67	245	-1.2	67	-6.7	0	0	977.3	NA	0.0000		9999	3450	0	0	0
2019/04/14 22:36:00	BASE	4.99	283	7.67	245	-1.2	66	-6.8	0	0	977.3	NA	0.0000		9999	3350	0	0	0
2019/04/14 22:37:00	BASE	4.74	283	7.67	245	-1.2	65	-7.0	0	0	977.3	NA	0.0000		9999	3310	0	0	0
2019/04/14 22:38:00	BASE	4.39	277	7.67	245	-1.2	64	-7.2	0	0	977.3	NA	0.0000		9999	3280	0	0	0
2019/04/14 22:39:00	BASE	4.78	279	7.77	288	-1.2	63	-7.4	0	0	977.3	NA	0.0000		9999	3310	0	0	0
2019/04/14 22:40:00	BASE	6.01	286	7.77	288	-1.2	62	-7.5	0	0	977.3	NA	0.0000		9999	3280	0	0	0
2019/04/14 22:41:00	BASE	5.97	286	7.77	288	-1.2	62	-7.5	0	0	977.3	NA	0.0000		9999	3310	0	0	0
2019/04/14 22:42:00	BASE	5.48	297	7.77	288	-1.2	62	-7.5	0	0	977.3	NA	0.0000		9999	3310	0	0	0
2019/04/14 22:43:01	BASE	5.50	307	7.77	288	-1.2	63	-7.5	0	0	977.3	NA	0.0000		9999	3220	0	0	0
2019/04/14 22:44:00	BASE	5.36	307	7.77	288	-1.2	63	-7.5	0	0	977.3	NA	0.0000		9999	3310	0	0	0
2019/04/14 22:45:00	BASE	5.82	304	7.77	288	-1.2	62	-7.5	0	0	977.3	NA	0.0000		9999	3310	0	0	0
2019/04/14 22:46:00	BASE	5.79	298	7.77	288	-1.2	62	-7.5	0	0	977.3	NA	0.0000		9999	3350	0	0	0
2019/04/14 22:47:00	BASE	5.10	298	7.77	288	-1.2	62	-7.5	0	0	977.4	NA	0.0000		9999	3350	0	0	0
2019/04/14 22:48:00	BASE	4.88	299	7.77	288	-1.2	62	-7.5	0	0	977.4	NA	0.0000		9999	3350	0	0	0
2019/04/14 22:49:00	BASE	4.40	294	7.15	288	-1.2	62	-7.5	0	0	977.4	NA	0.0000		9999	3350	0	0	0
2019/04/14 22:50:00	BASE	3.82	297	6.58	301	-1.2	63	-7.4	0	0	977.4	NA	0.0000		9999	3310	0	0	0
2019/04/14 22:51:00	BASE	3.62	301	6.58	301	-1.2	63	-7.3	0	0	977.4	NA	0.0000		9999	3310	0	0	0
2019/04/14 22:52:00	BASE	3.53	299	6.58	301	-1.2	64	-7.2	0	0	977.4	NA	0.0000		9999	3280	0	0	0
2019/04/14 22:53:00	BASE	3.82	307	6.58	301	-1.2	64	-7.1	0	0	977.4	NA	0.0000		9999	3250	0	0	0
2019/04/14 22:54:00	BASE	3.68	317	6.58	301	-1.2	65	-7.0	0	0	977.4	NA	0.0000		9999	3280	0	0	0
2019/04/14 22:55:00	BASE	3.85	317	5.81	291	-1.2	65	-6.9	0	0	977.4	NA	0.0000		9999	3280	0	0	0
2019/04/14 22:56:00	BASE	4.13	317	5.45	299	-1.2	65	-6.9	0	0	977.4	NA	0.0000		9999	3350	0	0	0
2019/04/14 22:57:00	BASE	3.69	318	5.14	294	-1.2	65	-7.0	0	0	977.4	NA	0.0000		9999	3380	0	0	0
2019/04/14 22:58:00	BASE	4.42	311	6.69	307	-1.2	65	-6.9	0	0	977.5	NA	0.0000		9999	3410	0	0	0
2019/04/14 22:59:00	BASE	5.60	302	6.69	299	-1.2	65	-6.9	0	0	977.5	NA	0.0000		9999	3410	0	0	0
2019/04/14 23:00:00	BASE	5.67	300	6.69	299	-1.2	65	-6.9	0	0	977.5	NA	0.0000		9999	3310	0	0	0
2019/04/14 23:01:00	BASE	5.88	299	7.00	301	-1.2	65	-6.9	0	0	977.6	NA	0.0000		9999	3250	0	0	0
2019/04/14 23:02:00	BASE	6.21	298	7.67	293	-1.2	65	-6.9	0	0	977.6	NA	0.0000		9999	3250	0	0	0
2019/04/14 23:03:00	BASE	6.52	298	7.67	293	-1.2	65	-6.9	0	0	977.6	NA	0.0000		9999	3280	0	0	0
2019/04/14 23:04:00	BASE	7.24	298	9.62	292	-1.2	65	-6.9	0	0	977.6	NA	0.0000		9999	3350	0	0	0
2019/04/14 23:05:00	BASE	7.95	296	9.62	292	-1.2	66	-6.8	0	0	977.6	NA	0.0000		9999	3350	0	0	0
2019/04/14 23:06:00	BASE	7.70	294	9.62	292	-1.2	66	-6.9	0	0	977.6	NA	0.0000		9999	3350	0	0	0
2019/04/14 23:07:00	BASE	7.11	298	9.62	292	-1.2	65	-6.9	0	0	977.6	NA	0.0000		9999	3350	0	0	0
2019/04/14 23:08:00	BASE	7.70	303	9.62	292	-1.2	65	-7.1	0	0	977.6	NA	0.0000		9999	3310	0	0	0
2019/04/14 23:09:00	BASE	7.80	303	9.62	292	-1.3	64	-7.2	0	0	977.6	NA	0.0000		9999	3380	0	0	0
2019/04/14 23:10:00	BASE	6.37	298	9.62	292	-1.3	64	-7.3	0	0	977.7	NA	0.0000		9999	3310	0	0	0
2019/04/14 23:11:00	BASE	5.20	296	9.62	292	-1.3	63	-7.4	0	0	977.7	NA	0.0000		9999	3280	0	0	0
2019/04/14 23:12:00	BASE	5.32	296	9.62	292	-1.2	63	-7.3	0	0	977.7	NA	0.0000		9999	3250	0	0	0
2019/04/14 23:13:00	BASE	5.50	300	9.62	292	-1.2	63	-7.4	0	0	977.7	NA	0.0000		9999	3280	0	0	0
2019/04/14 23:14:00	BASE	6.05	306	9.31	294	-1.3	63	-7.4	0	0	977.7	NA	0.0000		9999	3250	0	0	0
2019/04/14 23:15:00	BASE	6.27	298	9.26	305	-1.3	63	-7.5	0	0	977.7	NA	0.0000		9999	3350	0	0	0
2019/04/14 23:16:00	BASE	5.25	295	9.26	305	-1.2	63	-7.5	0	0	977.7	NA	0.0000		9999	3350	0	0	0
2019/04/14 23:17:00	BASE	4.22	298	9.26	305	-1.2	62	-7.6	0	0	977.7	NA	0.0000		9999	3380	0	0	0
2019/04/14 23:18:00	BASE	4.24	309	8.28	306	-1.2	62	-7.6	0	0	977.7	NA	0.0000		9999	3350	0	0	0
2019/04/14 23:19:00	BASE	5.60	325	7.82	335	-1.2	62	-7.6	0	0	977.7	NA	0.0000		9999	3280	0	0	0
2019/04/14 23:20:00	BASE	6.45	329	7.82	335	-1.2	62	-7.5	0	0	977.7	NA	0.0000		9999	3310	0	0	0
2019/04/14 23:21:00	BASE	6.10	328	7.82	335	-1.2	63	-7.4	0	0	977.7	NA	0.0000		9999	3310	0	0	0
2019/04/14 23:22:00	BASE	5.73	323	7.82	335	-1.2	64	-7.2	0	0	977.7	NA	0.0000		9999	3310	0	0	0
2019/04/14 23:23:00	BASE	6.10	318	8.08	301	-1.2	65	-6.9	0	0	977.7	NA	0.0000		9999	3350	0	0	0
2019/04/14 23:24:00	BASE	6.54	310	8.08	301	-1.2	66	-6.7	0	0	977.7	NA	0.0000		9999	3280	0	0	0
2019/04/14 23:25:00	BASE	6.59	299	8.08	301	-1.2	67	-6.6	0	0	977.7	NA	0.0000		9999	3250	0	0	0
2019/04/14 23:26:00	BASE	6.80	298	8.33	305	-1.2	67	-6.6	0	0	977.7	NA	0.0000		9999	3380	0	0	0
2019/04/14 23:27:00	BASE	6.85	297	8.33	305	-1.2	67	-6.6	0	0	977.7	NA	0.0000		9999	3480	0	0	0
2019/04/14 23:28:00	BASE	7.15	297	8.54	310	-1.3	66	-6.7	0	0	977.7	NA	0.0000		9999	3450	0	0	0
2019/04/14 23:29:00	BASE	8.52	313	9.98	332	-1.3	66	-6.8	0	0	977.7	NA	0.0000		9999	3480	0	0	0
2019/04/14 23:30:00	BASE	9.10	328	9.98	332	-1.3	66	-6.8	0	0	977.7	NA	0.0000		9999	3480	0	0	0
2019/04/14 23:31:00	BASE	8.27	331	9.98	332	-1.3	65	-6.9	0	0	977.7	NA	0.0000		9999	3450	0	0	0
2019/04/14 23:32:00	BASE	7.52	332	9.98	332	-1.3	65	-7.0	0	0	977.7	NA	0.0000		9999	3410	0	0	0
2019/04/14 23:33:00	BASE	7.13	332	9.98	332	-1.3	65	-7.1	0	0	977.7	NA	0.0000		9999	3410	0	0	0
2019/04/14 23:34:00	BASE	7.73	328	9.98	332	-1.3	65	-7.1	0	0	977.7	NA	0.0000		9999	3410	0	0	0
2019/04/14 23:35:00	BASE	7.52	324	9.98	332	-1.3	64	-7.2	0	0	977.8	NA	0.0000		9999	3310	0	0	0
2019/04/14 23:36:00	BASE	6.39	326	9.98	332	-1.3	64	-7.2	0	0	977.8	NA	0.0000		9999	3280	0	0	0
2019/04/14 23:37:00	BASE	6.03	324	9.98	332	-1.3	65	-7.1	0	0	977.8	NA	0.0000		9999	3380	0	0	0
2019/04/14 23:38:00	BASE	5.79	322	9.98	332	-1.2	65	-6.9	0	0	977.8	NA	0.0000		9999	3350	0	0	0
2019/04/14 23:39:00	BASE	6.19	317	9.47	321	-1.2	66	-6.8	0	0	977.8	NA	0.0000		9999	3280	0	0	0
2019/04/14 23:40:00	BASE	7.25	308	9.47	321	-1.2	67	-6.7	0	0	977.8	NA	0.0000		9999	3380	0	0	0
2019/04/14 23:41:00	BASE	7.38	306	9.47	321	-1.3	67	-6.6	0	0	977.8	NA	0.0000		9999	3510	0	0	0
2019/04/14 23:42:00	BASE	6.78	308	9.47	321	-1.3	66	-6.8	0	0	977.8	NA	0.0000		9999	3450	0	0	0
2019/04/14 23:43:00	BASE	6.36	309	9.47	321	-1.3	65	-7.1	0	0	977.8	NA	0.0000		9999	3410	0	0	0
2019/04/14 23:44:00	BASE	6.32	309	8.64	303	-1.3	64	-7.3	0	0	977.8	NA	0.0000		9999	3350	0	0	0
2019/04/14 23:45:00	BASE	6.47	310	8.64	303	-1.3	63	-7.5	0	0	977.8	NA	0.0000		9999	3380	0	0	0
2019/04/14 23:46:00	BASE	6.17	309	8.64	303	-1.3	62	-7.6	0	0	977.8	NA	0.0000		9999	3350	0	0	0
2019/04/14 23:47:00	BASE	5.63	311	8.64	303	-1.3	63	-7.5	0	0	977.8	NA	0.0000		9999	3310	0	0	0
2019/04/14 23:48:00	BASE	5.10	308	8.64	303	-1.3	63	-7.4	0	0	977.8	NA	0.0000		9999	3350	0	0	0
2019/04/14 23:49:00	BASE	4.76	302	8.64	303	-1.3	63	-7.4	0	0	977.8	NA	0.0000		9999	3220	0	0	0
2019/04/14 23:50:00	BASE	4.86	320	7.67	299	-1.3	63	-7.4	0	0	977.8	NA	0.0000		9999	3350	0	0	0
2019/04/14 23:51:00	BASE	5.50	347	7.15	307	-1.3	64	-7.3	0	0	977.8	NA	0.0000		9999	3280	0	0	0
2019/04/14 23:52:00	BASE	5.77	360	7.15	307	-1.3	64	-7.2	0	0	977.8	NA	0.0000		9999	3350	0	0	0
2019/04/14 23:53:00	BASE	5.65	7	6.94	312	-1.4	65	-7.1	0	0	977.8	NA	0.0000		9999	3350	0	0	0
2019/04/14 23:54:00	BASE	6.06	9	6.94	10	-1.4	66	-6.9	0	0	977.8	NA	0.0000		9999	3350	0	0	0
2019/04/14 23:55:00	BASE	6.31	13	6.94	10	-1.5	67	-6.8	0	0	977.8	NA	0.0000		9999	3310	0	0	0
2019/04/14 23:56:00	BASE	6.18	15	7.00	14	-1.5	68	-6.6	0	0	977.8	NA	0.0000		9999	3350	0	0	0
2019/04/14 23:57:00	BASE	6.31	11	7.00	14	-1.6	70	-6.5	0	0	977.8	NA	0.0000		9999	3380	0	0	0
2019/04/14 23:58:00	BASE	6.07	4	7.00	14	-1.7	71	-6.3	0	0	977.8	NA	0.0000		9999	3410	0	0	0
2019/04/14 23:59:00	BASE	5.03	358	7.00	14	-1.7	72	-6.2	0	0	977.8	NA	0.0000		9999	3350	0	0	0